<?xml version='1.0' encoding='UTF-8'?>
<gpx version="1.1" creator="https://www.komoot.de" xmlns="http://www.topografix.com/GPX/1/1" xmlns:xsi="http://www.w3.org/2001/XMLSchema-instance" xsi:schemaLocation="http://www.topografix.com/GPX/1/1 http://www.topografix.com/GPX/1/1/gpx.xsd">
  <metadata>
    <name>67_750Rothberg</name>
    <author>
      <link href="https://www.komoot.de">
        <text>komoot</text>
        <type>text/html</type>
      </link>
    </author>
  </metadata>
  <trk>
    <name>67_750Rothberg</name>
    <trkseg>
      <trkpt lat="47.541427" lon="7.870778">
        <ele>341.081271</ele>
        <time>2021-11-19T06:44:12.615Z</time>
      </trkpt>
      <trkpt lat="47.541576" lon="7.870664">
        <ele>341.081271</ele>
        <time>2021-11-19T06:44:16.457Z</time>
      </trkpt>
      <trkpt lat="47.541796" lon="7.871042">
        <ele>341.081271</ele>
        <time>2021-11-19T06:44:23.718Z</time>
      </trkpt>
      <trkpt lat="47.541953" lon="7.871286">
        <ele>341.081271</ele>
        <time>2021-11-19T06:44:28.636Z</time>
      </trkpt>
      <trkpt lat="47.542039" lon="7.871556">
        <ele>341.217776</ele>
        <time>2021-11-19T06:44:33.109Z</time>
      </trkpt>
      <trkpt lat="47.542067" lon="7.871664">
        <ele>341.527878</ele>
        <time>2021-11-19T06:44:34.799Z</time>
      </trkpt>
      <trkpt lat="47.542091" lon="7.871721">
        <ele>341.707947</ele>
        <time>2021-11-19T06:44:35.417Z</time>
      </trkpt>
      <trkpt lat="47.542218" lon="7.871866">
        <ele>342.344624</ele>
        <time>2021-11-19T06:44:40.630Z</time>
      </trkpt>
      <trkpt lat="47.542394" lon="7.872341">
        <ele>343.797007</ele>
        <time>2021-11-19T06:44:50.858Z</time>
      </trkpt>
      <trkpt lat="47.542436" lon="7.872494">
        <ele>344.239722</ele>
        <time>2021-11-19T06:44:54.263Z</time>
      </trkpt>
      <trkpt lat="47.542537" lon="7.872430">
        <ele>344.675914</ele>
        <time>2021-11-19T06:44:56.375Z</time>
      </trkpt>
      <trkpt lat="47.542714" lon="7.872334">
        <ele>345.424356</ele>
        <time>2021-11-19T06:45:03.331Z</time>
      </trkpt>
      <trkpt lat="47.542814" lon="7.872280">
        <ele>345.846986</ele>
        <time>2021-11-19T06:45:06.345Z</time>
      </trkpt>
      <trkpt lat="47.542919" lon="7.872226">
        <ele>346.288321</ele>
        <time>2021-11-19T06:45:10.184Z</time>
      </trkpt>
      <trkpt lat="47.543013" lon="7.872182">
        <ele>346.679758</ele>
        <time>2021-11-19T06:45:13.690Z</time>
      </trkpt>
      <trkpt lat="47.543233" lon="7.872082">
        <ele>347.593512</ele>
        <time>2021-11-19T06:45:20.929Z</time>
      </trkpt>
      <trkpt lat="47.543251" lon="7.872152">
        <ele>347.794291</ele>
        <time>2021-11-19T06:45:24.302Z</time>
      </trkpt>
      <trkpt lat="47.543332" lon="7.872237">
        <ele>348.188437</ele>
        <time>2021-11-19T06:45:27.608Z</time>
      </trkpt>
      <trkpt lat="47.544390" lon="7.872423">
        <ele>355.047248</ele>
        <time>2021-11-19T06:46:09.327Z</time>
      </trkpt>
      <trkpt lat="47.544883" lon="7.872555">
        <ele>358.282654</ele>
        <time>2021-11-19T06:46:31.736Z</time>
      </trkpt>
      <trkpt lat="47.545131" lon="7.872664">
        <ele>359.954169</ele>
        <time>2021-11-19T06:46:42.740Z</time>
      </trkpt>
      <trkpt lat="47.545375" lon="7.872836">
        <ele>361.713235</ele>
        <time>2021-11-19T06:46:53.681Z</time>
      </trkpt>
      <trkpt lat="47.545478" lon="7.872968">
        <ele>362.599824</ele>
        <time>2021-11-19T06:47:00.488Z</time>
      </trkpt>
      <trkpt lat="47.545515" lon="7.873015">
        <ele>362.917111</ele>
        <time>2021-11-19T06:47:02.445Z</time>
      </trkpt>
      <trkpt lat="47.545746" lon="7.873302">
        <ele>364.879722</ele>
        <time>2021-11-19T06:47:15.645Z</time>
      </trkpt>
      <trkpt lat="47.545934" lon="7.873549">
        <ele>366.515526</ele>
        <time>2021-11-19T06:47:25.745Z</time>
      </trkpt>
      <trkpt lat="47.546077" lon="7.873763">
        <ele>367.838730</ele>
        <time>2021-11-19T06:47:34.941Z</time>
      </trkpt>
      <trkpt lat="47.546135" lon="7.873859">
        <ele>368.404867</ele>
        <time>2021-11-19T06:47:38.180Z</time>
      </trkpt>
      <trkpt lat="47.546309" lon="7.874154">
        <ele>370.126317</ele>
        <time>2021-11-19T06:47:49.295Z</time>
      </trkpt>
      <trkpt lat="47.547126" lon="7.875801">
        <ele>375.819920</ele>
        <time>2021-11-19T06:48:35.056Z</time>
      </trkpt>
      <trkpt lat="47.547574" lon="7.876801">
        <ele>377.996633</ele>
        <time>2021-11-19T06:48:54.052Z</time>
      </trkpt>
      <trkpt lat="47.547992" lon="7.877974">
        <ele>377.125379</ele>
        <time>2021-11-19T06:49:06.852Z</time>
      </trkpt>
      <trkpt lat="47.548234" lon="7.878638">
        <ele>376.629724</ele>
        <time>2021-11-19T06:49:12.164Z</time>
      </trkpt>
      <trkpt lat="47.548422" lon="7.878959">
        <ele>376.139242</ele>
        <time>2021-11-19T06:49:15.007Z</time>
      </trkpt>
      <trkpt lat="47.548718" lon="7.879258">
        <ele>374.636636</ele>
        <time>2021-11-19T06:49:18.546Z</time>
      </trkpt>
      <trkpt lat="47.549140" lon="7.879391">
        <ele>372.827053</ele>
        <time>2021-11-19T06:49:22.732Z</time>
      </trkpt>
      <trkpt lat="47.549318" lon="7.879398">
        <ele>372.080212</ele>
        <time>2021-11-19T06:49:24.359Z</time>
      </trkpt>
      <trkpt lat="47.549327" lon="7.879547">
        <ele>371.656716</ele>
        <time>2021-11-19T06:49:25.346Z</time>
      </trkpt>
      <trkpt lat="47.549726" lon="7.880786">
        <ele>367.931450</ele>
        <time>2021-11-19T06:49:34.280Z</time>
      </trkpt>
      <trkpt lat="47.549927" lon="7.881490">
        <ele>366.084296</ele>
        <time>2021-11-19T06:49:39.312Z</time>
      </trkpt>
      <trkpt lat="47.550234" lon="7.883221">
        <ele>361.616877</ele>
        <time>2021-11-19T06:49:51.713Z</time>
      </trkpt>
      <trkpt lat="47.550332" lon="7.884727">
        <ele>357.184904</ele>
        <time>2021-11-19T06:50:01.557Z</time>
      </trkpt>
      <trkpt lat="47.550391" lon="7.885109">
        <ele>356.036990</ele>
        <time>2021-11-19T06:50:04.090Z</time>
      </trkpt>
      <trkpt lat="47.550548" lon="7.885799">
        <ele>353.678929</ele>
        <time>2021-11-19T06:50:08.694Z</time>
      </trkpt>
      <trkpt lat="47.550677" lon="7.886476">
        <ele>350.974619</ele>
        <time>2021-11-19T06:50:13.124Z</time>
      </trkpt>
      <trkpt lat="47.550758" lon="7.887295">
        <ele>347.792532</ele>
        <time>2021-11-19T06:50:18.267Z</time>
      </trkpt>
      <trkpt lat="47.550789" lon="7.887816">
        <ele>345.781897</ele>
        <time>2021-11-19T06:50:21.498Z</time>
      </trkpt>
      <trkpt lat="47.550831" lon="7.888611">
        <ele>342.553453</ele>
        <time>2021-11-19T06:50:26.454Z</time>
      </trkpt>
      <trkpt lat="47.550833" lon="7.889069">
        <ele>340.620335</ele>
        <time>2021-11-19T06:50:29.264Z</time>
      </trkpt>
      <trkpt lat="47.550915" lon="7.890600">
        <ele>334.138144</ele>
        <time>2021-11-19T06:50:38.657Z</time>
      </trkpt>
      <trkpt lat="47.550904" lon="7.891725">
        <ele>330.704915</ele>
        <time>2021-11-19T06:50:45.661Z</time>
      </trkpt>
      <trkpt lat="47.550892" lon="7.893176">
        <ele>326.732954</ele>
        <time>2021-11-19T06:50:55.273Z</time>
      </trkpt>
      <trkpt lat="47.550908" lon="7.894308">
        <ele>325.155222</ele>
        <time>2021-11-19T06:51:04.478Z</time>
      </trkpt>
      <trkpt lat="47.550878" lon="7.895158">
        <ele>324.433667</ele>
        <time>2021-11-19T06:51:11.663Z</time>
      </trkpt>
      <trkpt lat="47.550838" lon="7.895509">
        <ele>324.131902</ele>
        <time>2021-11-19T06:51:14.827Z</time>
      </trkpt>
      <trkpt lat="47.550660" lon="7.896255">
        <ele>323.322045</ele>
        <time>2021-11-19T06:51:21.316Z</time>
      </trkpt>
      <trkpt lat="47.550639" lon="7.896345">
        <ele>323.145815</ele>
        <time>2021-11-19T06:51:22.503Z</time>
      </trkpt>
      <trkpt lat="47.550648" lon="7.896481">
        <ele>322.892922</ele>
        <time>2021-11-19T06:51:23.458Z</time>
      </trkpt>
      <trkpt lat="47.550819" lon="7.898109">
        <ele>319.843825</ele>
        <time>2021-11-19T06:51:35.206Z</time>
      </trkpt>
      <trkpt lat="47.550801" lon="7.900244">
        <ele>314.368076</ele>
        <time>2021-11-19T06:51:49.043Z</time>
      </trkpt>
      <trkpt lat="47.550769" lon="7.901362">
        <ele>311.151202</ele>
        <time>2021-11-19T06:51:56.315Z</time>
      </trkpt>
      <trkpt lat="47.550757" lon="7.901591">
        <ele>310.560695</ele>
        <time>2021-11-19T06:51:58.451Z</time>
      </trkpt>
      <trkpt lat="47.550688" lon="7.902451">
        <ele>308.421989</ele>
        <time>2021-11-19T06:52:06.885Z</time>
      </trkpt>
      <trkpt lat="47.550498" lon="7.903445">
        <ele>305.870778</ele>
        <time>2021-11-19T06:52:17.136Z</time>
      </trkpt>
      <trkpt lat="47.550302" lon="7.904164">
        <ele>303.954722</ele>
        <time>2021-11-19T06:52:24.395Z</time>
      </trkpt>
      <trkpt lat="47.550025" lon="7.904774">
        <ele>302.134528</ele>
        <time>2021-11-19T06:52:31.320Z</time>
      </trkpt>
      <trkpt lat="47.549868" lon="7.905010">
        <ele>301.314143</ele>
        <time>2021-11-19T06:52:34.452Z</time>
      </trkpt>
      <trkpt lat="47.549867" lon="7.905155">
        <ele>300.955138</ele>
        <time>2021-11-19T06:52:35.849Z</time>
      </trkpt>
      <trkpt lat="47.550067" lon="7.905245">
        <ele>300.188430</ele>
        <time>2021-11-19T06:52:38.774Z</time>
      </trkpt>
      <trkpt lat="47.550283" lon="7.905413">
        <ele>299.293587</ele>
        <time>2021-11-19T06:52:42.224Z</time>
      </trkpt>
      <trkpt lat="47.550497" lon="7.905558">
        <ele>298.430426</ele>
        <time>2021-11-19T06:52:45.582Z</time>
      </trkpt>
      <trkpt lat="47.549539" lon="7.908625">
        <ele>293.116852</ele>
        <time>2021-11-19T06:53:10.030Z</time>
      </trkpt>
      <trkpt lat="47.549520" lon="7.908678">
        <ele>293.060680</ele>
        <time>2021-11-19T06:53:10.526Z</time>
      </trkpt>
      <trkpt lat="47.549350" lon="7.909241">
        <ele>292.483363</ele>
        <time>2021-11-19T06:53:15.555Z</time>
      </trkpt>
      <trkpt lat="47.549261" lon="7.909535">
        <ele>292.181759</ele>
        <time>2021-11-19T06:53:18.199Z</time>
      </trkpt>
      <trkpt lat="47.549195" lon="7.909756">
        <ele>291.955551</ele>
        <time>2021-11-19T06:53:20.156Z</time>
      </trkpt>
      <trkpt lat="47.549102" lon="7.910058">
        <ele>291.644837</ele>
        <time>2021-11-19T06:53:22.873Z</time>
      </trkpt>
      <trkpt lat="47.549012" lon="7.910340">
        <ele>291.352854</ele>
        <time>2021-11-19T06:53:25.378Z</time>
      </trkpt>
      <trkpt lat="47.548412" lon="7.912168">
        <ele>289.804676</ele>
        <time>2021-11-19T06:53:41.709Z</time>
      </trkpt>
      <trkpt lat="47.548027" lon="7.913334">
        <ele>289.038111</ele>
        <time>2021-11-19T06:53:52.470Z</time>
      </trkpt>
      <trkpt lat="47.547994" lon="7.913433">
        <ele>289.014646</ele>
        <time>2021-11-19T06:53:53.391Z</time>
      </trkpt>
      <trkpt lat="47.547423" lon="7.915080">
        <ele>288.621162</ele>
        <time>2021-11-19T06:54:10.867Z</time>
      </trkpt>
      <trkpt lat="47.547113" lon="7.915971">
        <ele>288.737823</ele>
        <time>2021-11-19T06:54:21.314Z</time>
      </trkpt>
      <trkpt lat="47.547091" lon="7.916039">
        <ele>288.760146</ele>
        <time>2021-11-19T06:54:22.339Z</time>
      </trkpt>
      <trkpt lat="47.547032" lon="7.916218">
        <ele>288.819118</ele>
        <time>2021-11-19T06:54:24.542Z</time>
      </trkpt>
      <trkpt lat="47.546821" lon="7.916867">
        <ele>289.032375</ele>
        <time>2021-11-19T06:54:32.651Z</time>
      </trkpt>
      <trkpt lat="47.546262" lon="7.919081">
        <ele>289.683247</ele>
        <time>2021-11-19T06:55:00.162Z</time>
      </trkpt>
      <trkpt lat="47.546128" lon="7.919617">
        <ele>289.831631</ele>
        <time>2021-11-19T06:55:05.631Z</time>
      </trkpt>
      <trkpt lat="47.545973" lon="7.920313">
        <ele>290.021894</ele>
        <time>2021-11-19T06:55:14.094Z</time>
      </trkpt>
      <trkpt lat="47.545913" lon="7.920765">
        <ele>290.411774</ele>
        <time>2021-11-19T06:55:18.267Z</time>
      </trkpt>
      <trkpt lat="47.545881" lon="7.921096">
        <ele>290.702677</ele>
        <time>2021-11-19T06:55:22.284Z</time>
      </trkpt>
      <trkpt lat="47.545810" lon="7.921755">
        <ele>291.283255</ele>
        <time>2021-11-19T06:55:31.192Z</time>
      </trkpt>
      <trkpt lat="47.545778" lon="7.921947">
        <ele>291.455309</ele>
        <time>2021-11-19T06:55:34.801Z</time>
      </trkpt>
      <trkpt lat="47.545714" lon="7.922249">
        <ele>291.730689</ele>
        <time>2021-11-19T06:55:38.000Z</time>
      </trkpt>
      <trkpt lat="47.545699" lon="7.922325">
        <ele>291.799577</ele>
        <time>2021-11-19T06:55:39.197Z</time>
      </trkpt>
      <trkpt lat="47.545690" lon="7.922369">
        <ele>291.839575</ele>
        <time>2021-11-19T06:55:41.295Z</time>
      </trkpt>
      <trkpt lat="47.545641" lon="7.922610">
        <ele>292.058547</ele>
        <time>2021-11-19T06:55:43.649Z</time>
      </trkpt>
      <trkpt lat="47.545587" lon="7.922895">
        <ele>292.316077</ele>
        <time>2021-11-19T06:55:49.445Z</time>
      </trkpt>
      <trkpt lat="47.545553" lon="7.923142">
        <ele>292.871489</ele>
        <time>2021-11-19T06:55:52.092Z</time>
      </trkpt>
      <trkpt lat="47.545536" lon="7.923407">
        <ele>293.511340</ele>
        <time>2021-11-19T06:55:57.982Z</time>
      </trkpt>
      <trkpt lat="47.545521" lon="7.923709">
        <ele>294.239221</ele>
        <time>2021-11-19T06:56:02.136Z</time>
      </trkpt>
      <trkpt lat="47.545481" lon="7.924396">
        <ele>295.896697</ele>
        <time>2021-11-19T06:56:16.739Z</time>
      </trkpt>
      <trkpt lat="47.545466" lon="7.924880">
        <ele>297.061316</ele>
        <time>2021-11-19T06:56:28.046Z</time>
      </trkpt>
      <trkpt lat="47.545446" lon="7.925350">
        <ele>298.193300</ele>
        <time>2021-11-19T06:56:38.420Z</time>
      </trkpt>
      <trkpt lat="47.545417" lon="7.925848">
        <ele>299.161989</ele>
        <time>2021-11-19T06:56:48.899Z</time>
      </trkpt>
      <trkpt lat="47.545409" lon="7.926773">
        <ele>300.583092</ele>
        <time>2021-11-19T06:57:06.100Z</time>
      </trkpt>
      <trkpt lat="47.545407" lon="7.927001">
        <ele>300.933376</ele>
        <time>2021-11-19T06:57:09.909Z</time>
      </trkpt>
      <trkpt lat="47.545406" lon="7.927306">
        <ele>301.401923</ele>
        <time>2021-11-19T06:57:14.514Z</time>
      </trkpt>
      <trkpt lat="47.545421" lon="7.927686">
        <ele>301.986677</ele>
        <time>2021-11-19T06:57:20.049Z</time>
      </trkpt>
      <trkpt lat="47.545475" lon="7.928419">
        <ele>302.673207</ele>
        <time>2021-11-19T06:57:29.367Z</time>
      </trkpt>
      <trkpt lat="47.545563" lon="7.929641">
        <ele>301.511795</ele>
        <time>2021-11-19T06:57:39.246Z</time>
      </trkpt>
      <trkpt lat="47.545661" lon="7.930955">
        <ele>300.269848</ele>
        <time>2021-11-19T06:57:48.642Z</time>
      </trkpt>
      <trkpt lat="47.545696" lon="7.931497">
        <ele>299.816329</ele>
        <time>2021-11-19T06:57:52.611Z</time>
      </trkpt>
      <trkpt lat="47.545721" lon="7.931992">
        <ele>299.402868</ele>
        <time>2021-11-19T06:57:56.403Z</time>
      </trkpt>
      <trkpt lat="47.545724" lon="7.932758">
        <ele>298.764820</ele>
        <time>2021-11-19T06:58:02.613Z</time>
      </trkpt>
      <trkpt lat="47.545702" lon="7.933290">
        <ele>298.320861</ele>
        <time>2021-11-19T06:58:07.256Z</time>
      </trkpt>
      <trkpt lat="47.545674" lon="7.933625">
        <ele>298.154847</ele>
        <time>2021-11-19T06:58:10.456Z</time>
      </trkpt>
      <trkpt lat="47.545457" lon="7.935110">
        <ele>299.107076</ele>
        <time>2021-11-19T06:58:28.591Z</time>
      </trkpt>
      <trkpt lat="47.545074" lon="7.936484">
        <ele>300.271920</ele>
        <time>2021-11-19T06:58:50.118Z</time>
      </trkpt>
      <trkpt lat="47.544903" lon="7.936917">
        <ele>300.864732</ele>
        <time>2021-11-19T06:58:57.435Z</time>
      </trkpt>
      <trkpt lat="47.544705" lon="7.937395">
        <ele>301.527459</ele>
        <time>2021-11-19T06:59:05.619Z</time>
      </trkpt>
      <trkpt lat="47.544472" lon="7.937932">
        <ele>302.281824</ele>
        <time>2021-11-19T06:59:15.026Z</time>
      </trkpt>
      <trkpt lat="47.543826" lon="7.939433">
        <ele>304.335257</ele>
        <time>2021-11-19T06:59:41.908Z</time>
      </trkpt>
      <trkpt lat="47.543435" lon="7.940670">
        <ele>305.893957</ele>
        <time>2021-11-19T07:00:01.868Z</time>
      </trkpt>
      <trkpt lat="47.543161" lon="7.942213">
        <ele>306.516419</ele>
        <time>2021-11-19T07:00:22.718Z</time>
      </trkpt>
      <trkpt lat="47.543007" lon="7.943867">
        <ele>306.284233</ele>
        <time>2021-11-19T07:00:38.262Z</time>
      </trkpt>
      <trkpt lat="47.542913" lon="7.945267">
        <ele>304.614731</ele>
        <time>2021-11-19T07:00:49.021Z</time>
      </trkpt>
      <trkpt lat="47.542872" lon="7.945781">
        <ele>304.000551</ele>
        <time>2021-11-19T07:00:52.617Z</time>
      </trkpt>
      <trkpt lat="47.542875" lon="7.946089">
        <ele>303.591772</ele>
        <time>2021-11-19T07:00:54.708Z</time>
      </trkpt>
      <trkpt lat="47.542902" lon="7.946514">
        <ele>302.911966</ele>
        <time>2021-11-19T07:00:57.588Z</time>
      </trkpt>
      <trkpt lat="47.542943" lon="7.946806">
        <ele>302.437001</ele>
        <time>2021-11-19T07:00:59.634Z</time>
      </trkpt>
      <trkpt lat="47.542974" lon="7.946965">
        <ele>302.173443</ele>
        <time>2021-11-19T07:01:00.845Z</time>
      </trkpt>
      <trkpt lat="47.542979" lon="7.946989">
        <ele>302.133444</ele>
        <time>2021-11-19T07:01:01.000Z</time>
      </trkpt>
      <trkpt lat="47.543007" lon="7.947104">
        <ele>301.938757</ele>
        <time>2021-11-19T07:01:01.849Z</time>
      </trkpt>
      <trkpt lat="47.543087" lon="7.947317">
        <ele>301.550584</ele>
        <time>2021-11-19T07:01:03.591Z</time>
      </trkpt>
      <trkpt lat="47.543191" lon="7.947615">
        <ele>301.016348</ele>
        <time>2021-11-19T07:01:06.033Z</time>
      </trkpt>
      <trkpt lat="47.543242" lon="7.947745">
        <ele>300.776900</ele>
        <time>2021-11-19T07:01:07.162Z</time>
      </trkpt>
      <trkpt lat="47.543273" lon="7.947816">
        <ele>300.642243</ele>
        <time>2021-11-19T07:01:07.790Z</time>
      </trkpt>
      <trkpt lat="47.543358" lon="7.947967">
        <ele>300.329137</ele>
        <time>2021-11-19T07:01:09.232Z</time>
      </trkpt>
      <trkpt lat="47.543455" lon="7.948127">
        <ele>299.986663</ele>
        <time>2021-11-19T07:01:10.900Z</time>
      </trkpt>
      <trkpt lat="47.543532" lon="7.948214">
        <ele>299.758205</ele>
        <time>2021-11-19T07:01:11.980Z</time>
      </trkpt>
      <trkpt lat="47.543579" lon="7.948287">
        <ele>299.597554</ele>
        <time>2021-11-19T07:01:12.744Z</time>
      </trkpt>
      <trkpt lat="47.543760" lon="7.948548">
        <ele>299.509184</ele>
        <time>2021-11-19T07:01:15.632Z</time>
      </trkpt>
      <trkpt lat="47.543864" lon="7.948694">
        <ele>299.503256</ele>
        <time>2021-11-19T07:01:17.304Z</time>
      </trkpt>
      <trkpt lat="47.544239" lon="7.949202">
        <ele>299.482233</ele>
        <time>2021-11-19T07:01:24.665Z</time>
      </trkpt>
      <trkpt lat="47.544521" lon="7.949558">
        <ele>299.466904</ele>
        <time>2021-11-19T07:01:30.839Z</time>
      </trkpt>
      <trkpt lat="47.544901" lon="7.950044">
        <ele>299.446134</ele>
        <time>2021-11-19T07:01:40.236Z</time>
      </trkpt>
      <trkpt lat="47.545166" lon="7.950366">
        <ele>299.498445</ele>
        <time>2021-11-19T07:01:46.786Z</time>
      </trkpt>
      <trkpt lat="47.545434" lon="7.950668">
        <ele>299.562522</ele>
        <time>2021-11-19T07:01:52.576Z</time>
      </trkpt>
      <trkpt lat="47.545542" lon="7.950842">
        <ele>299.592885</ele>
        <time>2021-11-19T07:01:55.001Z</time>
      </trkpt>
      <trkpt lat="47.545667" lon="7.950979">
        <ele>299.622474</ele>
        <time>2021-11-19T07:01:57.606Z</time>
      </trkpt>
      <trkpt lat="47.545737" lon="7.951055">
        <ele>299.638990</ele>
        <time>2021-11-19T07:01:58.860Z</time>
      </trkpt>
      <trkpt lat="47.545876" lon="7.951233">
        <ele>299.673953</ele>
        <time>2021-11-19T07:02:01.253Z</time>
      </trkpt>
      <trkpt lat="47.546112" lon="7.951485">
        <ele>299.729313</ele>
        <time>2021-11-19T07:02:05.796Z</time>
      </trkpt>
      <trkpt lat="47.546164" lon="7.951520">
        <ele>299.740182</ele>
        <time>2021-11-19T07:02:06.430Z</time>
      </trkpt>
      <trkpt lat="47.546212" lon="7.951535">
        <ele>299.749517</ele>
        <time>2021-11-19T07:02:07.195Z</time>
      </trkpt>
      <trkpt lat="47.546231" lon="7.951558">
        <ele>299.754186</ele>
        <time>2021-11-19T07:02:07.925Z</time>
      </trkpt>
      <trkpt lat="47.546421" lon="7.951793">
        <ele>299.751923</ele>
        <time>2021-11-19T07:02:11.106Z</time>
      </trkpt>
      <trkpt lat="47.546634" lon="7.952024">
        <ele>299.638816</ele>
        <time>2021-11-19T07:02:14.640Z</time>
      </trkpt>
      <trkpt lat="47.546695" lon="7.952091">
        <ele>299.606279</ele>
        <time>2021-11-19T07:02:15.595Z</time>
      </trkpt>
      <trkpt lat="47.546776" lon="7.952185">
        <ele>299.562192</ele>
        <time>2021-11-19T07:02:16.782Z</time>
      </trkpt>
      <trkpt lat="47.546935" lon="7.952372">
        <ele>299.475205</ele>
        <time>2021-11-19T07:02:19.717Z</time>
      </trkpt>
      <trkpt lat="47.547090" lon="7.952543">
        <ele>299.392399</ele>
        <time>2021-11-19T07:02:22.354Z</time>
      </trkpt>
      <trkpt lat="47.547400" lon="7.952910">
        <ele>299.222370</ele>
        <time>2021-11-19T07:02:27.676Z</time>
      </trkpt>
      <trkpt lat="47.547458" lon="7.952975">
        <ele>299.191209</ele>
        <time>2021-11-19T07:02:28.602Z</time>
      </trkpt>
      <trkpt lat="47.547550" lon="7.953078">
        <ele>299.141799</ele>
        <time>2021-11-19T07:02:30.099Z</time>
      </trkpt>
      <trkpt lat="47.547624" lon="7.953160">
        <ele>299.102203</ele>
        <time>2021-11-19T07:02:31.344Z</time>
      </trkpt>
      <trkpt lat="47.547797" lon="7.953355">
        <ele>299.012014</ele>
        <time>2021-11-19T07:02:34.333Z</time>
      </trkpt>
      <trkpt lat="47.547871" lon="7.953437">
        <ele>298.990804</ele>
        <time>2021-11-19T07:02:35.588Z</time>
      </trkpt>
      <trkpt lat="47.547994" lon="7.953584">
        <ele>298.954533</ele>
        <time>2021-11-19T07:02:37.715Z</time>
      </trkpt>
      <trkpt lat="47.548115" lon="7.953729">
        <ele>298.918813</ele>
        <time>2021-11-19T07:02:39.838Z</time>
      </trkpt>
      <trkpt lat="47.548251" lon="7.953895">
        <ele>298.878369</ele>
        <time>2021-11-19T07:02:42.219Z</time>
      </trkpt>
      <trkpt lat="47.548342" lon="7.954009">
        <ele>298.851017</ele>
        <time>2021-11-19T07:02:43.859Z</time>
      </trkpt>
      <trkpt lat="47.548542" lon="7.954269">
        <ele>298.789947</ele>
        <time>2021-11-19T07:02:47.589Z</time>
      </trkpt>
      <trkpt lat="47.548833" lon="7.954652">
        <ele>298.700608</ele>
        <time>2021-11-19T07:02:53.131Z</time>
      </trkpt>
      <trkpt lat="47.549042" lon="7.954942">
        <ele>298.634886</ele>
        <time>2021-11-19T07:02:57.273Z</time>
      </trkpt>
      <trkpt lat="47.549157" lon="7.955099">
        <ele>298.600424</ele>
        <time>2021-11-19T07:02:59.558Z</time>
      </trkpt>
      <trkpt lat="47.549444" lon="7.955496">
        <ele>298.546095</ele>
        <time>2021-11-19T07:03:05.405Z</time>
      </trkpt>
      <trkpt lat="47.550205" lon="7.956552">
        <ele>298.401826</ele>
        <time>2021-11-19T07:03:20.037Z</time>
      </trkpt>
      <trkpt lat="47.550380" lon="7.956806">
        <ele>298.367929</ele>
        <time>2021-11-19T07:03:23.599Z</time>
      </trkpt>
      <trkpt lat="47.550445" lon="7.956918">
        <ele>298.354134</ele>
        <time>2021-11-19T07:03:25.083Z</time>
      </trkpt>
      <trkpt lat="47.550549" lon="7.957126">
        <ele>298.356327</ele>
        <time>2021-11-19T07:03:27.604Z</time>
      </trkpt>
      <trkpt lat="47.550613" lon="7.957254">
        <ele>298.357958</ele>
        <time>2021-11-19T07:03:29.231Z</time>
      </trkpt>
      <trkpt lat="47.550735" lon="7.957541">
        <ele>298.361430</ele>
        <time>2021-11-19T07:03:32.687Z</time>
      </trkpt>
      <trkpt lat="47.550745" lon="7.957569">
        <ele>298.361755</ele>
        <time>2021-11-19T07:03:32.935Z</time>
      </trkpt>
      <trkpt lat="47.550869" lon="7.957700">
        <ele>298.364065</ele>
        <time>2021-11-19T07:03:35.209Z</time>
      </trkpt>
      <trkpt lat="47.551300" lon="7.958844">
        <ele>298.377478</ele>
        <time>2021-11-19T07:03:48.061Z</time>
      </trkpt>
      <trkpt lat="47.551677" lon="7.960100">
        <ele>298.672190</ele>
        <time>2021-11-19T07:04:02.799Z</time>
      </trkpt>
      <trkpt lat="47.551865" lon="7.960528">
        <ele>298.816541</ele>
        <time>2021-11-19T07:04:08.649Z</time>
      </trkpt>
      <trkpt lat="47.551882" lon="7.960631">
        <ele>298.846515</ele>
        <time>2021-11-19T07:04:09.865Z</time>
      </trkpt>
      <trkpt lat="47.551894" lon="7.960729">
        <ele>298.874669</ele>
        <time>2021-11-19T07:04:11.269Z</time>
      </trkpt>
      <trkpt lat="47.551859" lon="7.961133">
        <ele>298.989807</ele>
        <time>2021-11-19T07:04:15.745Z</time>
      </trkpt>
      <trkpt lat="47.551906" lon="7.962453">
        <ele>299.284232</ele>
        <time>2021-11-19T07:04:31.139Z</time>
      </trkpt>
      <trkpt lat="47.551918" lon="7.963725">
        <ele>299.519494</ele>
        <time>2021-11-19T07:04:44.800Z</time>
      </trkpt>
      <trkpt lat="47.551902" lon="7.964650">
        <ele>299.546153</ele>
        <time>2021-11-19T07:04:53.913Z</time>
      </trkpt>
      <trkpt lat="47.551767" lon="7.967910">
        <ele>298.953496</ele>
        <time>2021-11-19T07:05:23.575Z</time>
      </trkpt>
      <trkpt lat="47.551839" lon="7.968208">
        <ele>298.938656</ele>
        <time>2021-11-19T07:05:26.666Z</time>
      </trkpt>
      <trkpt lat="47.551847" lon="7.968315">
        <ele>298.933609</ele>
        <time>2021-11-19T07:05:27.642Z</time>
      </trkpt>
      <trkpt lat="47.551825" lon="7.968445">
        <ele>298.927325</ele>
        <time>2021-11-19T07:05:28.874Z</time>
      </trkpt>
      <trkpt lat="47.551750" lon="7.968659">
        <ele>298.916020</ele>
        <time>2021-11-19T07:05:31.477Z</time>
      </trkpt>
      <trkpt lat="47.551734" lon="7.970034">
        <ele>299.035612</ele>
        <time>2021-11-19T07:05:45.873Z</time>
      </trkpt>
      <trkpt lat="47.551725" lon="7.970823">
        <ele>299.318697</ele>
        <time>2021-11-19T07:05:54.992Z</time>
      </trkpt>
      <trkpt lat="47.551755" lon="7.972603">
        <ele>299.837252</ele>
        <time>2021-11-19T07:06:16.467Z</time>
      </trkpt>
      <trkpt lat="47.551793" lon="7.974325">
        <ele>299.877677</ele>
        <time>2021-11-19T07:06:33.638Z</time>
      </trkpt>
      <trkpt lat="47.551829" lon="7.976305">
        <ele>299.985798</ele>
        <time>2021-11-19T07:06:51.596Z</time>
      </trkpt>
      <trkpt lat="47.551901" lon="7.979190">
        <ele>300.469133</ele>
        <time>2021-11-19T07:07:25.711Z</time>
      </trkpt>
      <trkpt lat="47.551923" lon="7.979308">
        <ele>300.499198</ele>
        <time>2021-11-19T07:07:27.401Z</time>
      </trkpt>
      <trkpt lat="47.551933" lon="7.979363">
        <ele>300.513186</ele>
        <time>2021-11-19T07:07:28.614Z</time>
      </trkpt>
      <trkpt lat="47.551873" lon="7.980135">
        <ele>300.704031</ele>
        <time>2021-11-19T07:07:35.895Z</time>
      </trkpt>
      <trkpt lat="47.551865" lon="7.980584">
        <ele>300.187440</ele>
        <time>2021-11-19T07:07:40.143Z</time>
      </trkpt>
      <trkpt lat="47.551861" lon="7.981113">
        <ele>299.395782</ele>
        <time>2021-11-19T07:07:44.542Z</time>
      </trkpt>
      <trkpt lat="47.551892" lon="7.983447">
        <ele>295.969018</ele>
        <time>2021-11-19T07:08:00.549Z</time>
      </trkpt>
      <trkpt lat="47.551911" lon="7.983632">
        <ele>295.711299</ele>
        <time>2021-11-19T07:08:01.847Z</time>
      </trkpt>
      <trkpt lat="47.552005" lon="7.983849">
        <ele>295.356184</ele>
        <time>2021-11-19T07:08:03.706Z</time>
      </trkpt>
      <trkpt lat="47.552007" lon="7.983931">
        <ele>295.243178</ele>
        <time>2021-11-19T07:08:04.218Z</time>
      </trkpt>
      <trkpt lat="47.551993" lon="7.984014">
        <ele>295.125354</ele>
        <time>2021-11-19T07:08:04.808Z</time>
      </trkpt>
      <trkpt lat="47.551934" lon="7.984260">
        <ele>294.765803</ele>
        <time>2021-11-19T07:08:06.857Z</time>
      </trkpt>
      <trkpt lat="47.551939" lon="7.985151">
        <ele>293.538659</ele>
        <time>2021-11-19T07:08:13.494Z</time>
      </trkpt>
      <trkpt lat="47.551898" lon="7.985654">
        <ele>293.291895</ele>
        <time>2021-11-19T07:08:17.803Z</time>
      </trkpt>
      <trkpt lat="47.551915" lon="7.986209">
        <ele>294.047474</ele>
        <time>2021-11-19T07:08:23.420Z</time>
      </trkpt>
      <trkpt lat="47.551917" lon="7.986288">
        <ele>294.154990</ele>
        <time>2021-11-19T07:08:24.743Z</time>
      </trkpt>
      <trkpt lat="47.551971" lon="7.986555">
        <ele>294.534064</ele>
        <time>2021-11-19T07:08:29.004Z</time>
      </trkpt>
      <trkpt lat="47.552152" lon="7.986883">
        <ele>295.110268</ele>
        <time>2021-11-19T07:08:36.230Z</time>
      </trkpt>
      <trkpt lat="47.552224" lon="7.986975">
        <ele>295.301851</ele>
        <time>2021-11-19T07:08:38.797Z</time>
      </trkpt>
      <trkpt lat="47.552436" lon="7.987273">
        <ele>295.890700</ele>
        <time>2021-11-19T07:08:46.696Z</time>
      </trkpt>
      <trkpt lat="47.552504" lon="7.987369">
        <ele>296.079964</ele>
        <time>2021-11-19T07:08:49.331Z</time>
      </trkpt>
      <trkpt lat="47.552713" lon="7.987638">
        <ele>296.637817</ele>
        <time>2021-11-19T07:08:57.798Z</time>
      </trkpt>
      <trkpt lat="47.552867" lon="7.987810">
        <ele>297.294072</ele>
        <time>2021-11-19T07:09:04.286Z</time>
      </trkpt>
      <trkpt lat="47.553232" lon="7.988247">
        <ele>298.996845</ele>
        <time>2021-11-19T07:09:18.915Z</time>
      </trkpt>
      <trkpt lat="47.553343" lon="7.988401">
        <ele>299.548622</ele>
        <time>2021-11-19T07:09:23.751Z</time>
      </trkpt>
      <trkpt lat="47.553410" lon="7.988607">
        <ele>300.108628</ele>
        <time>2021-11-19T07:09:28.348Z</time>
      </trkpt>
      <trkpt lat="47.553424" lon="7.988762">
        <ele>300.491597</ele>
        <time>2021-11-19T07:09:31.535Z</time>
      </trkpt>
      <trkpt lat="47.553352" lon="7.989142">
        <ele>301.458172</ele>
        <time>2021-11-19T07:09:39.379Z</time>
      </trkpt>
      <trkpt lat="47.553253" lon="7.989578">
        <ele>302.584721</ele>
        <time>2021-11-19T07:09:48.332Z</time>
      </trkpt>
      <trkpt lat="47.553214" lon="7.989758">
        <ele>303.047690</ele>
        <time>2021-11-19T07:09:51.915Z</time>
      </trkpt>
      <trkpt lat="47.553163" lon="7.990004">
        <ele>303.313610</ele>
        <time>2021-11-19T07:09:56.614Z</time>
      </trkpt>
      <trkpt lat="47.553146" lon="7.990113">
        <ele>303.370239</ele>
        <time>2021-11-19T07:09:58.542Z</time>
      </trkpt>
      <trkpt lat="47.553126" lon="7.990240">
        <ele>303.436253</ele>
        <time>2021-11-19T07:10:00.699Z</time>
      </trkpt>
      <trkpt lat="47.553050" lon="7.990744">
        <ele>303.697664</ele>
        <time>2021-11-19T07:10:08.349Z</time>
      </trkpt>
      <trkpt lat="47.553091" lon="7.991915">
        <ele>304.291213</ele>
        <time>2021-11-19T07:10:19.158Z</time>
      </trkpt>
      <trkpt lat="47.553107" lon="7.992226">
        <ele>304.449096</ele>
        <time>2021-11-19T07:10:21.626Z</time>
      </trkpt>
      <trkpt lat="47.553130" lon="7.993014">
        <ele>304.995593</ele>
        <time>2021-11-19T07:10:31.200Z</time>
      </trkpt>
      <trkpt lat="47.553137" lon="7.993190">
        <ele>305.131661</ele>
        <time>2021-11-19T07:10:32.319Z</time>
      </trkpt>
      <trkpt lat="47.553156" lon="7.993696">
        <ele>305.522783</ele>
        <time>2021-11-19T07:10:37.952Z</time>
      </trkpt>
      <trkpt lat="47.553164" lon="7.993925">
        <ele>305.699756</ele>
        <time>2021-11-19T07:10:44.419Z</time>
      </trkpt>
      <trkpt lat="47.553246" lon="7.995617">
        <ele>307.296529</ele>
        <time>2021-11-19T07:11:07.205Z</time>
      </trkpt>
      <trkpt lat="47.553268" lon="7.996252">
        <ele>308.154306</ele>
        <time>2021-11-19T07:11:20.549Z</time>
      </trkpt>
      <trkpt lat="47.553279" lon="7.996528">
        <ele>308.527294</ele>
        <time>2021-11-19T07:11:24.702Z</time>
      </trkpt>
      <trkpt lat="47.553287" lon="7.997190">
        <ele>309.420511</ele>
        <time>2021-11-19T07:11:34.453Z</time>
      </trkpt>
      <trkpt lat="47.553287" lon="7.998380">
        <ele>310.396509</ele>
        <time>2021-11-19T07:11:51.036Z</time>
      </trkpt>
      <trkpt lat="47.553278" lon="7.999508">
        <ele>310.730148</ele>
        <time>2021-11-19T07:12:04.386Z</time>
      </trkpt>
      <trkpt lat="47.553275" lon="7.999860">
        <ele>310.834264</ele>
        <time>2021-11-19T07:12:07.885Z</time>
      </trkpt>
      <trkpt lat="47.553273" lon="8.001687">
        <ele>310.293695</ele>
        <time>2021-11-19T07:12:23.429Z</time>
      </trkpt>
      <trkpt lat="47.553271" lon="8.002109">
        <ele>310.050521</ele>
        <time>2021-11-19T07:12:26.795Z</time>
      </trkpt>
      <trkpt lat="47.553270" lon="8.002465">
        <ele>309.845382</ele>
        <time>2021-11-19T07:12:29.573Z</time>
      </trkpt>
      <trkpt lat="47.553266" lon="8.003502">
        <ele>309.543710</ele>
        <time>2021-11-19T07:12:38.347Z</time>
      </trkpt>
      <trkpt lat="47.553256" lon="8.004837">
        <ele>309.788339</ele>
        <time>2021-11-19T07:12:52.578Z</time>
      </trkpt>
      <trkpt lat="47.553251" lon="8.005657">
        <ele>309.938596</ele>
        <time>2021-11-19T07:13:02.667Z</time>
      </trkpt>
      <trkpt lat="47.553220" lon="8.006182">
        <ele>310.102746</ele>
        <time>2021-11-19T07:13:09.615Z</time>
      </trkpt>
      <trkpt lat="47.553211" lon="8.006270">
        <ele>310.133845</ele>
        <time>2021-11-19T07:13:11.417Z</time>
      </trkpt>
      <trkpt lat="47.553173" lon="8.006642">
        <ele>310.265309</ele>
        <time>2021-11-19T07:13:15.967Z</time>
      </trkpt>
      <trkpt lat="47.552935" lon="8.007851">
        <ele>310.705359</ele>
        <time>2021-11-19T07:13:31.074Z</time>
      </trkpt>
      <trkpt lat="47.552640" lon="8.008615">
        <ele>310.643666</ele>
        <time>2021-11-19T07:13:39.217Z</time>
      </trkpt>
      <trkpt lat="47.552604" lon="8.008677">
        <ele>310.585083</ele>
        <time>2021-11-19T07:13:39.768Z</time>
      </trkpt>
      <trkpt lat="47.551902" lon="8.009884">
        <ele>309.443789</ele>
        <time>2021-11-19T07:13:52.128Z</time>
      </trkpt>
      <trkpt lat="47.551275" lon="8.010934">
        <ele>309.129165</ele>
        <time>2021-11-19T07:14:04.083Z</time>
      </trkpt>
      <trkpt lat="47.551187" lon="8.011080">
        <ele>309.166896</ele>
        <time>2021-11-19T07:14:06.217Z</time>
      </trkpt>
      <trkpt lat="47.550764" lon="8.011985">
        <ele>309.379087</ele>
        <time>2021-11-19T07:14:18.306Z</time>
      </trkpt>
      <trkpt lat="47.550565" lon="8.012461">
        <ele>309.487016</ele>
        <time>2021-11-19T07:14:25.725Z</time>
      </trkpt>
      <trkpt lat="47.550001" lon="8.014034">
        <ele>311.189300</ele>
        <time>2021-11-19T07:14:51.564Z</time>
      </trkpt>
      <trkpt lat="47.549871" lon="8.014427">
        <ele>311.617190</ele>
        <time>2021-11-19T07:14:57.751Z</time>
      </trkpt>
      <trkpt lat="47.549795" lon="8.014667">
        <ele>311.876374</ele>
        <time>2021-11-19T07:15:01.252Z</time>
      </trkpt>
      <trkpt lat="47.549589" lon="8.015316">
        <ele>312.514824</ele>
        <time>2021-11-19T07:15:10.630Z</time>
      </trkpt>
      <trkpt lat="47.549431" lon="8.015998">
        <ele>313.126804</ele>
        <time>2021-11-19T07:15:20.544Z</time>
      </trkpt>
      <trkpt lat="47.549281" lon="8.017304">
        <ele>314.251179</ele>
        <time>2021-11-19T07:15:37.767Z</time>
      </trkpt>
      <trkpt lat="47.549274" lon="8.017401">
        <ele>314.333975</ele>
        <time>2021-11-19T07:15:39.060Z</time>
      </trkpt>
      <trkpt lat="47.549236" lon="8.017402">
        <ele>314.384649</ele>
        <time>2021-11-19T07:15:39.883Z</time>
      </trkpt>
      <trkpt lat="47.549145" lon="8.017497">
        <ele>314.546992</ele>
        <time>2021-11-19T07:15:42.141Z</time>
      </trkpt>
      <trkpt lat="47.549133" lon="8.017550">
        <ele>314.602016</ele>
        <time>2021-11-19T07:15:43.130Z</time>
      </trkpt>
      <trkpt lat="47.549131" lon="8.017604">
        <ele>314.655249</ele>
        <time>2021-11-19T07:15:43.646Z</time>
      </trkpt>
      <trkpt lat="47.549220" lon="8.017761">
        <ele>314.857057</ele>
        <time>2021-11-19T07:15:46.224Z</time>
      </trkpt>
      <trkpt lat="47.549256" lon="8.017769">
        <ele>314.910144</ele>
        <time>2021-11-19T07:15:47.027Z</time>
      </trkpt>
      <trkpt lat="47.549261" lon="8.017878">
        <ele>315.017680</ele>
        <time>2021-11-19T07:15:48.668Z</time>
      </trkpt>
      <trkpt lat="47.549208" lon="8.019997">
        <ele>317.064357</ele>
        <time>2021-11-19T07:16:19.222Z</time>
      </trkpt>
      <trkpt lat="47.549186" lon="8.021006">
        <ele>317.717488</ele>
        <time>2021-11-19T07:16:32.285Z</time>
      </trkpt>
      <trkpt lat="47.549191" lon="8.021436">
        <ele>317.995726</ele>
        <time>2021-11-19T07:16:37.666Z</time>
      </trkpt>
      <trkpt lat="47.549201" lon="8.022146">
        <ele>318.455173</ele>
        <time>2021-11-19T07:16:46.468Z</time>
      </trkpt>
      <trkpt lat="47.549268" lon="8.023385">
        <ele>318.747267</ele>
        <time>2021-11-19T07:17:00.420Z</time>
      </trkpt>
      <trkpt lat="47.549322" lon="8.024323">
        <ele>318.787792</ele>
        <time>2021-11-19T07:17:09.804Z</time>
      </trkpt>
      <trkpt lat="47.549436" lon="8.026046">
        <ele>318.501035</ele>
        <time>2021-11-19T07:17:26.025Z</time>
      </trkpt>
      <trkpt lat="47.549454" lon="8.027138">
        <ele>318.086889</ele>
        <time>2021-11-19T07:17:35.311Z</time>
      </trkpt>
      <trkpt lat="47.549445" lon="8.027599">
        <ele>317.912032</ele>
        <time>2021-11-19T07:17:39.271Z</time>
      </trkpt>
      <trkpt lat="47.549431" lon="8.028306">
        <ele>317.667480</ele>
        <time>2021-11-19T07:17:45.503Z</time>
      </trkpt>
      <trkpt lat="47.549418" lon="8.028906">
        <ele>317.471261</ele>
        <time>2021-11-19T07:17:50.920Z</time>
      </trkpt>
      <trkpt lat="47.549380" lon="8.030702">
        <ele>316.941455</ele>
        <time>2021-11-19T07:18:06.806Z</time>
      </trkpt>
      <trkpt lat="47.549378" lon="8.030790">
        <ele>316.940193</ele>
        <time>2021-11-19T07:18:07.735Z</time>
      </trkpt>
      <trkpt lat="47.549372" lon="8.031883">
        <ele>316.924517</ele>
        <time>2021-11-19T07:18:18.973Z</time>
      </trkpt>
      <trkpt lat="47.549368" lon="8.032544">
        <ele>316.915037</ele>
        <time>2021-11-19T07:18:25.223Z</time>
      </trkpt>
      <trkpt lat="47.549363" lon="8.032869">
        <ele>316.910375</ele>
        <time>2021-11-19T07:18:29.584Z</time>
      </trkpt>
      <trkpt lat="47.549374" lon="8.033423">
        <ele>316.854407</ele>
        <time>2021-11-19T07:18:35.590Z</time>
      </trkpt>
      <trkpt lat="47.549386" lon="8.033799">
        <ele>316.773905</ele>
        <time>2021-11-19T07:18:38.811Z</time>
      </trkpt>
      <trkpt lat="47.549394" lon="8.034003">
        <ele>316.730203</ele>
        <time>2021-11-19T07:18:41.901Z</time>
      </trkpt>
      <trkpt lat="47.549395" lon="8.034029">
        <ele>316.724634</ele>
        <time>2021-11-19T07:18:42.046Z</time>
      </trkpt>
      <trkpt lat="47.549442" lon="8.034584">
        <ele>316.605010</ele>
        <time>2021-11-19T07:18:47.251Z</time>
      </trkpt>
      <trkpt lat="47.549494" lon="8.034935">
        <ele>316.528157</ele>
        <time>2021-11-19T07:18:51.058Z</time>
      </trkpt>
      <trkpt lat="47.549554" lon="8.035288">
        <ele>316.450307</ele>
        <time>2021-11-19T07:18:54.136Z</time>
      </trkpt>
      <trkpt lat="47.549632" lon="8.035633">
        <ele>316.372496</ele>
        <time>2021-11-19T07:18:57.289Z</time>
      </trkpt>
      <trkpt lat="47.549699" lon="8.035900">
        <ele>316.272721</ele>
        <time>2021-11-19T07:18:59.785Z</time>
      </trkpt>
      <trkpt lat="47.549753" lon="8.036077">
        <ele>316.165014</ele>
        <time>2021-11-19T07:19:01.459Z</time>
      </trkpt>
      <trkpt lat="47.549832" lon="8.036349">
        <ele>316.000820</ele>
        <time>2021-11-19T07:19:03.899Z</time>
      </trkpt>
      <trkpt lat="47.550111" lon="8.037123">
        <ele>315.514271</ele>
        <time>2021-11-19T07:19:11.090Z</time>
      </trkpt>
      <trkpt lat="47.550424" lon="8.037956">
        <ele>314.985628</ele>
        <time>2021-11-19T07:19:18.859Z</time>
      </trkpt>
      <trkpt lat="47.550515" lon="8.038174">
        <ele>314.870378</ele>
        <time>2021-11-19T07:19:21.107Z</time>
      </trkpt>
      <trkpt lat="47.551001" lon="8.039426">
        <ele>315.521848</ele>
        <time>2021-11-19T07:19:36.405Z</time>
      </trkpt>
      <trkpt lat="47.551167" lon="8.039905">
        <ele>315.764723</ele>
        <time>2021-11-19T07:19:43.451Z</time>
      </trkpt>
      <trkpt lat="47.551627" lon="8.041127">
        <ele>317.121306</ele>
        <time>2021-11-19T07:20:03.997Z</time>
      </trkpt>
      <trkpt lat="47.552844" lon="8.044355">
        <ele>321.967899</ele>
        <time>2021-11-19T07:21:03.948Z</time>
      </trkpt>
      <trkpt lat="47.553619" lon="8.046372">
        <ele>322.889568</ele>
        <time>2021-11-19T07:21:31.786Z</time>
      </trkpt>
      <trkpt lat="47.553996" lon="8.047557">
        <ele>322.678429</ele>
        <time>2021-11-19T07:21:42.695Z</time>
      </trkpt>
      <trkpt lat="47.554309" lon="8.048719">
        <ele>321.100609</ele>
        <time>2021-11-19T07:21:51.973Z</time>
      </trkpt>
      <trkpt lat="47.554412" lon="8.049127">
        <ele>320.551257</ele>
        <time>2021-11-19T07:21:55.140Z</time>
      </trkpt>
      <trkpt lat="47.554715" lon="8.050527">
        <ele>318.938555</ele>
        <time>2021-11-19T07:22:06.046Z</time>
      </trkpt>
      <trkpt lat="47.554988" lon="8.051475">
        <ele>318.075897</ele>
        <time>2021-11-19T07:22:13.971Z</time>
      </trkpt>
      <trkpt lat="47.555259" lon="8.052135">
        <ele>317.429296</ele>
        <time>2021-11-19T07:22:20.745Z</time>
      </trkpt>
      <trkpt lat="47.555603" lon="8.052757">
        <ele>317.146521</ele>
        <time>2021-11-19T07:22:28.235Z</time>
      </trkpt>
      <trkpt lat="47.555773" lon="8.053070">
        <ele>317.116824</ele>
        <time>2021-11-19T07:22:32.083Z</time>
      </trkpt>
      <trkpt lat="47.555890" lon="8.053286">
        <ele>317.096352</ele>
        <time>2021-11-19T07:22:34.690Z</time>
      </trkpt>
      <trkpt lat="47.556032" lon="8.053510">
        <ele>317.073636</ele>
        <time>2021-11-19T07:22:37.356Z</time>
      </trkpt>
      <trkpt lat="47.556239" lon="8.053780">
        <ele>317.043432</ele>
        <time>2021-11-19T07:22:41.306Z</time>
      </trkpt>
      <trkpt lat="47.556494" lon="8.054073">
        <ele>317.008091</ele>
        <time>2021-11-19T07:22:46.549Z</time>
      </trkpt>
      <trkpt lat="47.557019" lon="8.054678">
        <ele>316.986355</ele>
        <time>2021-11-19T07:22:57.670Z</time>
      </trkpt>
      <trkpt lat="47.557097" lon="8.054768">
        <ele>316.986151</ele>
        <time>2021-11-19T07:22:58.906Z</time>
      </trkpt>
      <trkpt lat="47.557273" lon="8.054941">
        <ele>316.985717</ele>
        <time>2021-11-19T07:23:02.231Z</time>
      </trkpt>
      <trkpt lat="47.557500" lon="8.055133">
        <ele>316.985179</ele>
        <time>2021-11-19T07:23:05.797Z</time>
      </trkpt>
      <trkpt lat="47.557710" lon="8.055283">
        <ele>316.984699</ele>
        <time>2021-11-19T07:23:08.950Z</time>
      </trkpt>
      <trkpt lat="47.557918" lon="8.055409">
        <ele>316.984237</ele>
        <time>2021-11-19T07:23:12.229Z</time>
      </trkpt>
      <trkpt lat="47.558012" lon="8.055477">
        <ele>316.984022</ele>
        <time>2021-11-19T07:23:13.604Z</time>
      </trkpt>
      <trkpt lat="47.558239" lon="8.055639">
        <ele>316.992785</ele>
        <time>2021-11-19T07:23:17.435Z</time>
      </trkpt>
      <trkpt lat="47.558447" lon="8.055831">
        <ele>317.028538</ele>
        <time>2021-11-19T07:23:21.018Z</time>
      </trkpt>
      <trkpt lat="47.558662" lon="8.056061">
        <ele>317.067226</ele>
        <time>2021-11-19T07:23:25.446Z</time>
      </trkpt>
      <trkpt lat="47.559116" lon="8.056760">
        <ele>317.162744</ele>
        <time>2021-11-19T07:23:35.554Z</time>
      </trkpt>
      <trkpt lat="47.559294" lon="8.057130">
        <ele>317.207481</ele>
        <time>2021-11-19T07:23:40.223Z</time>
      </trkpt>
      <trkpt lat="47.559447" lon="8.057490">
        <ele>317.252232</ele>
        <time>2021-11-19T07:23:44.588Z</time>
      </trkpt>
      <trkpt lat="47.559548" lon="8.057827">
        <ele>317.319847</ele>
        <time>2021-11-19T07:23:48.578Z</time>
      </trkpt>
      <trkpt lat="47.559579" lon="8.057955">
        <ele>317.344784</ele>
        <time>2021-11-19T07:23:50.022Z</time>
      </trkpt>
      <trkpt lat="47.559654" lon="8.058257">
        <ele>317.403792</ele>
        <time>2021-11-19T07:23:53.626Z</time>
      </trkpt>
      <trkpt lat="47.559725" lon="8.058554">
        <ele>317.461568</ele>
        <time>2021-11-19T07:23:57.020Z</time>
      </trkpt>
      <trkpt lat="47.559859" lon="8.059093">
        <ele>317.566896</ele>
        <time>2021-11-19T07:24:03.139Z</time>
      </trkpt>
      <trkpt lat="47.559979" lon="8.059591">
        <ele>317.663860</ele>
        <time>2021-11-19T07:24:08.727Z</time>
      </trkpt>
      <trkpt lat="47.560019" lon="8.059741">
        <ele>317.693434</ele>
        <time>2021-11-19T07:24:10.535Z</time>
      </trkpt>
      <trkpt lat="47.560040" lon="8.059827">
        <ele>317.710205</ele>
        <time>2021-11-19T07:24:11.478Z</time>
      </trkpt>
      <trkpt lat="47.560069" lon="8.059943">
        <ele>317.732888</ele>
        <time>2021-11-19T07:24:12.723Z</time>
      </trkpt>
      <trkpt lat="47.560130" lon="8.060196">
        <ele>317.854563</ele>
        <time>2021-11-19T07:24:15.768Z</time>
      </trkpt>
      <trkpt lat="47.560262" lon="8.060729">
        <ele>318.117837</ele>
        <time>2021-11-19T07:24:22.025Z</time>
      </trkpt>
      <trkpt lat="47.560293" lon="8.060828">
        <ele>318.168446</ele>
        <time>2021-11-19T07:24:23.306Z</time>
      </trkpt>
      <trkpt lat="47.560335" lon="8.060984">
        <ele>318.246329</ele>
        <time>2021-11-19T07:24:25.339Z</time>
      </trkpt>
      <trkpt lat="47.560570" lon="8.061926">
        <ele>318.712031</ele>
        <time>2021-11-19T07:24:38.010Z</time>
      </trkpt>
      <trkpt lat="47.560765" lon="8.062729">
        <ele>319.119583</ele>
        <time>2021-11-19T07:24:48.181Z</time>
      </trkpt>
      <trkpt lat="47.560673" lon="8.062786">
        <ele>319.194017</ele>
        <time>2021-11-19T07:24:50.552Z</time>
      </trkpt>
      <trkpt lat="47.560580" lon="8.062890">
        <ele>319.280985</ele>
        <time>2021-11-19T07:24:53.290Z</time>
      </trkpt>
      <trkpt lat="47.560545" lon="8.062928">
        <ele>319.313373</ele>
        <time>2021-11-19T07:24:54.079Z</time>
      </trkpt>
      <trkpt lat="47.560443" lon="8.063042">
        <ele>319.408738</ele>
        <time>2021-11-19T07:24:56.502Z</time>
      </trkpt>
      <trkpt lat="47.560335" lon="8.063169">
        <ele>319.511652</ele>
        <time>2021-11-19T07:24:59.098Z</time>
      </trkpt>
      <trkpt lat="47.560392" lon="8.063300">
        <ele>319.590167</ele>
        <time>2021-11-19T07:25:00.945Z</time>
      </trkpt>
      <trkpt lat="47.560719" lon="8.063873">
        <ele>319.968170</ele>
        <time>2021-11-19T07:25:10.258Z</time>
      </trkpt>
      <trkpt lat="47.560806" lon="8.064037">
        <ele>320.073249</ele>
        <time>2021-11-19T07:25:12.760Z</time>
      </trkpt>
      <trkpt lat="47.560887" lon="8.064271">
        <ele>320.205720</ele>
        <time>2021-11-19T07:25:15.890Z</time>
      </trkpt>
      <trkpt lat="47.561017" lon="8.064820">
        <ele>320.328537</ele>
        <time>2021-11-19T07:25:22.504Z</time>
      </trkpt>
      <trkpt lat="47.561108" lon="8.065242">
        <ele>320.346816</ele>
        <time>2021-11-19T07:25:26.747Z</time>
      </trkpt>
      <trkpt lat="47.561253" lon="8.066385">
        <ele>320.394802</ele>
        <time>2021-11-19T07:25:37.740Z</time>
      </trkpt>
      <trkpt lat="47.561276" lon="8.067022">
        <ele>320.421123</ele>
        <time>2021-11-19T07:25:43.992Z</time>
      </trkpt>
      <trkpt lat="47.561265" lon="8.067435">
        <ele>320.724505</ele>
        <time>2021-11-19T07:25:48.374Z</time>
      </trkpt>
      <trkpt lat="47.561229" lon="8.067903">
        <ele>321.118581</ele>
        <time>2021-11-19T07:25:54.118Z</time>
      </trkpt>
      <trkpt lat="47.561187" lon="8.068256">
        <ele>321.418465</ele>
        <time>2021-11-19T07:25:58.524Z</time>
      </trkpt>
      <trkpt lat="47.561130" lon="8.068650">
        <ele>321.755586</ele>
        <time>2021-11-19T07:26:03.768Z</time>
      </trkpt>
      <trkpt lat="47.560998" lon="8.069237">
        <ele>322.273237</ele>
        <time>2021-11-19T07:26:12.915Z</time>
      </trkpt>
      <trkpt lat="47.560904" lon="8.069780">
        <ele>322.817424</ele>
        <time>2021-11-19T07:26:21.874Z</time>
      </trkpt>
      <trkpt lat="47.560864" lon="8.070015">
        <ele>323.191597</ele>
        <time>2021-11-19T07:26:25.906Z</time>
      </trkpt>
      <trkpt lat="47.560739" lon="8.070551">
        <ele>324.067136</ele>
        <time>2021-11-19T07:26:35.520Z</time>
      </trkpt>
      <trkpt lat="47.560584" lon="8.070919">
        <ele>324.736872</ele>
        <time>2021-11-19T07:26:42.834Z</time>
      </trkpt>
      <trkpt lat="47.560553" lon="8.071099">
        <ele>325.023679</ele>
        <time>2021-11-19T07:26:46.025Z</time>
      </trkpt>
      <trkpt lat="47.560524" lon="8.071179">
        <ele>325.163882</ele>
        <time>2021-11-19T07:26:47.785Z</time>
      </trkpt>
      <trkpt lat="47.560318" lon="8.072316">
        <ele>326.915140</ele>
        <time>2021-11-19T07:27:06.686Z</time>
      </trkpt>
      <trkpt lat="47.559811" lon="8.074398">
        <ele>329.269053</ele>
        <time>2021-11-19T07:27:37.526Z</time>
      </trkpt>
      <trkpt lat="47.559426" lon="8.075372">
        <ele>330.469327</ele>
        <time>2021-11-19T07:27:52.976Z</time>
      </trkpt>
      <trkpt lat="47.559046" lon="8.076086">
        <ele>331.436197</ele>
        <time>2021-11-19T07:28:06.001Z</time>
      </trkpt>
      <trkpt lat="47.558613" lon="8.076826">
        <ele>332.462002</ele>
        <time>2021-11-19T07:28:20.584Z</time>
      </trkpt>
      <trkpt lat="47.557793" lon="8.078299">
        <ele>333.713434</ele>
        <time>2021-11-19T07:28:48.341Z</time>
      </trkpt>
      <trkpt lat="47.557256" lon="8.079416">
        <ele>333.015569</ele>
        <time>2021-11-19T07:29:00.189Z</time>
      </trkpt>
      <trkpt lat="47.557099" lon="8.079786">
        <ele>332.234891</ele>
        <time>2021-11-19T07:29:03.428Z</time>
      </trkpt>
      <trkpt lat="47.556853" lon="8.080477">
        <ele>330.839413</ele>
        <time>2021-11-19T07:29:08.813Z</time>
      </trkpt>
      <trkpt lat="47.556470" lon="8.081563">
        <ele>327.946133</ele>
        <time>2021-11-19T07:29:16.828Z</time>
      </trkpt>
      <trkpt lat="47.556083" lon="8.083354">
        <ele>321.522824</ele>
        <time>2021-11-19T07:29:28.632Z</time>
      </trkpt>
      <trkpt lat="47.555956" lon="8.084115">
        <ele>319.001133</ele>
        <time>2021-11-19T07:29:33.635Z</time>
      </trkpt>
      <trkpt lat="47.555899" lon="8.084472">
        <ele>317.880577</ele>
        <time>2021-11-19T07:29:35.955Z</time>
      </trkpt>
      <trkpt lat="47.555764" lon="8.085769">
        <ele>313.872049</ele>
        <time>2021-11-19T07:29:44.420Z</time>
      </trkpt>
      <trkpt lat="47.555733" lon="8.086819">
        <ele>311.858761</ele>
        <time>2021-11-19T07:29:51.348Z</time>
      </trkpt>
      <trkpt lat="47.555737" lon="8.087083">
        <ele>311.688515</ele>
        <time>2021-11-19T07:29:53.146Z</time>
      </trkpt>
      <trkpt lat="47.555780" lon="8.087557">
        <ele>311.380176</ele>
        <time>2021-11-19T07:29:56.636Z</time>
      </trkpt>
      <trkpt lat="47.555809" lon="8.087783">
        <ele>311.231862</ele>
        <time>2021-11-19T07:29:59.071Z</time>
      </trkpt>
      <trkpt lat="47.555829" lon="8.087941">
        <ele>311.128222</ele>
        <time>2021-11-19T07:30:00.668Z</time>
      </trkpt>
      <trkpt lat="47.555887" lon="8.088299">
        <ele>310.890860</ele>
        <time>2021-11-19T07:30:04.232Z</time>
      </trkpt>
      <trkpt lat="47.555939" lon="8.088552">
        <ele>310.720353</ele>
        <time>2021-11-19T07:30:07.028Z</time>
      </trkpt>
      <trkpt lat="47.555991" lon="8.088778">
        <ele>310.566414</ele>
        <time>2021-11-19T07:30:10.463Z</time>
      </trkpt>
      <trkpt lat="47.555997" lon="8.088801">
        <ele>310.550516</ele>
        <time>2021-11-19T07:30:11.056Z</time>
      </trkpt>
      <trkpt lat="47.556065" lon="8.089084">
        <ele>310.919343</ele>
        <time>2021-11-19T07:30:15.348Z</time>
      </trkpt>
      <trkpt lat="47.556111" lon="8.089266">
        <ele>311.472307</ele>
        <time>2021-11-19T07:30:19.156Z</time>
      </trkpt>
      <trkpt lat="47.556151" lon="8.089459">
        <ele>312.046754</ele>
        <time>2021-11-19T07:30:23.799Z</time>
      </trkpt>
      <trkpt lat="47.556137" lon="8.089730">
        <ele>312.820076</ele>
        <time>2021-11-19T07:30:29.017Z</time>
      </trkpt>
      <trkpt lat="47.556110" lon="8.089809">
        <ele>313.072033</ele>
        <time>2021-11-19T07:30:31.289Z</time>
      </trkpt>
      <trkpt lat="47.556193" lon="8.089926">
        <ele>313.555014</ele>
        <time>2021-11-19T07:30:35.266Z</time>
      </trkpt>
      <trkpt lat="47.556259" lon="8.090058">
        <ele>314.022436</ele>
        <time>2021-11-19T07:30:38.309Z</time>
      </trkpt>
      <trkpt lat="47.556527" lon="8.090721">
        <ele>316.221338</ele>
        <time>2021-11-19T07:30:56.565Z</time>
      </trkpt>
      <trkpt lat="47.556692" lon="8.091113">
        <ele>317.535830</ele>
        <time>2021-11-19T07:31:08.348Z</time>
      </trkpt>
      <trkpt lat="47.556850" lon="8.091457">
        <ele>318.747092</ele>
        <time>2021-11-19T07:31:18.857Z</time>
      </trkpt>
      <trkpt lat="47.557677" lon="8.092776">
        <ele>324.076747</ele>
        <time>2021-11-19T07:31:58.910Z</time>
      </trkpt>
      <trkpt lat="47.558531" lon="8.094661">
        <ele>330.414782</ele>
        <time>2021-11-19T07:32:42.093Z</time>
      </trkpt>
      <trkpt lat="47.558776" lon="8.095210">
        <ele>332.209797</ele>
        <time>2021-11-19T07:32:56.432Z</time>
      </trkpt>
      <trkpt lat="47.558857" lon="8.095293">
        <ele>332.607784</ele>
        <time>2021-11-19T07:33:01.254Z</time>
      </trkpt>
      <trkpt lat="47.558983" lon="8.095482">
        <ele>333.376747</ele>
        <time>2021-11-19T07:33:07.990Z</time>
      </trkpt>
      <trkpt lat="47.559606" lon="8.096837">
        <ele>339.378002</ele>
        <time>2021-11-19T07:33:56.934Z</time>
      </trkpt>
      <trkpt lat="47.560171" lon="8.097877">
        <ele>343.405071</ele>
        <time>2021-11-19T07:34:34.729Z</time>
      </trkpt>
      <trkpt lat="47.560787" lon="8.098864">
        <ele>345.088235</ele>
        <time>2021-11-19T07:35:02.976Z</time>
      </trkpt>
      <trkpt lat="47.561466" lon="8.099697">
        <ele>345.621967</ele>
        <time>2021-11-19T07:35:19.266Z</time>
      </trkpt>
      <trkpt lat="47.562207" lon="8.100413">
        <ele>343.044073</ele>
        <time>2021-11-19T07:35:31.858Z</time>
      </trkpt>
      <trkpt lat="47.563031" lon="8.100935">
        <ele>340.503934</ele>
        <time>2021-11-19T07:35:44.761Z</time>
      </trkpt>
      <trkpt lat="47.563202" lon="8.101042">
        <ele>340.025167</ele>
        <time>2021-11-19T07:35:47.348Z</time>
      </trkpt>
      <trkpt lat="47.564165" lon="8.101615">
        <ele>337.348564</ele>
        <time>2021-11-19T07:35:58.310Z</time>
      </trkpt>
      <trkpt lat="47.565727" lon="8.102512">
        <ele>333.917341</ele>
        <time>2021-11-19T07:36:17.498Z</time>
      </trkpt>
      <trkpt lat="47.566684" lon="8.102974">
        <ele>331.668270</ele>
        <time>2021-11-19T07:36:28.099Z</time>
      </trkpt>
      <trkpt lat="47.567683" lon="8.103272">
        <ele>329.074882</ele>
        <time>2021-11-19T07:36:38.719Z</time>
      </trkpt>
      <trkpt lat="47.569557" lon="8.103677">
        <ele>325.018400</ele>
        <time>2021-11-19T07:36:58.951Z</time>
      </trkpt>
      <trkpt lat="47.570159" lon="8.103813">
        <ele>325.009373</ele>
        <time>2021-11-19T07:37:06.396Z</time>
      </trkpt>
      <trkpt lat="47.570286" lon="8.103898">
        <ele>325.112982</ele>
        <time>2021-11-19T07:37:09.146Z</time>
      </trkpt>
      <trkpt lat="47.570517" lon="8.104111">
        <ele>325.315260</ele>
        <time>2021-11-19T07:37:14.615Z</time>
      </trkpt>
      <trkpt lat="47.570786" lon="8.104202">
        <ele>325.520412</ele>
        <time>2021-11-19T07:37:21.420Z</time>
      </trkpt>
      <trkpt lat="47.570863" lon="8.104203">
        <ele>325.577665</ele>
        <time>2021-11-19T07:37:22.633Z</time>
      </trkpt>
      <trkpt lat="47.571140" lon="8.104418">
        <ele>325.810152</ele>
        <time>2021-11-19T07:37:30.561Z</time>
      </trkpt>
      <trkpt lat="47.571149" lon="8.104460">
        <ele>325.832258</ele>
        <time>2021-11-19T07:37:31.139Z</time>
      </trkpt>
      <trkpt lat="47.571165" lon="8.104498">
        <ele>325.854728</ele>
        <time>2021-11-19T07:37:31.811Z</time>
      </trkpt>
      <trkpt lat="47.571182" lon="8.104674">
        <ele>325.943916</ele>
        <time>2021-11-19T07:37:34.705Z</time>
      </trkpt>
      <trkpt lat="47.571214" lon="8.104836">
        <ele>326.003595</ele>
        <time>2021-11-19T07:37:37.396Z</time>
      </trkpt>
      <trkpt lat="47.571234" lon="8.105037">
        <ele>325.909070</ele>
        <time>2021-11-19T07:37:39.137Z</time>
      </trkpt>
      <trkpt lat="47.571251" lon="8.105188">
        <ele>325.837847</ele>
        <time>2021-11-19T07:37:40.425Z</time>
      </trkpt>
      <trkpt lat="47.571298" lon="8.105561">
        <ele>325.661311</ele>
        <time>2021-11-19T07:37:44.790Z</time>
      </trkpt>
      <trkpt lat="47.571440" lon="8.106588">
        <ele>325.173579</ele>
        <time>2021-11-19T07:37:55.400Z</time>
      </trkpt>
      <trkpt lat="47.571461" lon="8.106820">
        <ele>325.064676</ele>
        <time>2021-11-19T07:37:57.193Z</time>
      </trkpt>
      <trkpt lat="47.571460" lon="8.106995">
        <ele>324.983256</ele>
        <time>2021-11-19T07:37:59.049Z</time>
      </trkpt>
      <trkpt lat="47.571458" lon="8.107087">
        <ele>324.940432</ele>
        <time>2021-11-19T07:37:59.696Z</time>
      </trkpt>
      <trkpt lat="47.571440" lon="8.107260">
        <ele>324.858994</ele>
        <time>2021-11-19T07:38:00.807Z</time>
      </trkpt>
      <trkpt lat="47.571253" lon="8.107823">
        <ele>324.158411</ele>
        <time>2021-11-19T07:38:04.967Z</time>
      </trkpt>
      <trkpt lat="47.570830" lon="8.108502">
        <ele>322.884825</ele>
        <time>2021-11-19T07:38:11.046Z</time>
      </trkpt>
      <trkpt lat="47.570582" lon="8.108889">
        <ele>322.149288</ele>
        <time>2021-11-19T07:38:14.642Z</time>
      </trkpt>
      <trkpt lat="47.570283" lon="8.109343">
        <ele>321.274983</ele>
        <time>2021-11-19T07:38:22.008Z</time>
      </trkpt>
      <trkpt lat="47.570263" lon="8.109376">
        <ele>321.213853</ele>
        <time>2021-11-19T07:38:22.838Z</time>
      </trkpt>
      <trkpt lat="47.569974" lon="8.109825">
        <ele>322.160033</ele>
        <time>2021-11-19T07:38:32.464Z</time>
      </trkpt>
      <trkpt lat="47.569787" lon="8.110094">
        <ele>322.918526</ele>
        <time>2021-11-19T07:38:38.293Z</time>
      </trkpt>
      <trkpt lat="47.569664" lon="8.110262">
        <ele>323.405370</ele>
        <time>2021-11-19T07:38:44.427Z</time>
      </trkpt>
      <trkpt lat="47.569574" lon="8.110385">
        <ele>323.761695</ele>
        <time>2021-11-19T07:38:45.904Z</time>
      </trkpt>
      <trkpt lat="47.569495" lon="8.110499">
        <ele>324.082620</ele>
        <time>2021-11-19T07:38:49.399Z</time>
      </trkpt>
      <trkpt lat="47.569423" lon="8.110628">
        <ele>324.411397</ele>
        <time>2021-11-19T07:38:54.854Z</time>
      </trkpt>
      <trkpt lat="47.569107" lon="8.111522">
        <ele>326.386889</ele>
        <time>2021-11-19T07:39:14.325Z</time>
      </trkpt>
      <trkpt lat="47.569083" lon="8.111567">
        <ele>326.486622</ele>
        <time>2021-11-19T07:39:16.765Z</time>
      </trkpt>
      <trkpt lat="47.568835" lon="8.112063">
        <ele>327.559998</ele>
        <time>2021-11-19T07:39:28.500Z</time>
      </trkpt>
      <trkpt lat="47.568167" lon="8.113323">
        <ele>330.346150</ele>
        <time>2021-11-19T07:39:55.886Z</time>
      </trkpt>
      <trkpt lat="47.567881" lon="8.113862">
        <ele>331.126765</ele>
        <time>2021-11-19T07:40:04.000Z</time>
      </trkpt>
      <trkpt lat="47.567654" lon="8.114290">
        <ele>331.385704</ele>
        <time>2021-11-19T07:40:09.978Z</time>
      </trkpt>
      <trkpt lat="47.567411" lon="8.114753">
        <ele>331.664706</ele>
        <time>2021-11-19T07:40:16.520Z</time>
      </trkpt>
      <trkpt lat="47.567157" lon="8.115310">
        <ele>331.984473</ele>
        <time>2021-11-19T07:40:24.792Z</time>
      </trkpt>
      <trkpt lat="47.567009" lon="8.116010">
        <ele>332.369464</ele>
        <time>2021-11-19T07:40:33.655Z</time>
      </trkpt>
      <trkpt lat="47.566983" lon="8.116203">
        <ele>332.499121</ele>
        <time>2021-11-19T07:40:35.217Z</time>
      </trkpt>
      <trkpt lat="47.566944" lon="8.116530">
        <ele>332.717887</ele>
        <time>2021-11-19T07:40:39.041Z</time>
      </trkpt>
      <trkpt lat="47.566811" lon="8.117556">
        <ele>333.406174</ele>
        <time>2021-11-19T07:40:51.406Z</time>
      </trkpt>
      <trkpt lat="47.566733" lon="8.118099">
        <ele>333.771919</ele>
        <time>2021-11-19T07:40:59.711Z</time>
      </trkpt>
      <trkpt lat="47.566644" lon="8.118715">
        <ele>334.214497</ele>
        <time>2021-11-19T07:41:09.449Z</time>
      </trkpt>
      <trkpt lat="47.566580" lon="8.119152">
        <ele>334.551587</ele>
        <time>2021-11-19T07:41:15.315Z</time>
      </trkpt>
      <trkpt lat="47.566566" lon="8.119245">
        <ele>334.623416</ele>
        <time>2021-11-19T07:41:16.954Z</time>
      </trkpt>
      <trkpt lat="47.566474" lon="8.119870">
        <ele>335.105637</ele>
        <time>2021-11-19T07:41:24.995Z</time>
      </trkpt>
      <trkpt lat="47.566431" lon="8.120180">
        <ele>335.344209</ele>
        <time>2021-11-19T07:41:28.517Z</time>
      </trkpt>
      <trkpt lat="47.566398" lon="8.120421">
        <ele>335.529584</ele>
        <time>2021-11-19T07:41:31.717Z</time>
      </trkpt>
      <trkpt lat="47.566366" lon="8.120637">
        <ele>335.696288</ele>
        <time>2021-11-19T07:41:34.198Z</time>
      </trkpt>
      <trkpt lat="47.566318" lon="8.120964">
        <ele>335.948555</ele>
        <time>2021-11-19T07:41:38.246Z</time>
      </trkpt>
      <trkpt lat="47.566151" lon="8.121930">
        <ele>336.807797</ele>
        <time>2021-11-19T07:41:50.977Z</time>
      </trkpt>
      <trkpt lat="47.566119" lon="8.122027">
        <ele>336.901784</ele>
        <time>2021-11-19T07:41:52.023Z</time>
      </trkpt>
      <trkpt lat="47.566102" lon="8.122133">
        <ele>336.996624</ele>
        <time>2021-11-19T07:41:53.690Z</time>
      </trkpt>
      <trkpt lat="47.565954" lon="8.122541">
        <ele>337.399845</ele>
        <time>2021-11-19T07:41:59.342Z</time>
      </trkpt>
      <trkpt lat="47.565933" lon="8.122582">
        <ele>337.444652</ele>
        <time>2021-11-19T07:42:00.120Z</time>
      </trkpt>
      <trkpt lat="47.565629" lon="8.123189">
        <ele>338.102671</ele>
        <time>2021-11-19T07:42:10.494Z</time>
      </trkpt>
      <trkpt lat="47.565434" lon="8.123568">
        <ele>338.699231</ele>
        <time>2021-11-19T07:42:18.019Z</time>
      </trkpt>
      <trkpt lat="47.565326" lon="8.123776">
        <ele>339.144083</ele>
        <time>2021-11-19T07:42:22.140Z</time>
      </trkpt>
      <trkpt lat="47.565268" lon="8.123888">
        <ele>339.383383</ele>
        <time>2021-11-19T07:42:25.397Z</time>
      </trkpt>
      <trkpt lat="47.565098" lon="8.124202">
        <ele>340.065745</ele>
        <time>2021-11-19T07:42:32.579Z</time>
      </trkpt>
      <trkpt lat="47.565033" lon="8.124341">
        <ele>340.352394</ele>
        <time>2021-11-19T07:42:36.121Z</time>
      </trkpt>
      <trkpt lat="47.564862" lon="8.124663">
        <ele>341.046936</ele>
        <time>2021-11-19T07:42:42.804Z</time>
      </trkpt>
      <trkpt lat="47.564445" lon="8.125480">
        <ele>342.783288</ele>
        <time>2021-11-19T07:42:59.604Z</time>
      </trkpt>
      <trkpt lat="47.564404" lon="8.125557">
        <ele>342.922404</ele>
        <time>2021-11-19T07:43:01.628Z</time>
      </trkpt>
      <trkpt lat="47.564281" lon="8.125780">
        <ele>343.285183</ele>
        <time>2021-11-19T07:43:06.500Z</time>
      </trkpt>
      <trkpt lat="47.564204" lon="8.125933">
        <ele>343.525593</ele>
        <time>2021-11-19T07:43:08.899Z</time>
      </trkpt>
      <trkpt lat="47.564142" lon="8.126069">
        <ele>343.732323</ele>
        <time>2021-11-19T07:43:12.149Z</time>
      </trkpt>
      <trkpt lat="47.564078" lon="8.126253">
        <ele>343.993060</ele>
        <time>2021-11-19T07:43:18.163Z</time>
      </trkpt>
      <trkpt lat="47.564050" lon="8.126343">
        <ele>344.117889</ele>
        <time>2021-11-19T07:43:20.674Z</time>
      </trkpt>
      <trkpt lat="47.564016" lon="8.126515">
        <ele>344.343638</ele>
        <time>2021-11-19T07:43:26.233Z</time>
      </trkpt>
      <trkpt lat="47.563988" lon="8.126616">
        <ele>344.481171</ele>
        <time>2021-11-19T07:43:31.022Z</time>
      </trkpt>
      <trkpt lat="47.563935" lon="8.126813">
        <ele>344.748300</ele>
        <time>2021-11-19T07:43:35.652Z</time>
      </trkpt>
      <trkpt lat="47.563932" lon="8.126822">
        <ele>344.760944</ele>
        <time>2021-11-19T07:43:36.129Z</time>
      </trkpt>
      <trkpt lat="47.563898" lon="8.126936">
        <ele>344.917934</ele>
        <time>2021-11-19T07:43:40.116Z</time>
      </trkpt>
      <trkpt lat="47.563829" lon="8.127101">
        <ele>345.162437</ele>
        <time>2021-11-19T07:43:47.332Z</time>
      </trkpt>
      <trkpt lat="47.563751" lon="8.127247">
        <ele>345.396993</ele>
        <time>2021-11-19T07:43:48.773Z</time>
      </trkpt>
      <trkpt lat="47.563627" lon="8.127420">
        <ele>345.714891</ele>
        <time>2021-11-19T07:43:52.855Z</time>
      </trkpt>
      <trkpt lat="47.563589" lon="8.127466">
        <ele>345.806480</ele>
        <time>2021-11-19T07:43:55.072Z</time>
      </trkpt>
      <trkpt lat="47.563398" lon="8.127697">
        <ele>346.248831</ele>
        <time>2021-11-19T07:43:58.466Z</time>
      </trkpt>
      <trkpt lat="47.563232" lon="8.127932">
        <ele>346.560342</ele>
        <time>2021-11-19T07:44:03.324Z</time>
      </trkpt>
      <trkpt lat="47.563096" lon="8.128178">
        <ele>346.851534</ele>
        <time>2021-11-19T07:44:07.813Z</time>
      </trkpt>
      <trkpt lat="47.562984" lon="8.128403">
        <ele>347.107544</ele>
        <time>2021-11-19T07:44:11.071Z</time>
      </trkpt>
      <trkpt lat="47.562839" lon="8.128684">
        <ele>347.431449</ele>
        <time>2021-11-19T07:44:15.874Z</time>
      </trkpt>
      <trkpt lat="47.562419" lon="8.129559">
        <ele>348.414664</ele>
        <time>2021-11-19T07:44:31.166Z</time>
      </trkpt>
      <trkpt lat="47.562200" lon="8.130042">
        <ele>349.176942</ele>
        <time>2021-11-19T07:44:39.083Z</time>
      </trkpt>
      <trkpt lat="47.562169" lon="8.130101">
        <ele>349.296840</ele>
        <time>2021-11-19T07:44:40.007Z</time>
      </trkpt>
      <trkpt lat="47.562119" lon="8.130197">
        <ele>349.491286</ele>
        <time>2021-11-19T07:44:41.537Z</time>
      </trkpt>
      <trkpt lat="47.561796" lon="8.130897">
        <ele>350.851006</ele>
        <time>2021-11-19T07:44:53.150Z</time>
      </trkpt>
      <trkpt lat="47.561185" lon="8.132211">
        <ele>353.955125</ele>
        <time>2021-11-19T07:45:22.598Z</time>
      </trkpt>
      <trkpt lat="47.561056" lon="8.132422">
        <ele>354.915912</ele>
        <time>2021-11-19T07:45:30.519Z</time>
      </trkpt>
      <trkpt lat="47.561161" lon="8.132610">
        <ele>355.739423</ele>
        <time>2021-11-19T07:45:34.838Z</time>
      </trkpt>
      <trkpt lat="47.561195" lon="8.132668">
        <ele>355.998681</ele>
        <time>2021-11-19T07:45:37.959Z</time>
      </trkpt>
      <trkpt lat="47.561228" lon="8.132726">
        <ele>356.254686</ele>
        <time>2021-11-19T07:45:40.220Z</time>
      </trkpt>
      <trkpt lat="47.561623" lon="8.133432">
        <ele>359.349429</ele>
        <time>2021-11-19T07:46:00.511Z</time>
      </trkpt>
      <trkpt lat="47.561664" lon="8.133579">
        <ele>359.886176</ele>
        <time>2021-11-19T07:46:06.354Z</time>
      </trkpt>
      <trkpt lat="47.561698" lon="8.133720">
        <ele>360.391440</ele>
        <time>2021-11-19T07:46:09.883Z</time>
      </trkpt>
      <trkpt lat="47.561725" lon="8.133913">
        <ele>361.056558</ele>
        <time>2021-11-19T07:46:14.332Z</time>
      </trkpt>
      <trkpt lat="47.561720" lon="8.135210">
        <ele>364.345262</ele>
        <time>2021-11-19T07:46:47.617Z</time>
      </trkpt>
      <trkpt lat="47.561711" lon="8.135438">
        <ele>364.877930</ele>
        <time>2021-11-19T07:46:52.574Z</time>
      </trkpt>
      <trkpt lat="47.561699" lon="8.135702">
        <ele>365.495045</ele>
        <time>2021-11-19T07:46:58.304Z</time>
      </trkpt>
      <trkpt lat="47.561695" lon="8.135815">
        <ele>365.758955</ele>
        <time>2021-11-19T07:47:00.249Z</time>
      </trkpt>
      <trkpt lat="47.561673" lon="8.136111">
        <ele>366.453483</ele>
        <time>2021-11-19T07:47:05.341Z</time>
      </trkpt>
      <trkpt lat="47.561651" lon="8.136422">
        <ele>367.182796</ele>
        <time>2021-11-19T07:47:08.839Z</time>
      </trkpt>
      <trkpt lat="47.561604" lon="8.136996">
        <ele>368.018947</ele>
        <time>2021-11-19T07:47:15.111Z</time>
      </trkpt>
      <trkpt lat="47.561574" lon="8.137322">
        <ele>367.813963</ele>
        <time>2021-11-19T07:47:18.426Z</time>
      </trkpt>
      <trkpt lat="47.561548" lon="8.137622">
        <ele>367.625523</ele>
        <time>2021-11-19T07:47:21.371Z</time>
      </trkpt>
      <trkpt lat="47.561531" lon="8.137825">
        <ele>367.498080</ele>
        <time>2021-11-19T07:47:23.346Z</time>
      </trkpt>
      <trkpt lat="47.561520" lon="8.138020">
        <ele>367.376168</ele>
        <time>2021-11-19T07:47:24.843Z</time>
      </trkpt>
      <trkpt lat="47.561504" lon="8.138613">
        <ele>367.006423</ele>
        <time>2021-11-19T07:47:29.347Z</time>
      </trkpt>
      <trkpt lat="47.561507" lon="8.138771">
        <ele>366.907947</ele>
        <time>2021-11-19T07:47:30.586Z</time>
      </trkpt>
      <trkpt lat="47.561660" lon="8.140164">
        <ele>366.351674</ele>
        <time>2021-11-19T07:47:41.183Z</time>
      </trkpt>
      <trkpt lat="47.561574" lon="8.141379">
        <ele>366.152269</ele>
        <time>2021-11-19T07:47:53.160Z</time>
      </trkpt>
      <trkpt lat="47.561563" lon="8.141574">
        <ele>366.120329</ele>
        <time>2021-11-19T07:47:55.244Z</time>
      </trkpt>
      <trkpt lat="47.561548" lon="8.141908">
        <ele>366.065692</ele>
        <time>2021-11-19T07:47:59.401Z</time>
      </trkpt>
      <trkpt lat="47.561542" lon="8.142165">
        <ele>366.086018</ele>
        <time>2021-11-19T07:48:02.401Z</time>
      </trkpt>
      <trkpt lat="47.561548" lon="8.142491">
        <ele>366.471649</ele>
        <time>2021-11-19T07:48:07.132Z</time>
      </trkpt>
      <trkpt lat="47.561569" lon="8.142863">
        <ele>366.913067</ele>
        <time>2021-11-19T07:48:12.430Z</time>
      </trkpt>
      <trkpt lat="47.561629" lon="8.143405">
        <ele>367.562537</ele>
        <time>2021-11-19T07:48:20.887Z</time>
      </trkpt>
      <trkpt lat="47.561693" lon="8.143892">
        <ele>368.149221</ele>
        <time>2021-11-19T07:48:28.514Z</time>
      </trkpt>
      <trkpt lat="47.561737" lon="8.144240">
        <ele>368.567883</ele>
        <time>2021-11-19T07:48:33.981Z</time>
      </trkpt>
      <trkpt lat="47.561764" lon="8.144413">
        <ele>368.777851</ele>
        <time>2021-11-19T07:48:36.973Z</time>
      </trkpt>
      <trkpt lat="47.561830" lon="8.144934">
        <ele>369.339096</ele>
        <time>2021-11-19T07:48:45.439Z</time>
      </trkpt>
      <trkpt lat="47.561843" lon="8.145077">
        <ele>369.459212</ele>
        <time>2021-11-19T07:48:47.700Z</time>
      </trkpt>
      <trkpt lat="47.561847" lon="8.145230">
        <ele>369.586673</ele>
        <time>2021-11-19T07:48:50.054Z</time>
      </trkpt>
      <trkpt lat="47.561842" lon="8.145448">
        <ele>369.768252</ele>
        <time>2021-11-19T07:48:53.396Z</time>
      </trkpt>
      <trkpt lat="47.561827" lon="8.145709">
        <ele>369.986309</ele>
        <time>2021-11-19T07:48:57.108Z</time>
      </trkpt>
      <trkpt lat="47.561811" lon="8.145912">
        <ele>370.156446</ele>
        <time>2021-11-19T07:48:59.749Z</time>
      </trkpt>
      <trkpt lat="47.561789" lon="8.146405">
        <ele>370.567742</ele>
        <time>2021-11-19T07:49:05.989Z</time>
      </trkpt>
      <trkpt lat="47.561783" lon="8.146574">
        <ele>370.708621</ele>
        <time>2021-11-19T07:49:08.188Z</time>
      </trkpt>
      <trkpt lat="47.561759" lon="8.147209">
        <ele>371.238057</ele>
        <time>2021-11-19T07:49:15.750Z</time>
      </trkpt>
      <trkpt lat="47.561778" lon="8.147534">
        <ele>371.466402</ele>
        <time>2021-11-19T07:49:19.562Z</time>
      </trkpt>
      <trkpt lat="47.561781" lon="8.147568">
        <ele>371.483485</ele>
        <time>2021-11-19T07:49:19.977Z</time>
      </trkpt>
      <trkpt lat="47.561822" lon="8.147813">
        <ele>371.609240</ele>
        <time>2021-11-19T07:49:22.610Z</time>
      </trkpt>
      <trkpt lat="47.561833" lon="8.147845">
        <ele>371.627131</ele>
        <time>2021-11-19T07:49:22.927Z</time>
      </trkpt>
      <trkpt lat="47.561913" lon="8.148081">
        <ele>371.758707</ele>
        <time>2021-11-19T07:49:25.856Z</time>
      </trkpt>
      <trkpt lat="47.561978" lon="8.148254">
        <ele>371.857353</ele>
        <time>2021-11-19T07:49:27.889Z</time>
      </trkpt>
      <trkpt lat="47.562009" lon="8.148365">
        <ele>371.917202</ele>
        <time>2021-11-19T07:49:29.251Z</time>
      </trkpt>
      <trkpt lat="47.562009" lon="8.148597">
        <ele>372.032782</ele>
        <time>2021-11-19T07:49:32.077Z</time>
      </trkpt>
      <trkpt lat="47.561998" lon="8.148673">
        <ele>372.071506</ele>
        <time>2021-11-19T07:49:32.810Z</time>
      </trkpt>
      <trkpt lat="47.561980" lon="8.148763">
        <ele>372.118271</ele>
        <time>2021-11-19T07:49:35.262Z</time>
      </trkpt>
      <trkpt lat="47.561943" lon="8.148889">
        <ele>372.186729</ele>
        <time>2021-11-19T07:49:38.877Z</time>
      </trkpt>
      <trkpt lat="47.561915" lon="8.148980">
        <ele>372.236556</ele>
        <time>2021-11-19T07:49:41.721Z</time>
      </trkpt>
      <trkpt lat="47.561767" lon="8.149503">
        <ele>372.519094</ele>
        <time>2021-11-19T07:49:57.160Z</time>
      </trkpt>
      <trkpt lat="47.561555" lon="8.150316">
        <ele>373.205337</ele>
        <time>2021-11-19T07:50:21.848Z</time>
      </trkpt>
      <trkpt lat="47.561512" lon="8.150470">
        <ele>373.382034</ele>
        <time>2021-11-19T07:50:27.045Z</time>
      </trkpt>
      <trkpt lat="47.561471" lon="8.150574">
        <ele>373.509733</ele>
        <time>2021-11-19T07:50:30.434Z</time>
      </trkpt>
      <trkpt lat="47.561352" lon="8.150768">
        <ele>373.787691</ele>
        <time>2021-11-19T07:50:38.075Z</time>
      </trkpt>
      <trkpt lat="47.561257" lon="8.150909">
        <ele>373.998937</ele>
        <time>2021-11-19T07:50:44.044Z</time>
      </trkpt>
      <trkpt lat="47.561109" lon="8.151163">
        <ele>374.354730</ele>
        <time>2021-11-19T07:50:53.539Z</time>
      </trkpt>
      <trkpt lat="47.561003" lon="8.151403">
        <ele>374.658838</ele>
        <time>2021-11-19T07:51:02.084Z</time>
      </trkpt>
      <trkpt lat="47.560916" lon="8.151600">
        <ele>374.908452</ele>
        <time>2021-11-19T07:51:08.734Z</time>
      </trkpt>
      <trkpt lat="47.560859" lon="8.151728">
        <ele>375.071046</ele>
        <time>2021-11-19T07:51:13.755Z</time>
      </trkpt>
      <trkpt lat="47.560747" lon="8.151985">
        <ele>375.395404</ele>
        <time>2021-11-19T07:51:22.518Z</time>
      </trkpt>
      <trkpt lat="47.560710" lon="8.152072">
        <ele>375.504433</ele>
        <time>2021-11-19T07:51:25.749Z</time>
      </trkpt>
      <trkpt lat="47.560668" lon="8.152171">
        <ele>375.638143</ele>
        <time>2021-11-19T07:51:29.701Z</time>
      </trkpt>
      <trkpt lat="47.560622" lon="8.152294">
        <ele>375.807222</ele>
        <time>2021-11-19T07:51:33.897Z</time>
      </trkpt>
      <trkpt lat="47.560547" lon="8.152508">
        <ele>376.097151</ele>
        <time>2021-11-19T07:51:40.984Z</time>
      </trkpt>
      <trkpt lat="47.560456" lon="8.152909">
        <ele>376.605818</ele>
        <time>2021-11-19T07:51:53.945Z</time>
      </trkpt>
      <trkpt lat="47.560422" lon="8.153030">
        <ele>376.763408</ele>
        <time>2021-11-19T07:51:57.929Z</time>
      </trkpt>
      <trkpt lat="47.560379" lon="8.153152">
        <ele>376.928896</ele>
        <time>2021-11-19T07:52:02.418Z</time>
      </trkpt>
      <trkpt lat="47.560330" lon="8.153256">
        <ele>377.081401</ele>
        <time>2021-11-19T07:52:06.112Z</time>
      </trkpt>
      <trkpt lat="47.560212" lon="8.153476">
        <ele>377.419291</ele>
        <time>2021-11-19T07:52:14.144Z</time>
      </trkpt>
      <trkpt lat="47.560153" lon="8.153582">
        <ele>377.584498</ele>
        <time>2021-11-19T07:52:16.544Z</time>
      </trkpt>
      <trkpt lat="47.560053" lon="8.153772">
        <ele>377.874209</ele>
        <time>2021-11-19T07:52:19.535Z</time>
      </trkpt>
      <trkpt lat="47.559990" lon="8.153866">
        <ele>378.033499</ele>
        <time>2021-11-19T07:52:21.247Z</time>
      </trkpt>
      <trkpt lat="47.559938" lon="8.153925">
        <ele>378.150188</ele>
        <time>2021-11-19T07:52:22.882Z</time>
      </trkpt>
      <trkpt lat="47.559905" lon="8.153956">
        <ele>378.219803</ele>
        <time>2021-11-19T07:52:23.831Z</time>
      </trkpt>
      <trkpt lat="47.559841" lon="8.154003">
        <ele>378.347068</ele>
        <time>2021-11-19T07:52:25.227Z</time>
      </trkpt>
      <trkpt lat="47.559698" lon="8.154088">
        <ele>378.621588</ele>
        <time>2021-11-19T07:52:27.809Z</time>
      </trkpt>
      <trkpt lat="47.559651" lon="8.154104">
        <ele>378.707510</ele>
        <time>2021-11-19T07:52:28.838Z</time>
      </trkpt>
      <trkpt lat="47.559591" lon="8.154124">
        <ele>378.840305</ele>
        <time>2021-11-19T07:52:30.481Z</time>
      </trkpt>
      <trkpt lat="47.559455" lon="8.154165">
        <ele>379.189100</ele>
        <time>2021-11-19T07:52:33.344Z</time>
      </trkpt>
      <trkpt lat="47.559284" lon="8.154179">
        <ele>379.619511</ele>
        <time>2021-11-19T07:52:37.101Z</time>
      </trkpt>
      <trkpt lat="47.559156" lon="8.154177">
        <ele>379.941218</ele>
        <time>2021-11-19T07:52:40.437Z</time>
      </trkpt>
      <trkpt lat="47.559032" lon="8.154178">
        <ele>380.252858</ele>
        <time>2021-11-19T07:52:43.053Z</time>
      </trkpt>
      <trkpt lat="47.558979" lon="8.154180">
        <ele>380.386100</ele>
        <time>2021-11-19T07:52:44.433Z</time>
      </trkpt>
      <trkpt lat="47.558924" lon="8.154185">
        <ele>380.524586</ele>
        <time>2021-11-19T07:52:45.887Z</time>
      </trkpt>
      <trkpt lat="47.558848" lon="8.154194">
        <ele>380.716197</ele>
        <time>2021-11-19T07:52:47.987Z</time>
      </trkpt>
      <trkpt lat="47.558498" lon="8.154242">
        <ele>381.599573</ele>
        <time>2021-11-19T07:52:56.460Z</time>
      </trkpt>
      <trkpt lat="47.557974" lon="8.154446">
        <ele>382.961176</ele>
        <time>2021-11-19T07:53:11.188Z</time>
      </trkpt>
      <trkpt lat="47.557909" lon="8.154469">
        <ele>383.129127</ele>
        <time>2021-11-19T07:53:12.943Z</time>
      </trkpt>
      <trkpt lat="47.557607" lon="8.154562">
        <ele>384.279571</ele>
        <time>2021-11-19T07:53:21.541Z</time>
      </trkpt>
      <trkpt lat="47.557234" lon="8.154662">
        <ele>385.805573</ele>
        <time>2021-11-19T07:53:32.678Z</time>
      </trkpt>
      <trkpt lat="47.557020" lon="8.154736">
        <ele>386.690241</ele>
        <time>2021-11-19T07:53:38.846Z</time>
      </trkpt>
      <trkpt lat="47.556982" lon="8.154756">
        <ele>386.852585</ele>
        <time>2021-11-19T07:53:41.065Z</time>
      </trkpt>
      <trkpt lat="47.556702" lon="8.155008">
        <ele>388.171438</ele>
        <time>2021-11-19T07:53:51.391Z</time>
      </trkpt>
      <trkpt lat="47.556361" lon="8.155432">
        <ele>389.963520</ele>
        <time>2021-11-19T07:54:06.927Z</time>
      </trkpt>
      <trkpt lat="47.555852" lon="8.155715">
        <ele>391.834573</ele>
        <time>2021-11-19T07:54:23.665Z</time>
      </trkpt>
      <trkpt lat="47.555483" lon="8.155879">
        <ele>393.083367</ele>
        <time>2021-11-19T07:54:35.339Z</time>
      </trkpt>
      <trkpt lat="47.555146" lon="8.156028">
        <ele>394.223377</ele>
        <time>2021-11-19T07:54:44.626Z</time>
      </trkpt>
      <trkpt lat="47.554024" lon="8.156353">
        <ele>397.255852</ele>
        <time>2021-11-19T07:55:12.740Z</time>
      </trkpt>
      <trkpt lat="47.553415" lon="8.156908">
        <ele>398.583773</ele>
        <time>2021-11-19T07:55:27.652Z</time>
      </trkpt>
      <trkpt lat="47.552966" lon="8.157085">
        <ele>399.446715</ele>
        <time>2021-11-19T07:55:37.284Z</time>
      </trkpt>
      <trkpt lat="47.552741" lon="8.157139">
        <ele>399.978864</ele>
        <time>2021-11-19T07:55:42.264Z</time>
      </trkpt>
      <trkpt lat="47.552683" lon="8.157162">
        <ele>400.158884</ele>
        <time>2021-11-19T07:55:43.769Z</time>
      </trkpt>
      <trkpt lat="47.552319" lon="8.157405">
        <ele>401.355916</ele>
        <time>2021-11-19T07:55:53.134Z</time>
      </trkpt>
      <trkpt lat="47.552174" lon="8.157599">
        <ele>401.941682</ele>
        <time>2021-11-19T07:55:58.305Z</time>
      </trkpt>
      <trkpt lat="47.551779" lon="8.158427">
        <ele>403.993516</ele>
        <time>2021-11-19T07:56:18.015Z</time>
      </trkpt>
      <trkpt lat="47.551653" lon="8.158711">
        <ele>404.681268</ele>
        <time>2021-11-19T07:56:25.030Z</time>
      </trkpt>
      <trkpt lat="47.551526" lon="8.158964">
        <ele>405.339072</ele>
        <time>2021-11-19T07:56:31.170Z</time>
      </trkpt>
      <trkpt lat="47.551447" lon="8.159096">
        <ele>405.726272</ele>
        <time>2021-11-19T07:56:34.566Z</time>
      </trkpt>
      <trkpt lat="47.551332" lon="8.159279">
        <ele>406.275051</ele>
        <time>2021-11-19T07:56:39.440Z</time>
      </trkpt>
      <trkpt lat="47.551164" lon="8.159529">
        <ele>407.049330</ele>
        <time>2021-11-19T07:56:47.346Z</time>
      </trkpt>
      <trkpt lat="47.550666" lon="8.160174">
        <ele>409.200251</ele>
        <time>2021-11-19T07:57:07.028Z</time>
      </trkpt>
      <trkpt lat="47.550099" lon="8.160724">
        <ele>411.090215</ele>
        <time>2021-11-19T07:57:23.798Z</time>
      </trkpt>
      <trkpt lat="47.549984" lon="8.160805">
        <ele>411.227469</ele>
        <time>2021-11-19T07:57:27.052Z</time>
      </trkpt>
      <trkpt lat="47.549905" lon="8.160854">
        <ele>411.319785</ele>
        <time>2021-11-19T07:57:28.133Z</time>
      </trkpt>
      <trkpt lat="47.549732" lon="8.160920">
        <ele>411.512346</ele>
        <time>2021-11-19T07:57:31.125Z</time>
      </trkpt>
      <trkpt lat="47.549617" lon="8.160942">
        <ele>411.637335</ele>
        <time>2021-11-19T07:57:33.519Z</time>
      </trkpt>
      <trkpt lat="47.549490" lon="8.160957">
        <ele>411.774664</ele>
        <time>2021-11-19T07:57:35.073Z</time>
      </trkpt>
      <trkpt lat="47.548672" lon="8.160912">
        <ele>412.657001</ele>
        <time>2021-11-19T07:57:49.447Z</time>
      </trkpt>
      <trkpt lat="47.548497" lon="8.160960">
        <ele>412.848841</ele>
        <time>2021-11-19T07:57:53.126Z</time>
      </trkpt>
      <trkpt lat="47.548340" lon="8.161015">
        <ele>413.194907</ele>
        <time>2021-11-19T07:57:56.240Z</time>
      </trkpt>
      <trkpt lat="47.547978" lon="8.161155">
        <ele>414.063053</ele>
        <time>2021-11-19T07:58:03.473Z</time>
      </trkpt>
      <trkpt lat="47.547763" lon="8.161258">
        <ele>414.587382</ele>
        <time>2021-11-19T07:58:08.038Z</time>
      </trkpt>
      <trkpt lat="47.547713" lon="8.161271">
        <ele>414.705177</ele>
        <time>2021-11-19T07:58:09.369Z</time>
      </trkpt>
      <trkpt lat="47.547597" lon="8.161255">
        <ele>414.975511</ele>
        <time>2021-11-19T07:58:12.209Z</time>
      </trkpt>
      <trkpt lat="47.547553" lon="8.161213">
        <ele>415.096968</ele>
        <time>2021-11-19T07:58:13.381Z</time>
      </trkpt>
      <trkpt lat="47.547517" lon="8.161278">
        <ele>415.228659</ele>
        <time>2021-11-19T07:58:14.451Z</time>
      </trkpt>
      <trkpt lat="47.547496" lon="8.161301">
        <ele>415.289258</ele>
        <time>2021-11-19T07:58:15.189Z</time>
      </trkpt>
      <trkpt lat="47.547470" lon="8.161331">
        <ele>415.365728</ele>
        <time>2021-11-19T07:58:16.013Z</time>
      </trkpt>
      <trkpt lat="47.547349" lon="8.161424">
        <ele>415.682036</ele>
        <time>2021-11-19T07:58:19.947Z</time>
      </trkpt>
      <trkpt lat="47.547207" lon="8.161521">
        <ele>416.044877</ele>
        <time>2021-11-19T07:58:23.626Z</time>
      </trkpt>
      <trkpt lat="47.547108" lon="8.161617">
        <ele>416.319433</ele>
        <time>2021-11-19T07:58:27.457Z</time>
      </trkpt>
      <trkpt lat="47.546981" lon="8.161773">
        <ele>416.702246</ele>
        <time>2021-11-19T07:58:32.309Z</time>
      </trkpt>
      <trkpt lat="47.546819" lon="8.162125">
        <ele>417.622554</ele>
        <time>2021-11-19T07:58:41.061Z</time>
      </trkpt>
      <trkpt lat="47.546748" lon="8.162622">
        <ele>419.042481</ele>
        <time>2021-11-19T07:58:51.466Z</time>
      </trkpt>
      <trkpt lat="47.546769" lon="8.162896">
        <ele>419.813254</ele>
        <time>2021-11-19T07:58:56.849Z</time>
      </trkpt>
      <trkpt lat="47.546790" lon="8.163024">
        <ele>420.181441</ele>
        <time>2021-11-19T07:59:00.062Z</time>
      </trkpt>
      <trkpt lat="47.546797" lon="8.163081">
        <ele>420.343376</ele>
        <time>2021-11-19T07:59:01.397Z</time>
      </trkpt>
      <trkpt lat="47.546835" lon="8.163363">
        <ele>421.147142</ele>
        <time>2021-11-19T07:59:07.009Z</time>
      </trkpt>
      <trkpt lat="47.546862" lon="8.163567">
        <ele>421.728196</ele>
        <time>2021-11-19T07:59:11.804Z</time>
      </trkpt>
      <trkpt lat="47.546850" lon="8.164022">
        <ele>423.000926</ele>
        <time>2021-11-19T07:59:21.802Z</time>
      </trkpt>
      <trkpt lat="47.546613" lon="8.164573">
        <ele>424.916093</ele>
        <time>2021-11-19T07:59:36.532Z</time>
      </trkpt>
      <trkpt lat="47.546441" lon="8.164907">
        <ele>426.404922</ele>
        <time>2021-11-19T07:59:45.504Z</time>
      </trkpt>
      <trkpt lat="47.546387" lon="8.165022">
        <ele>426.901393</ele>
        <time>2021-11-19T07:59:48.867Z</time>
      </trkpt>
      <trkpt lat="47.546204" lon="8.165321">
        <ele>428.331781</ele>
        <time>2021-11-19T07:59:57.227Z</time>
      </trkpt>
      <trkpt lat="47.546032" lon="8.165642">
        <ele>429.784257</ele>
        <time>2021-11-19T08:00:06.269Z</time>
      </trkpt>
      <trkpt lat="47.545768" lon="8.166102">
        <ele>431.924097</ele>
        <time>2021-11-19T08:00:21.814Z</time>
      </trkpt>
      <trkpt lat="47.545577" lon="8.166399">
        <ele>433.377900</ele>
        <time>2021-11-19T08:00:33.716Z</time>
      </trkpt>
      <trkpt lat="47.545453" lon="8.166595">
        <ele>434.427313</ele>
        <time>2021-11-19T08:00:40.673Z</time>
      </trkpt>
      <trkpt lat="47.545348" lon="8.166786">
        <ele>435.517552</ele>
        <time>2021-11-19T08:00:48.351Z</time>
      </trkpt>
      <trkpt lat="47.545260" lon="8.166987">
        <ele>436.577906</ele>
        <time>2021-11-19T08:00:54.160Z</time>
      </trkpt>
      <trkpt lat="47.545201" lon="8.167129">
        <ele>437.315912</ele>
        <time>2021-11-19T08:00:59.510Z</time>
      </trkpt>
      <trkpt lat="47.545100" lon="8.167448">
        <ele>438.875392</ele>
        <time>2021-11-19T08:01:08.697Z</time>
      </trkpt>
      <trkpt lat="47.545042" lon="8.167672">
        <ele>439.937246</ele>
        <time>2021-11-19T08:01:16.227Z</time>
      </trkpt>
      <trkpt lat="47.544873" lon="8.168362">
        <ele>443.185995</ele>
        <time>2021-11-19T08:01:35.398Z</time>
      </trkpt>
      <trkpt lat="47.544678" lon="8.168690">
        <ele>445.120500</ele>
        <time>2021-11-19T08:01:47.952Z</time>
      </trkpt>
      <trkpt lat="47.544202" lon="8.169104">
        <ele>448.556764</ele>
        <time>2021-11-19T08:02:11.607Z</time>
      </trkpt>
      <trkpt lat="47.543071" lon="8.169745">
        <ele>456.013799</ele>
        <time>2021-11-19T08:02:57.450Z</time>
      </trkpt>
      <trkpt lat="47.542881" lon="8.169924">
        <ele>457.583824</ele>
        <time>2021-11-19T08:03:05.565Z</time>
      </trkpt>
      <trkpt lat="47.542454" lon="8.171478">
        <ele>466.718848</ele>
        <time>2021-11-19T08:03:53.968Z</time>
      </trkpt>
      <trkpt lat="47.542400" lon="8.171599">
        <ele>467.508605</ele>
        <time>2021-11-19T08:04:00.666Z</time>
      </trkpt>
      <trkpt lat="47.542269" lon="8.171821">
        <ele>469.114027</ele>
        <time>2021-11-19T08:04:09.790Z</time>
      </trkpt>
      <trkpt lat="47.542048" lon="8.172212">
        <ele>472.002485</ele>
        <time>2021-11-19T08:04:30.002Z</time>
      </trkpt>
      <trkpt lat="47.541911" lon="8.172517">
        <ele>474.385110</ele>
        <time>2021-11-19T08:04:47.635Z</time>
      </trkpt>
      <trkpt lat="47.541680" lon="8.173272">
        <ele>479.776209</ele>
        <time>2021-11-19T08:05:18.682Z</time>
      </trkpt>
      <trkpt lat="47.541630" lon="8.173624">
        <ele>482.115648</ele>
        <time>2021-11-19T08:05:33.922Z</time>
      </trkpt>
      <trkpt lat="47.541583" lon="8.174150">
        <ele>485.566441</ele>
        <time>2021-11-19T08:05:51.415Z</time>
      </trkpt>
      <trkpt lat="47.541498" lon="8.174644">
        <ele>488.770768</ele>
        <time>2021-11-19T08:06:07.718Z</time>
      </trkpt>
      <trkpt lat="47.541486" lon="8.174716">
        <ele>489.027536</ele>
        <time>2021-11-19T08:06:08.368Z</time>
      </trkpt>
      <trkpt lat="47.541506" lon="8.174915">
        <ele>489.724122</ele>
        <time>2021-11-19T08:06:12.807Z</time>
      </trkpt>
      <trkpt lat="47.541677" lon="8.174964">
        <ele>490.617416</ele>
        <time>2021-11-19T08:06:21.920Z</time>
      </trkpt>
      <trkpt lat="47.542299" lon="8.174319">
        <ele>494.511515</ele>
        <time>2021-11-19T08:06:47.967Z</time>
      </trkpt>
      <trkpt lat="47.542421" lon="8.174181">
        <ele>495.298793</ele>
        <time>2021-11-19T08:06:50.841Z</time>
      </trkpt>
      <trkpt lat="47.542515" lon="8.174031">
        <ele>496.007409</ele>
        <time>2021-11-19T08:06:56.491Z</time>
      </trkpt>
      <trkpt lat="47.542804" lon="8.173437">
        <ele>498.837520</ele>
        <time>2021-11-19T08:07:09.528Z</time>
      </trkpt>
      <trkpt lat="47.542942" lon="8.173427">
        <ele>499.856702</ele>
        <time>2021-11-19T08:07:13.661Z</time>
      </trkpt>
      <trkpt lat="47.543005" lon="8.173666">
        <ele>501.134308</ele>
        <time>2021-11-19T08:07:20.585Z</time>
      </trkpt>
      <trkpt lat="47.542958" lon="8.174430">
        <ele>504.954370</ele>
        <time>2021-11-19T08:07:42.481Z</time>
      </trkpt>
      <trkpt lat="47.542928" lon="8.174898">
        <ele>507.295236</ele>
        <time>2021-11-19T08:07:59.564Z</time>
      </trkpt>
      <trkpt lat="47.542897" lon="8.175386">
        <ele>509.735946</ele>
        <time>2021-11-19T08:08:18.027Z</time>
      </trkpt>
      <trkpt lat="47.542818" lon="8.176268">
        <ele>514.728139</ele>
        <time>2021-11-19T08:08:48.542Z</time>
      </trkpt>
      <trkpt lat="47.542789" lon="8.176356">
        <ele>515.306192</ele>
        <time>2021-11-19T08:08:53.359Z</time>
      </trkpt>
      <trkpt lat="47.542728" lon="8.176498">
        <ele>516.299744</ele>
        <time>2021-11-19T08:08:58.494Z</time>
      </trkpt>
      <trkpt lat="47.542461" lon="8.176828">
        <ele>519.340452</ele>
        <time>2021-11-19T08:09:15.880Z</time>
      </trkpt>
      <trkpt lat="47.542415" lon="8.176968">
        <ele>520.259565</ele>
        <time>2021-11-19T08:09:20.788Z</time>
      </trkpt>
      <trkpt lat="47.542435" lon="8.177076">
        <ele>520.920640</ele>
        <time>2021-11-19T08:09:25.534Z</time>
      </trkpt>
      <trkpt lat="47.542522" lon="8.177193">
        <ele>521.948151</ele>
        <time>2021-11-19T08:09:31.911Z</time>
      </trkpt>
      <trkpt lat="47.542588" lon="8.177199">
        <ele>522.526378</ele>
        <time>2021-11-19T08:09:34.308Z</time>
      </trkpt>
      <trkpt lat="47.543074" lon="8.177090">
        <ele>526.824673</ele>
        <time>2021-11-19T08:09:57.240Z</time>
      </trkpt>
      <trkpt lat="47.543322" lon="8.176586">
        <ele>529.741105</ele>
        <time>2021-11-19T08:10:17.223Z</time>
      </trkpt>
      <trkpt lat="47.543498" lon="8.176425">
        <ele>531.169805</ele>
        <time>2021-11-19T08:10:23.740Z</time>
      </trkpt>
      <trkpt lat="47.543542" lon="8.176433">
        <ele>531.475989</ele>
        <time>2021-11-19T08:10:25.453Z</time>
      </trkpt>
      <trkpt lat="47.543596" lon="8.176496">
        <ele>531.950737</ele>
        <time>2021-11-19T08:10:30.373Z</time>
      </trkpt>
      <trkpt lat="47.543620" lon="8.176594">
        <ele>532.436788</ele>
        <time>2021-11-19T08:10:32.783Z</time>
      </trkpt>
      <trkpt lat="47.543492" lon="8.178872">
        <ele>543.883865</ele>
        <time>2021-11-19T08:11:35.448Z</time>
      </trkpt>
      <trkpt lat="47.543472" lon="8.179027">
        <ele>544.772232</ele>
        <time>2021-11-19T08:11:42.373Z</time>
      </trkpt>
      <trkpt lat="47.543458" lon="8.179101">
        <ele>545.204866</ele>
        <time>2021-11-19T08:11:43.816Z</time>
      </trkpt>
      <trkpt lat="47.543396" lon="8.179405">
        <ele>546.992632</ele>
        <time>2021-11-19T08:11:54.615Z</time>
      </trkpt>
      <trkpt lat="47.543357" lon="8.179586">
        <ele>548.062220</ele>
        <time>2021-11-19T08:12:02.473Z</time>
      </trkpt>
      <trkpt lat="47.543305" lon="8.179775">
        <ele>549.211176</ele>
        <time>2021-11-19T08:12:07.032Z</time>
      </trkpt>
      <trkpt lat="47.543293" lon="8.179736">
        <ele>549.452459</ele>
        <time>2021-11-19T08:12:09.536Z</time>
      </trkpt>
      <trkpt lat="47.543176" lon="8.179544">
        <ele>550.908592</ele>
        <time>2021-11-19T08:12:21.147Z</time>
      </trkpt>
      <trkpt lat="47.543118" lon="8.179531">
        <ele>551.397793</ele>
        <time>2021-11-19T08:12:22.201Z</time>
      </trkpt>
      <trkpt lat="47.542924" lon="8.179685">
        <ele>553.233313</ele>
        <time>2021-11-19T08:12:39.640Z</time>
      </trkpt>
      <trkpt lat="47.542849" lon="8.179744">
        <ele>553.941502</ele>
        <time>2021-11-19T08:12:47.235Z</time>
      </trkpt>
      <trkpt lat="47.542427" lon="8.180153">
        <ele>559.911425</ele>
        <time>2021-11-19T08:13:22.472Z</time>
      </trkpt>
      <trkpt lat="47.542393" lon="8.180200">
        <ele>560.476569</ele>
        <time>2021-11-19T08:13:27.480Z</time>
      </trkpt>
      <trkpt lat="47.542275" lon="8.180404">
        <ele>562.680453</ele>
        <time>2021-11-19T08:13:38.847Z</time>
      </trkpt>
      <trkpt lat="47.541775" lon="8.182085">
        <ele>577.737800</ele>
        <time>2021-11-19T08:15:03.825Z</time>
      </trkpt>
      <trkpt lat="47.541555" lon="8.182888">
        <ele>584.792669</ele>
        <time>2021-11-19T08:15:45.825Z</time>
      </trkpt>
      <trkpt lat="47.541456" lon="8.183299">
        <ele>588.345141</ele>
        <time>2021-11-19T08:16:04.276Z</time>
      </trkpt>
      <trkpt lat="47.541372" lon="8.183706">
        <ele>591.809827</ele>
        <time>2021-11-19T08:16:21.422Z</time>
      </trkpt>
      <trkpt lat="47.541337" lon="8.183941">
        <ele>593.768918</ele>
        <time>2021-11-19T08:16:32.183Z</time>
      </trkpt>
      <trkpt lat="47.541253" lon="8.184529">
        <ele>598.158995</ele>
        <time>2021-11-19T08:16:55.789Z</time>
      </trkpt>
      <trkpt lat="47.541144" lon="8.185829">
        <ele>602.321946</ele>
        <time>2021-11-19T08:17:34.185Z</time>
      </trkpt>
      <trkpt lat="47.541134" lon="8.187007">
        <ele>606.065755</ele>
        <time>2021-11-19T08:17:54.753Z</time>
      </trkpt>
      <trkpt lat="47.541314" lon="8.190468">
        <ele>595.952460</ele>
        <time>2021-11-19T08:18:17.535Z</time>
      </trkpt>
      <trkpt lat="47.541303" lon="8.190582">
        <ele>595.317648</ele>
        <time>2021-11-19T08:18:18.198Z</time>
      </trkpt>
      <trkpt lat="47.541254" lon="8.190715">
        <ele>594.482404</ele>
        <time>2021-11-19T08:18:20.633Z</time>
      </trkpt>
      <trkpt lat="47.541136" lon="8.190956">
        <ele>592.841234</ele>
        <time>2021-11-19T08:18:25.950Z</time>
      </trkpt>
      <trkpt lat="47.541095" lon="8.191058">
        <ele>592.186827</ele>
        <time>2021-11-19T08:18:27.962Z</time>
      </trkpt>
      <trkpt lat="47.541065" lon="8.191152">
        <ele>591.613659</ele>
        <time>2021-11-19T08:18:28.537Z</time>
      </trkpt>
      <trkpt lat="47.541049" lon="8.191467">
        <ele>589.872306</ele>
        <time>2021-11-19T08:18:30.451Z</time>
      </trkpt>
      <trkpt lat="47.541411" lon="8.193836">
        <ele>573.818366</ele>
        <time>2021-11-19T08:18:44.451Z</time>
      </trkpt>
      <trkpt lat="47.541450" lon="8.194441">
        <ele>569.455621</ele>
        <time>2021-11-19T08:18:47.961Z</time>
      </trkpt>
      <trkpt lat="47.541449" lon="8.194943">
        <ele>565.905341</ele>
        <time>2021-11-19T08:18:50.866Z</time>
      </trkpt>
      <trkpt lat="47.541424" lon="8.196416">
        <ele>557.089896</ele>
        <time>2021-11-19T08:18:59.450Z</time>
      </trkpt>
      <trkpt lat="47.541371" lon="8.199351">
        <ele>542.035334</ele>
        <time>2021-11-19T08:19:17.108Z</time>
      </trkpt>
      <trkpt lat="47.541339" lon="8.199690">
        <ele>540.467732</ele>
        <time>2021-11-19T08:19:19.264Z</time>
      </trkpt>
      <trkpt lat="47.541246" lon="8.200575">
        <ele>536.444874</ele>
        <time>2021-11-19T08:19:35.755Z</time>
      </trkpt>
      <trkpt lat="47.541150" lon="8.201242">
        <ele>533.469806</ele>
        <time>2021-11-19T08:19:48.039Z</time>
      </trkpt>
      <trkpt lat="47.540912" lon="8.201699">
        <ele>530.951911</ele>
        <time>2021-11-19T08:19:58.279Z</time>
      </trkpt>
      <trkpt lat="47.540817" lon="8.201780">
        <ele>530.243581</ele>
        <time>2021-11-19T08:20:00.986Z</time>
      </trkpt>
      <trkpt lat="47.540724" lon="8.201834">
        <ele>529.598084</ele>
        <time>2021-11-19T08:20:03.739Z</time>
      </trkpt>
      <trkpt lat="47.540495" lon="8.201931">
        <ele>528.058946</ele>
        <time>2021-11-19T08:20:09.896Z</time>
      </trkpt>
      <trkpt lat="47.540267" lon="8.201983">
        <ele>526.568220</ele>
        <time>2021-11-19T08:20:16.157Z</time>
      </trkpt>
      <trkpt lat="47.540245" lon="8.201988">
        <ele>526.424390</ele>
        <time>2021-11-19T08:20:16.733Z</time>
      </trkpt>
      <trkpt lat="47.540161" lon="8.202010">
        <ele>525.760559</ele>
        <time>2021-11-19T08:20:17.462Z</time>
      </trkpt>
      <trkpt lat="47.539686" lon="8.202173">
        <ele>521.944348</ele>
        <time>2021-11-19T08:20:21.805Z</time>
      </trkpt>
      <trkpt lat="47.539057" lon="8.202818">
        <ele>515.956731</ele>
        <time>2021-11-19T08:20:28.524Z</time>
      </trkpt>
      <trkpt lat="47.538542" lon="8.203042">
        <ele>511.829172</ele>
        <time>2021-11-19T08:20:33.260Z</time>
      </trkpt>
      <trkpt lat="47.538311" lon="8.203259">
        <ele>509.962743</ele>
        <time>2021-11-19T08:20:35.717Z</time>
      </trkpt>
      <trkpt lat="47.538192" lon="8.203678">
        <ele>507.868811</ele>
        <time>2021-11-19T08:20:38.492Z</time>
      </trkpt>
      <trkpt lat="47.537847" lon="8.206596">
        <ele>493.116120</ele>
        <time>2021-11-19T08:20:56.643Z</time>
      </trkpt>
      <trkpt lat="47.537822" lon="8.206799">
        <ele>491.985266</ele>
        <time>2021-11-19T08:20:57.862Z</time>
      </trkpt>
      <trkpt lat="47.537696" lon="8.207798">
        <ele>486.415739</ele>
        <time>2021-11-19T08:21:03.812Z</time>
      </trkpt>
      <trkpt lat="47.537630" lon="8.208383">
        <ele>482.531651</ele>
        <time>2021-11-19T08:21:07.277Z</time>
      </trkpt>
      <trkpt lat="47.537541" lon="8.209218">
        <ele>476.616845</ele>
        <time>2021-11-19T08:21:12.096Z</time>
      </trkpt>
      <trkpt lat="47.537525" lon="8.209530">
        <ele>474.427511</ele>
        <time>2021-11-19T08:21:13.914Z</time>
      </trkpt>
      <trkpt lat="47.537624" lon="8.210296">
        <ele>468.970529</ele>
        <time>2021-11-19T08:21:18.439Z</time>
      </trkpt>
      <trkpt lat="47.537582" lon="8.210504">
        <ele>467.451464</ele>
        <time>2021-11-19T08:21:19.723Z</time>
      </trkpt>
      <trkpt lat="47.537542" lon="8.210584">
        <ele>466.760544</ele>
        <time>2021-11-19T08:21:20.283Z</time>
      </trkpt>
      <trkpt lat="47.537481" lon="8.210648">
        <ele>466.060294</ele>
        <time>2021-11-19T08:21:20.937Z</time>
      </trkpt>
      <trkpt lat="47.537432" lon="8.210679">
        <ele>465.561165</ele>
        <time>2021-11-19T08:21:21.401Z</time>
      </trkpt>
      <trkpt lat="47.537388" lon="8.210688">
        <ele>465.145077</ele>
        <time>2021-11-19T08:21:21.801Z</time>
      </trkpt>
      <trkpt lat="47.537267" lon="8.210668">
        <ele>464.004555</ele>
        <time>2021-11-19T08:21:22.872Z</time>
      </trkpt>
      <trkpt lat="47.537143" lon="8.210508">
        <ele>462.464043</ele>
        <time>2021-11-19T08:21:24.285Z</time>
      </trkpt>
      <trkpt lat="47.537043" lon="8.210202">
        <ele>460.314025</ele>
        <time>2021-11-19T08:21:26.301Z</time>
      </trkpt>
      <trkpt lat="47.536956" lon="8.209884">
        <ele>458.144059</ele>
        <time>2021-11-19T08:21:28.346Z</time>
      </trkpt>
      <trkpt lat="47.536921" lon="8.209778">
        <ele>457.397807</ele>
        <time>2021-11-19T08:21:29.036Z</time>
      </trkpt>
      <trkpt lat="47.536874" lon="8.209678">
        <ele>456.627218</ele>
        <time>2021-11-19T08:21:29.728Z</time>
      </trkpt>
      <trkpt lat="47.536687" lon="8.209592">
        <ele>454.792975</ele>
        <time>2021-11-19T08:21:31.460Z</time>
      </trkpt>
      <trkpt lat="47.536563" lon="8.209636">
        <ele>453.598520</ele>
        <time>2021-11-19T08:21:32.545Z</time>
      </trkpt>
      <trkpt lat="47.535970" lon="8.210248">
        <ele>446.782347</ele>
        <time>2021-11-19T08:21:38.804Z</time>
      </trkpt>
      <trkpt lat="47.534948" lon="8.210478">
        <ele>436.957538</ele>
        <time>2021-11-19T08:21:47.695Z</time>
      </trkpt>
      <trkpt lat="47.534400" lon="8.210289">
        <ele>431.793100</ele>
        <time>2021-11-19T08:21:52.634Z</time>
      </trkpt>
      <trkpt lat="47.533949" lon="8.209720">
        <ele>426.981310</ele>
        <time>2021-11-19T08:21:57.837Z</time>
      </trkpt>
      <trkpt lat="47.533279" lon="8.208606">
        <ele>418.800219</ele>
        <time>2021-11-19T08:22:06.744Z</time>
      </trkpt>
      <trkpt lat="47.533191" lon="8.208445">
        <ele>417.688261</ele>
        <time>2021-11-19T08:22:08.033Z</time>
      </trkpt>
      <trkpt lat="47.533120" lon="8.208342">
        <ele>416.913481</ele>
        <time>2021-11-19T08:22:08.880Z</time>
      </trkpt>
      <trkpt lat="47.532835" lon="8.207933">
        <ele>413.819790</ele>
        <time>2021-11-19T08:22:12.429Z</time>
      </trkpt>
      <trkpt lat="47.532597" lon="8.207774">
        <ele>411.784360</ele>
        <time>2021-11-19T08:22:14.755Z</time>
      </trkpt>
      <trkpt lat="47.532270" lon="8.207712">
        <ele>409.214308</ele>
        <time>2021-11-19T08:22:17.641Z</time>
      </trkpt>
      <trkpt lat="47.531300" lon="8.207688">
        <ele>403.099365</ele>
        <time>2021-11-19T08:22:26.207Z</time>
      </trkpt>
      <trkpt lat="47.531043" lon="8.207684">
        <ele>402.216927</ele>
        <time>2021-11-19T08:22:28.592Z</time>
      </trkpt>
      <trkpt lat="47.530948" lon="8.207681">
        <ele>401.890678</ele>
        <time>2021-11-19T08:22:29.524Z</time>
      </trkpt>
      <trkpt lat="47.530748" lon="8.207682">
        <ele>401.203990</ele>
        <time>2021-11-19T08:22:31.428Z</time>
      </trkpt>
      <trkpt lat="47.530570" lon="8.207684">
        <ele>400.592824</ele>
        <time>2021-11-19T08:22:33.381Z</time>
      </trkpt>
      <trkpt lat="47.530081" lon="8.207671">
        <ele>398.913611</ele>
        <time>2021-11-19T08:22:39.008Z</time>
      </trkpt>
      <trkpt lat="47.529704" lon="8.207736">
        <ele>398.148335</ele>
        <time>2021-11-19T08:22:44.988Z</time>
      </trkpt>
      <trkpt lat="47.529530" lon="8.207845">
        <ele>398.269663</ele>
        <time>2021-11-19T08:22:49.215Z</time>
      </trkpt>
      <trkpt lat="47.529351" lon="8.208087">
        <ele>398.425312</ele>
        <time>2021-11-19T08:22:55.082Z</time>
      </trkpt>
      <trkpt lat="47.529330" lon="8.208128">
        <ele>398.447627</ele>
        <time>2021-11-19T08:22:56.631Z</time>
      </trkpt>
      <trkpt lat="47.529201" lon="8.208382">
        <ele>398.585447</ele>
        <time>2021-11-19T08:23:00.863Z</time>
      </trkpt>
      <trkpt lat="47.528988" lon="8.208838">
        <ele>398.825884</ele>
        <time>2021-11-19T08:23:08.305Z</time>
      </trkpt>
      <trkpt lat="47.528477" lon="8.209843">
        <ele>398.276035</ele>
        <time>2021-11-19T08:23:21.274Z</time>
      </trkpt>
      <trkpt lat="47.528294" lon="8.210278">
        <ele>396.904456</ele>
        <time>2021-11-19T08:23:25.009Z</time>
      </trkpt>
      <trkpt lat="47.528109" lon="8.210725">
        <ele>395.501387</ele>
        <time>2021-11-19T08:23:28.542Z</time>
      </trkpt>
      <trkpt lat="47.527904" lon="8.211051">
        <ele>394.309219</ele>
        <time>2021-11-19T08:23:31.443Z</time>
      </trkpt>
      <trkpt lat="47.527792" lon="8.211675">
        <ele>392.581298</ele>
        <time>2021-11-19T08:23:35.426Z</time>
      </trkpt>
      <trkpt lat="47.527628" lon="8.212063">
        <ele>390.473830</ele>
        <time>2021-11-19T08:23:38.154Z</time>
      </trkpt>
      <trkpt lat="47.527568" lon="8.212167">
        <ele>389.667498</ele>
        <time>2021-11-19T08:23:38.936Z</time>
      </trkpt>
      <trkpt lat="47.527492" lon="8.212260">
        <ele>388.806856</ele>
        <time>2021-11-19T08:23:39.826Z</time>
      </trkpt>
      <trkpt lat="47.527174" lon="8.212657">
        <ele>385.176022</ele>
        <time>2021-11-19T08:23:43.475Z</time>
      </trkpt>
      <trkpt lat="47.527086" lon="8.212822">
        <ele>383.936605</ele>
        <time>2021-11-19T08:23:44.730Z</time>
      </trkpt>
      <trkpt lat="47.526996" lon="8.212989">
        <ele>382.677098</ele>
        <time>2021-11-19T08:23:45.963Z</time>
      </trkpt>
      <trkpt lat="47.526966" lon="8.213055">
        <ele>382.208112</ele>
        <time>2021-11-19T08:23:47.202Z</time>
      </trkpt>
      <trkpt lat="47.526819" lon="8.213402">
        <ele>379.793424</ele>
        <time>2021-11-19T08:23:54.141Z</time>
      </trkpt>
      <trkpt lat="47.526750" lon="8.213563">
        <ele>378.669358</ele>
        <time>2021-11-19T08:23:57.298Z</time>
      </trkpt>
      <trkpt lat="47.526721" lon="8.213721">
        <ele>377.704197</ele>
        <time>2021-11-19T08:24:00.079Z</time>
      </trkpt>
      <trkpt lat="47.526668" lon="8.213870">
        <ele>376.711469</ele>
        <time>2021-11-19T08:24:02.878Z</time>
      </trkpt>
      <trkpt lat="47.526452" lon="8.214225">
        <ele>374.278704</ele>
        <time>2021-11-19T08:24:11.008Z</time>
      </trkpt>
      <trkpt lat="47.526337" lon="8.214415">
        <ele>373.006286</ele>
        <time>2021-11-19T08:24:15.246Z</time>
      </trkpt>
      <trkpt lat="47.526233" lon="8.214701">
        <ele>371.386391</ele>
        <time>2021-11-19T08:24:20.894Z</time>
      </trkpt>
      <trkpt lat="47.526245" lon="8.214785">
        <ele>370.958224</ele>
        <time>2021-11-19T08:24:22.236Z</time>
      </trkpt>
      <trkpt lat="47.526124" lon="8.214905">
        <ele>369.882754</ele>
        <time>2021-11-19T08:24:23.538Z</time>
      </trkpt>
      <trkpt lat="47.526053" lon="8.214977">
        <ele>369.247255</ele>
        <time>2021-11-19T08:24:24.307Z</time>
      </trkpt>
      <trkpt lat="47.526002" lon="8.215031">
        <ele>368.784246</ele>
        <time>2021-11-19T08:24:24.865Z</time>
      </trkpt>
      <trkpt lat="47.525955" lon="8.215079">
        <ele>368.362609</ele>
        <time>2021-11-19T08:24:25.349Z</time>
      </trkpt>
      <trkpt lat="47.525912" lon="8.215115">
        <ele>367.997814</ele>
        <time>2021-11-19T08:24:25.805Z</time>
      </trkpt>
      <trkpt lat="47.525837" lon="8.215146">
        <ele>367.422758</ele>
        <time>2021-11-19T08:24:26.532Z</time>
      </trkpt>
      <trkpt lat="47.525749" lon="8.215166">
        <ele>366.765256</ele>
        <time>2021-11-19T08:24:27.326Z</time>
      </trkpt>
      <trkpt lat="47.525630" lon="8.215165">
        <ele>365.886408</ele>
        <time>2021-11-19T08:24:28.361Z</time>
      </trkpt>
      <trkpt lat="47.525397" lon="8.215170">
        <ele>364.165487</ele>
        <time>2021-11-19T08:24:30.583Z</time>
      </trkpt>
      <trkpt lat="47.524496" lon="8.215283">
        <ele>360.917698</ele>
        <time>2021-11-19T08:24:39.418Z</time>
      </trkpt>
      <trkpt lat="47.523967" lon="8.215368">
        <ele>359.387511</ele>
        <time>2021-11-19T08:24:45.185Z</time>
      </trkpt>
      <trkpt lat="47.523628" lon="8.215398">
        <ele>358.410902</ele>
        <time>2021-11-19T08:24:49.018Z</time>
      </trkpt>
      <trkpt lat="47.523463" lon="8.215416">
        <ele>357.935122</ele>
        <time>2021-11-19T08:24:51.074Z</time>
      </trkpt>
      <trkpt lat="47.523322" lon="8.215449">
        <ele>357.898988</ele>
        <time>2021-11-19T08:24:52.689Z</time>
      </trkpt>
      <trkpt lat="47.523295" lon="8.215459">
        <ele>357.892379</ele>
        <time>2021-11-19T08:24:53.000Z</time>
      </trkpt>
      <trkpt lat="47.523252" lon="8.215477">
        <ele>357.881767</ele>
        <time>2021-11-19T08:24:53.520Z</time>
      </trkpt>
      <trkpt lat="47.523184" lon="8.215512">
        <ele>357.864670</ele>
        <time>2021-11-19T08:24:54.423Z</time>
      </trkpt>
      <trkpt lat="47.523040" lon="8.215616">
        <ele>357.826622</ele>
        <time>2021-11-19T08:24:56.412Z</time>
      </trkpt>
      <trkpt lat="47.522953" lon="8.215700">
        <ele>357.801957</ele>
        <time>2021-11-19T08:24:57.661Z</time>
      </trkpt>
      <trkpt lat="47.522589" lon="8.216064">
        <ele>357.697647</ele>
        <time>2021-11-19T08:25:03.529Z</time>
      </trkpt>
      <trkpt lat="47.522426" lon="8.216233">
        <ele>357.650392</ele>
        <time>2021-11-19T08:25:06.797Z</time>
      </trkpt>
      <trkpt lat="47.522326" lon="8.216356">
        <ele>357.619519</ele>
        <time>2021-11-19T08:25:08.850Z</time>
      </trkpt>
      <trkpt lat="47.522226" lon="8.216299">
        <ele>357.594072</ele>
        <time>2021-11-19T08:25:11.597Z</time>
      </trkpt>
      <trkpt lat="47.521839" lon="8.216142">
        <ele>357.527672</ele>
        <time>2021-11-19T08:25:20.680Z</time>
      </trkpt>
      <trkpt lat="47.521761" lon="8.216165">
        <ele>357.589538</ele>
        <time>2021-11-19T08:25:22.376Z</time>
      </trkpt>
      <trkpt lat="47.521743" lon="8.216174">
        <ele>357.604317</ele>
        <time>2021-11-19T08:25:22.893Z</time>
      </trkpt>
      <trkpt lat="47.521586" lon="8.216258">
        <ele>357.734171</ele>
        <time>2021-11-19T08:25:26.697Z</time>
      </trkpt>
      <trkpt lat="47.521527" lon="8.216269">
        <ele>357.780429</ele>
        <time>2021-11-19T08:25:28.422Z</time>
      </trkpt>
      <trkpt lat="47.521239" lon="8.216193">
        <ele>358.007989</ele>
        <time>2021-11-19T08:25:35.100Z</time>
      </trkpt>
      <trkpt lat="47.521196" lon="8.216177">
        <ele>358.042477</ele>
        <time>2021-11-19T08:25:36.408Z</time>
      </trkpt>
      <trkpt lat="47.521086" lon="8.216135">
        <ele>358.130843</ele>
        <time>2021-11-19T08:25:39.030Z</time>
      </trkpt>
      <trkpt lat="47.520786" lon="8.215911">
        <ele>358.392197</ele>
        <time>2021-11-19T08:25:47.109Z</time>
      </trkpt>
      <trkpt lat="47.520540" lon="8.215681">
        <ele>358.618508</ele>
        <time>2021-11-19T08:25:53.842Z</time>
      </trkpt>
      <trkpt lat="47.520315" lon="8.215590">
        <ele>358.799943</ele>
        <time>2021-11-19T08:25:59.011Z</time>
      </trkpt>
      <trkpt lat="47.520146" lon="8.215572">
        <ele>358.924253</ele>
        <time>2021-11-19T08:26:03.087Z</time>
      </trkpt>
      <trkpt lat="47.520124" lon="8.215569">
        <ele>358.936684</ele>
        <time>2021-11-19T08:26:03.538Z</time>
      </trkpt>
      <trkpt lat="47.519944" lon="8.215530">
        <ele>359.039037</ele>
        <time>2021-11-19T08:26:07.617Z</time>
      </trkpt>
      <trkpt lat="47.519670" lon="8.215440">
        <ele>359.196948</ele>
        <time>2021-11-19T08:26:13.966Z</time>
      </trkpt>
      <trkpt lat="47.519391" lon="8.215293">
        <ele>359.363566</ele>
        <time>2021-11-19T08:26:20.689Z</time>
      </trkpt>
      <trkpt lat="47.519148" lon="8.215131">
        <ele>359.513505</ele>
        <time>2021-11-19T08:26:26.595Z</time>
      </trkpt>
      <trkpt lat="47.518955" lon="8.215007">
        <ele>359.631876</ele>
        <time>2021-11-19T08:26:31.225Z</time>
      </trkpt>
      <trkpt lat="47.518727" lon="8.214908">
        <ele>359.765560</ele>
        <time>2021-11-19T08:26:36.343Z</time>
      </trkpt>
      <trkpt lat="47.518581" lon="8.214863">
        <ele>359.849466</ele>
        <time>2021-11-19T08:26:39.613Z</time>
      </trkpt>
      <trkpt lat="47.518146" lon="8.214775">
        <ele>360.210805</ele>
        <time>2021-11-19T08:26:49.507Z</time>
      </trkpt>
      <trkpt lat="47.518033" lon="8.214737">
        <ele>360.317448</ele>
        <time>2021-11-19T08:26:52.141Z</time>
      </trkpt>
      <trkpt lat="47.517918" lon="8.214716">
        <ele>360.424085</ele>
        <time>2021-11-19T08:26:55.265Z</time>
      </trkpt>
      <trkpt lat="47.517865" lon="8.214707">
        <ele>360.473181</ele>
        <time>2021-11-19T08:26:56.569Z</time>
      </trkpt>
      <trkpt lat="47.517727" lon="8.214690">
        <ele>360.600622</ele>
        <time>2021-11-19T08:26:59.983Z</time>
      </trkpt>
      <trkpt lat="47.517598" lon="8.214691">
        <ele>360.719343</ele>
        <time>2021-11-19T08:27:03.200Z</time>
      </trkpt>
      <trkpt lat="47.517061" lon="8.214737">
        <ele>361.214374</ele>
        <time>2021-11-19T08:27:16.448Z</time>
      </trkpt>
      <trkpt lat="47.516927" lon="8.214681">
        <ele>361.342513</ele>
        <time>2021-11-19T08:27:19.740Z</time>
      </trkpt>
      <trkpt lat="47.516853" lon="8.214613">
        <ele>361.422665</ele>
        <time>2021-11-19T08:27:21.981Z</time>
      </trkpt>
      <trkpt lat="47.516592" lon="8.214194">
        <ele>361.716650</ele>
        <time>2021-11-19T08:27:30.899Z</time>
      </trkpt>
      <trkpt lat="47.516450" lon="8.213978">
        <ele>361.848892</ele>
        <time>2021-11-19T08:27:35.423Z</time>
      </trkpt>
      <trkpt lat="47.516357" lon="8.213867">
        <ele>361.926486</ele>
        <time>2021-11-19T08:27:38.200Z</time>
      </trkpt>
      <trkpt lat="47.515439" lon="8.213200">
        <ele>362.590729</ele>
        <time>2021-11-19T08:28:01.833Z</time>
      </trkpt>
      <trkpt lat="47.515199" lon="8.213043">
        <ele>362.753285</ele>
        <time>2021-11-19T08:28:07.645Z</time>
      </trkpt>
      <trkpt lat="47.515044" lon="8.212902">
        <ele>362.826777</ele>
        <time>2021-11-19T08:28:11.600Z</time>
      </trkpt>
      <trkpt lat="47.514567" lon="8.212469">
        <ele>363.052812</ele>
        <time>2021-11-19T08:28:23.310Z</time>
      </trkpt>
      <trkpt lat="47.514469" lon="8.212440">
        <ele>363.093186</ele>
        <time>2021-11-19T08:28:25.582Z</time>
      </trkpt>
      <trkpt lat="47.514119" lon="8.212384">
        <ele>363.235404</ele>
        <time>2021-11-19T08:28:33.042Z</time>
      </trkpt>
      <trkpt lat="47.513868" lon="8.212369">
        <ele>363.336887</ele>
        <time>2021-11-19T08:28:38.338Z</time>
      </trkpt>
      <trkpt lat="47.513892" lon="8.211277">
        <ele>363.789089</ele>
        <time>2021-11-19T08:28:51.042Z</time>
      </trkpt>
      <trkpt lat="47.513892" lon="8.210732">
        <ele>364.074139</ele>
        <time>2021-11-19T08:28:58.128Z</time>
      </trkpt>
      <trkpt lat="47.513886" lon="8.210522">
        <ele>364.184073</ele>
        <time>2021-11-19T08:29:00.783Z</time>
      </trkpt>
      <trkpt lat="47.513875" lon="8.210161">
        <ele>364.373078</ele>
        <time>2021-11-19T08:29:05.254Z</time>
      </trkpt>
      <trkpt lat="47.513828" lon="8.209683">
        <ele>364.625721</ele>
        <time>2021-11-19T08:29:11.090Z</time>
      </trkpt>
      <trkpt lat="47.513775" lon="8.209324">
        <ele>364.817922</ele>
        <time>2021-11-19T08:29:15.484Z</time>
      </trkpt>
      <trkpt lat="47.513709" lon="8.208886">
        <ele>364.985425</ele>
        <time>2021-11-19T08:29:20.911Z</time>
      </trkpt>
      <trkpt lat="47.513508" lon="8.208805">
        <ele>365.090515</ele>
        <time>2021-11-19T08:29:24.459Z</time>
      </trkpt>
      <trkpt lat="47.512464" lon="8.208323">
        <ele>365.642209</ele>
        <time>2021-11-19T08:29:42.774Z</time>
      </trkpt>
      <trkpt lat="47.512289" lon="8.208244">
        <ele>365.734507</ele>
        <time>2021-11-19T08:29:45.729Z</time>
      </trkpt>
      <trkpt lat="47.511830" lon="8.207951">
        <ele>366.385424</ele>
        <time>2021-11-19T08:29:53.577Z</time>
      </trkpt>
      <trkpt lat="47.511545" lon="8.207730">
        <ele>366.842585</ele>
        <time>2021-11-19T08:29:58.940Z</time>
      </trkpt>
      <trkpt lat="47.511287" lon="8.207539">
        <ele>367.252473</ele>
        <time>2021-11-19T08:30:04.352Z</time>
      </trkpt>
      <trkpt lat="47.511087" lon="8.207326">
        <ele>367.602557</ele>
        <time>2021-11-19T08:30:09.788Z</time>
      </trkpt>
      <trkpt lat="47.510868" lon="8.206975">
        <ele>368.061177</ele>
        <time>2021-11-19T08:30:17.337Z</time>
      </trkpt>
      <trkpt lat="47.510799" lon="8.206834">
        <ele>368.228292</ele>
        <time>2021-11-19T08:30:20.665Z</time>
      </trkpt>
      <trkpt lat="47.510746" lon="8.206745">
        <ele>368.382044</ele>
        <time>2021-11-19T08:30:22.604Z</time>
      </trkpt>
      <trkpt lat="47.510696" lon="8.206660">
        <ele>368.715027</ele>
        <time>2021-11-19T08:30:24.886Z</time>
      </trkpt>
      <trkpt lat="47.510310" lon="8.206228">
        <ele>370.831367</ele>
        <time>2021-11-19T08:30:39.356Z</time>
      </trkpt>
      <trkpt lat="47.510110" lon="8.206036">
        <ele>371.873908</ele>
        <time>2021-11-19T08:30:47.424Z</time>
      </trkpt>
      <trkpt lat="47.509957" lon="8.205884">
        <ele>372.679783</ele>
        <time>2021-11-19T08:30:53.994Z</time>
      </trkpt>
      <trkpt lat="47.509781" lon="8.205702">
        <ele>373.618737</ele>
        <time>2021-11-19T08:31:01.010Z</time>
      </trkpt>
      <trkpt lat="47.509576" lon="8.205502">
        <ele>374.692518</ele>
        <time>2021-11-19T08:31:10.356Z</time>
      </trkpt>
      <trkpt lat="47.509425" lon="8.205362">
        <ele>375.471764</ele>
        <time>2021-11-19T08:31:16.384Z</time>
      </trkpt>
      <trkpt lat="47.509289" lon="8.205248">
        <ele>376.155312</ele>
        <time>2021-11-19T08:31:22.155Z</time>
      </trkpt>
      <trkpt lat="47.509149" lon="8.205132">
        <ele>376.785311</ele>
        <time>2021-11-19T08:31:26.834Z</time>
      </trkpt>
      <trkpt lat="47.509032" lon="8.205060">
        <ele>377.279945</ele>
        <time>2021-11-19T08:31:31.779Z</time>
      </trkpt>
      <trkpt lat="47.509021" lon="8.204884">
        <ele>377.746026</ele>
        <time>2021-11-19T08:31:36.432Z</time>
      </trkpt>
      <trkpt lat="47.508985" lon="8.204741">
        <ele>378.148443</ele>
        <time>2021-11-19T08:31:39.915Z</time>
      </trkpt>
      <trkpt lat="47.508917" lon="8.204543">
        <ele>378.734164</ele>
        <time>2021-11-19T08:31:46.466Z</time>
      </trkpt>
      <trkpt lat="47.508821" lon="8.204282">
        <ele>379.517823</ele>
        <time>2021-11-19T08:31:53.226Z</time>
      </trkpt>
      <trkpt lat="47.508829" lon="8.203955">
        <ele>380.380665</ele>
        <time>2021-11-19T08:32:01.788Z</time>
      </trkpt>
      <trkpt lat="47.508866" lon="8.203850">
        <ele>380.692954</ele>
        <time>2021-11-19T08:32:04.491Z</time>
      </trkpt>
      <trkpt lat="47.509150" lon="8.203272">
        <ele>382.577678</ele>
        <time>2021-11-19T08:32:20.188Z</time>
      </trkpt>
      <trkpt lat="47.509269" lon="8.202990">
        <ele>383.342389</ele>
        <time>2021-11-19T08:32:27.534Z</time>
      </trkpt>
      <trkpt lat="47.509353" lon="8.202637">
        <ele>383.874551</ele>
        <time>2021-11-19T08:32:35.163Z</time>
      </trkpt>
      <trkpt lat="47.509592" lon="8.200917">
        <ele>386.371402</ele>
        <time>2021-11-19T08:33:08.424Z</time>
      </trkpt>
      <trkpt lat="47.509681" lon="8.200064">
        <ele>387.370048</ele>
        <time>2021-11-19T08:33:24.134Z</time>
      </trkpt>
      <trkpt lat="47.509914" lon="8.198214">
        <ele>389.028431</ele>
        <time>2021-11-19T08:33:56.722Z</time>
      </trkpt>
      <trkpt lat="47.509922" lon="8.198171">
        <ele>389.067736</ele>
        <time>2021-11-19T08:33:57.516Z</time>
      </trkpt>
      <trkpt lat="47.510011" lon="8.197478">
        <ele>389.537465</ele>
        <time>2021-11-19T08:34:08.339Z</time>
      </trkpt>
      <trkpt lat="47.510331" lon="8.194861">
        <ele>391.050451</ele>
        <time>2021-11-19T08:34:49.181Z</time>
      </trkpt>
      <trkpt lat="47.510685" lon="8.192072">
        <ele>394.587617</ele>
        <time>2021-11-19T08:35:40.560Z</time>
      </trkpt>
      <trkpt lat="47.510696" lon="8.191960">
        <ele>394.837267</ele>
        <time>2021-11-19T08:35:42.715Z</time>
      </trkpt>
      <trkpt lat="47.510727" lon="8.191889">
        <ele>395.023751</ele>
        <time>2021-11-19T08:35:44.440Z</time>
      </trkpt>
      <trkpt lat="47.510727" lon="8.191889">
        <ele>395.023751</ele>
        <time>2021-11-19T08:35:44.509Z</time>
      </trkpt>
      <trkpt lat="47.511186" lon="8.191753">
        <ele>396.552424</ele>
        <time>2021-11-19T08:35:57.386Z</time>
      </trkpt>
      <trkpt lat="47.511286" lon="8.191684">
        <ele>396.912718</ele>
        <time>2021-11-19T08:36:00.371Z</time>
      </trkpt>
      <trkpt lat="47.511503" lon="8.191538">
        <ele>397.691116</ele>
        <time>2021-11-19T08:36:07.260Z</time>
      </trkpt>
      <trkpt lat="47.511480" lon="8.191489">
        <ele>397.822735</ele>
        <time>2021-11-19T08:36:08.890Z</time>
      </trkpt>
      <trkpt lat="47.511195" lon="8.190842">
        <ele>399.767736</ele>
        <time>2021-11-19T08:36:28.257Z</time>
      </trkpt>
      <trkpt lat="47.511107" lon="8.190519">
        <ele>401.137112</ele>
        <time>2021-11-19T08:36:38.271Z</time>
      </trkpt>
      <trkpt lat="47.511047" lon="8.190214">
        <ele>402.386126</ele>
        <time>2021-11-19T08:36:47.721Z</time>
      </trkpt>
      <trkpt lat="47.510882" lon="8.189435">
        <ele>405.596041</ele>
        <time>2021-11-19T08:37:11.888Z</time>
      </trkpt>
      <trkpt lat="47.510767" lon="8.188976">
        <ele>407.520883</ele>
        <time>2021-11-19T08:37:26.486Z</time>
      </trkpt>
      <trkpt lat="47.510603" lon="8.188275">
        <ele>410.545269</ele>
        <time>2021-11-19T08:37:50.144Z</time>
      </trkpt>
      <trkpt lat="47.510377" lon="8.187197">
        <ele>415.620036</ele>
        <time>2021-11-19T08:38:26.069Z</time>
      </trkpt>
      <trkpt lat="47.510128" lon="8.186327">
        <ele>419.868219</ele>
        <time>2021-11-19T08:38:56.287Z</time>
      </trkpt>
      <trkpt lat="47.510052" lon="8.186096">
        <ele>421.023451</ele>
        <time>2021-11-19T08:39:04.435Z</time>
      </trkpt>
      <trkpt lat="47.509919" lon="8.185768">
        <ele>422.934115</ele>
        <time>2021-11-19T08:39:15.553Z</time>
      </trkpt>
      <trkpt lat="47.509786" lon="8.185474">
        <ele>424.805051</ele>
        <time>2021-11-19T08:39:26.727Z</time>
      </trkpt>
      <trkpt lat="47.509617" lon="8.184928">
        <ele>427.980675</ele>
        <time>2021-11-19T08:39:46.955Z</time>
      </trkpt>
      <trkpt lat="47.509381" lon="8.183901">
        <ele>433.716556</ele>
        <time>2021-11-19T08:40:26.195Z</time>
      </trkpt>
      <trkpt lat="47.509183" lon="8.183139">
        <ele>438.693835</ele>
        <time>2021-11-19T08:40:56.887Z</time>
      </trkpt>
      <trkpt lat="47.508585" lon="8.181852">
        <ele>449.331621</ele>
        <time>2021-11-19T08:42:01.070Z</time>
      </trkpt>
      <trkpt lat="47.508201" lon="8.181335">
        <ele>454.656567</ele>
        <time>2021-11-19T08:42:35.375Z</time>
      </trkpt>
      <trkpt lat="47.507652" lon="8.180805">
        <ele>462.143983</ele>
        <time>2021-11-19T08:43:15.862Z</time>
      </trkpt>
      <trkpt lat="47.507553" lon="8.180721">
        <ele>463.447538</ele>
        <time>2021-11-19T08:43:24.041Z</time>
      </trkpt>
      <trkpt lat="47.507430" lon="8.180615">
        <ele>465.073424</ele>
        <time>2021-11-19T08:43:32.575Z</time>
      </trkpt>
      <trkpt lat="47.506365" lon="8.179981">
        <ele>477.870724</ele>
        <time>2021-11-19T08:44:51.327Z</time>
      </trkpt>
      <trkpt lat="47.506131" lon="8.179709">
        <ele>480.984306</ele>
        <time>2021-11-19T08:45:14.253Z</time>
      </trkpt>
      <trkpt lat="47.505832" lon="8.179262">
        <ele>485.431453</ele>
        <time>2021-11-19T08:45:40.769Z</time>
      </trkpt>
      <trkpt lat="47.505251" lon="8.178301">
        <ele>493.598649</ele>
        <time>2021-11-19T08:46:30.253Z</time>
      </trkpt>
      <trkpt lat="47.504903" lon="8.177799">
        <ele>494.980421</ele>
        <time>2021-11-19T08:46:52.907Z</time>
      </trkpt>
      <trkpt lat="47.504359" lon="8.176727">
        <ele>497.556078</ele>
        <time>2021-11-19T08:47:18.966Z</time>
      </trkpt>
      <trkpt lat="47.503578" lon="8.174407">
        <ele>493.770877</ele>
        <time>2021-11-19T08:47:43.665Z</time>
      </trkpt>
      <trkpt lat="47.503241" lon="8.173095">
        <ele>493.235584</ele>
        <time>2021-11-19T08:47:58.273Z</time>
      </trkpt>
      <trkpt lat="47.503046" lon="8.172726">
        <ele>493.489125</ele>
        <time>2021-11-19T08:48:05.705Z</time>
      </trkpt>
      <trkpt lat="47.502811" lon="8.172326">
        <ele>493.776010</ele>
        <time>2021-11-19T08:48:15.937Z</time>
      </trkpt>
      <trkpt lat="47.502619" lon="8.171809">
        <ele>494.095297</ele>
        <time>2021-11-19T08:48:28.785Z</time>
      </trkpt>
      <trkpt lat="47.502508" lon="8.171201">
        <ele>496.015936</ele>
        <time>2021-11-19T08:48:45.065Z</time>
      </trkpt>
      <trkpt lat="47.502485" lon="8.170923">
        <ele>497.106616</ele>
        <time>2021-11-19T08:48:52.688Z</time>
      </trkpt>
      <trkpt lat="47.502484" lon="8.170679">
        <ele>498.056822</ele>
        <time>2021-11-19T08:49:00.230Z</time>
      </trkpt>
      <trkpt lat="47.502671" lon="8.169362">
        <ele>503.297554</ele>
        <time>2021-11-19T08:49:41.728Z</time>
      </trkpt>
      <trkpt lat="47.502683" lon="8.169092">
        <ele>504.351262</ele>
        <time>2021-11-19T08:49:51.012Z</time>
      </trkpt>
      <trkpt lat="47.502673" lon="8.169021">
        <ele>504.635240</ele>
        <time>2021-11-19T08:49:53.719Z</time>
      </trkpt>
      <trkpt lat="47.502592" lon="8.168598">
        <ele>506.378733</ele>
        <time>2021-11-19T08:50:07.951Z</time>
      </trkpt>
      <trkpt lat="47.502442" lon="8.168297">
        <ele>507.861974</ele>
        <time>2021-11-19T08:50:18.220Z</time>
      </trkpt>
      <trkpt lat="47.502350" lon="8.168167">
        <ele>508.608566</ele>
        <time>2021-11-19T08:50:24.212Z</time>
      </trkpt>
      <trkpt lat="47.502034" lon="8.167757">
        <ele>511.075176</ele>
        <time>2021-11-19T08:50:42.722Z</time>
      </trkpt>
      <trkpt lat="47.500134" lon="8.165378">
        <ele>524.263098</ele>
        <time>2021-11-19T08:52:25.698Z</time>
      </trkpt>
      <trkpt lat="47.499926" lon="8.165012">
        <ele>525.379488</ele>
        <time>2021-11-19T08:52:37.036Z</time>
      </trkpt>
      <trkpt lat="47.499842" lon="8.164848">
        <ele>525.859880</ele>
        <time>2021-11-19T08:52:42.421Z</time>
      </trkpt>
      <trkpt lat="47.499759" lon="8.164579">
        <ele>526.550171</ele>
        <time>2021-11-19T08:52:48.524Z</time>
      </trkpt>
      <trkpt lat="47.499702" lon="8.164369">
        <ele>527.078440</ele>
        <time>2021-11-19T08:52:54.291Z</time>
      </trkpt>
      <trkpt lat="47.499674" lon="8.164221">
        <ele>527.437195</ele>
        <time>2021-11-19T08:52:57.297Z</time>
      </trkpt>
      <trkpt lat="47.499606" lon="8.163585">
        <ele>528.940240</ele>
        <time>2021-11-19T08:53:11.122Z</time>
      </trkpt>
      <trkpt lat="47.499593" lon="8.163439">
        <ele>529.283984</ele>
        <time>2021-11-19T08:53:14.792Z</time>
      </trkpt>
      <trkpt lat="47.499570" lon="8.163256">
        <ele>529.718477</ele>
        <time>2021-11-19T08:53:19.070Z</time>
      </trkpt>
      <trkpt lat="47.499561" lon="8.163178">
        <ele>529.903183</ele>
        <time>2021-11-19T08:53:20.578Z</time>
      </trkpt>
      <trkpt lat="47.499529" lon="8.163016">
        <ele>530.297160</ele>
        <time>2021-11-19T08:53:23.852Z</time>
      </trkpt>
      <trkpt lat="47.499421" lon="8.162591">
        <ele>531.068710</ele>
        <time>2021-11-19T08:53:33.785Z</time>
      </trkpt>
      <trkpt lat="47.499404" lon="8.162533">
        <ele>531.168474</ele>
        <time>2021-11-19T08:53:34.915Z</time>
      </trkpt>
      <trkpt lat="47.499391" lon="8.162488">
        <ele>531.245702</ele>
        <time>2021-11-19T08:53:36.241Z</time>
      </trkpt>
      <trkpt lat="47.499263" lon="8.162040">
        <ele>532.013249</ele>
        <time>2021-11-19T08:53:45.542Z</time>
      </trkpt>
      <trkpt lat="47.499203" lon="8.161843">
        <ele>532.354238</ele>
        <time>2021-11-19T08:53:50.262Z</time>
      </trkpt>
      <trkpt lat="47.499088" lon="8.161438">
        <ele>533.047468</ele>
        <time>2021-11-19T08:53:58.837Z</time>
      </trkpt>
      <trkpt lat="47.498981" lon="8.161060">
        <ele>533.694184</ele>
        <time>2021-11-19T08:54:06.462Z</time>
      </trkpt>
      <trkpt lat="47.498881" lon="8.160699">
        <ele>534.309858</ele>
        <time>2021-11-19T08:54:12.863Z</time>
      </trkpt>
      <trkpt lat="47.498832" lon="8.160548">
        <ele>534.574194</ele>
        <time>2021-11-19T08:54:15.347Z</time>
      </trkpt>
      <trkpt lat="47.498784" lon="8.160412">
        <ele>534.774610</ele>
        <time>2021-11-19T08:54:18.083Z</time>
      </trkpt>
      <trkpt lat="47.498722" lon="8.160237">
        <ele>534.998699</ele>
        <time>2021-11-19T08:54:21.016Z</time>
      </trkpt>
      <trkpt lat="47.498560" lon="8.159790">
        <ele>535.573945</ele>
        <time>2021-11-19T08:54:28.610Z</time>
      </trkpt>
      <trkpt lat="47.498196" lon="8.158878">
        <ele>536.775190</ele>
        <time>2021-11-19T08:54:43.075Z</time>
      </trkpt>
      <trkpt lat="47.497875" lon="8.158014">
        <ele>538.059262</ele>
        <time>2021-11-19T08:54:56.373Z</time>
      </trkpt>
      <trkpt lat="47.497827" lon="8.157898">
        <ele>538.337611</ele>
        <time>2021-11-19T08:54:59.215Z</time>
      </trkpt>
      <trkpt lat="47.497717" lon="8.157596">
        <ele>539.039672</ele>
        <time>2021-11-19T08:55:04.728Z</time>
      </trkpt>
      <trkpt lat="47.497677" lon="8.157483">
        <ele>539.300716</ele>
        <time>2021-11-19T08:55:07.121Z</time>
      </trkpt>
      <trkpt lat="47.497620" lon="8.157313">
        <ele>539.689066</ele>
        <time>2021-11-19T08:55:10.269Z</time>
      </trkpt>
      <trkpt lat="47.497556" lon="8.157098">
        <ele>540.169825</ele>
        <time>2021-11-19T08:55:14.573Z</time>
      </trkpt>
      <trkpt lat="47.497515" lon="8.156974">
        <ele>540.452320</ele>
        <time>2021-11-19T08:55:17.542Z</time>
      </trkpt>
      <trkpt lat="47.497410" lon="8.156510">
        <ele>541.453639</ele>
        <time>2021-11-19T08:55:26.661Z</time>
      </trkpt>
      <trkpt lat="47.497401" lon="8.156439">
        <ele>541.601461</ele>
        <time>2021-11-19T08:55:28.527Z</time>
      </trkpt>
      <trkpt lat="47.497395" lon="8.156369">
        <ele>541.745849</ele>
        <time>2021-11-19T08:55:29.747Z</time>
      </trkpt>
      <trkpt lat="47.497390" lon="8.156282">
        <ele>541.924519</ele>
        <time>2021-11-19T08:55:31.246Z</time>
      </trkpt>
      <trkpt lat="47.497386" lon="8.156131">
        <ele>542.233746</ele>
        <time>2021-11-19T08:55:34.398Z</time>
      </trkpt>
      <trkpt lat="47.497388" lon="8.155994">
        <ele>542.514153</ele>
        <time>2021-11-19T08:55:37.215Z</time>
      </trkpt>
      <trkpt lat="47.497390" lon="8.155891">
        <ele>542.725007</ele>
        <time>2021-11-19T08:55:39.689Z</time>
      </trkpt>
      <trkpt lat="47.497382" lon="8.155739">
        <ele>543.036985</ele>
        <time>2021-11-19T08:55:42.210Z</time>
      </trkpt>
      <trkpt lat="47.497376" lon="8.155653">
        <ele>543.202947</ele>
        <time>2021-11-19T08:55:44.077Z</time>
      </trkpt>
      <trkpt lat="47.497351" lon="8.155541">
        <ele>543.410887</ele>
        <time>2021-11-19T08:55:46.634Z</time>
      </trkpt>
      <trkpt lat="47.497215" lon="8.155097">
        <ele>544.270297</ele>
        <time>2021-11-19T08:55:56.618Z</time>
      </trkpt>
      <trkpt lat="47.497059" lon="8.154725">
        <ele>545.042152</ele>
        <time>2021-11-19T08:56:05.534Z</time>
      </trkpt>
      <trkpt lat="47.497011" lon="8.154633">
        <ele>545.247069</ele>
        <time>2021-11-19T08:56:07.599Z</time>
      </trkpt>
      <trkpt lat="47.496927" lon="8.154519">
        <ele>545.544439</ele>
        <time>2021-11-19T08:56:10.692Z</time>
      </trkpt>
      <trkpt lat="47.496872" lon="8.154444">
        <ele>545.739572</ele>
        <time>2021-11-19T08:56:12.551Z</time>
      </trkpt>
      <trkpt lat="47.496872" lon="8.154444">
        <ele>545.739572</ele>
        <time>2021-11-19T08:56:12.615Z</time>
      </trkpt>
      <trkpt lat="47.496673" lon="8.154171">
        <ele>546.447556</ele>
        <time>2021-11-19T08:56:19.139Z</time>
      </trkpt>
      <trkpt lat="47.496607" lon="8.154090">
        <ele>546.671270</ele>
        <time>2021-11-19T08:56:20.910Z</time>
      </trkpt>
      <trkpt lat="47.496354" lon="8.153743">
        <ele>547.571277</ele>
        <time>2021-11-19T08:56:27.659Z</time>
      </trkpt>
      <trkpt lat="47.496295" lon="8.153600">
        <ele>547.838767</ele>
        <time>2021-11-19T08:56:30.335Z</time>
      </trkpt>
      <trkpt lat="47.496252" lon="8.153481">
        <ele>547.905186</ele>
        <time>2021-11-19T08:56:31.431Z</time>
      </trkpt>
      <trkpt lat="47.496043" lon="8.152517">
        <ele>548.403470</ele>
        <time>2021-11-19T08:56:42.695Z</time>
      </trkpt>
      <trkpt lat="47.496031" lon="8.152401">
        <ele>548.461228</ele>
        <time>2021-11-19T08:56:43.673Z</time>
      </trkpt>
      <trkpt lat="47.496013" lon="8.152224">
        <ele>548.549324</ele>
        <time>2021-11-19T08:56:45.557Z</time>
      </trkpt>
      <trkpt lat="47.495980" lon="8.151500">
        <ele>548.906469</ele>
        <time>2021-11-19T08:56:54.406Z</time>
      </trkpt>
      <trkpt lat="47.495926" lon="8.150795">
        <ele>549.361010</ele>
        <time>2021-11-19T08:57:03.536Z</time>
      </trkpt>
      <trkpt lat="47.495907" lon="8.150548">
        <ele>549.593066</ele>
        <time>2021-11-19T08:57:07.246Z</time>
      </trkpt>
      <trkpt lat="47.495916" lon="8.150228">
        <ele>549.892033</ele>
        <time>2021-11-19T08:57:11.501Z</time>
      </trkpt>
      <trkpt lat="47.496064" lon="8.149222">
        <ele>550.853102</ele>
        <time>2021-11-19T08:57:26.358Z</time>
      </trkpt>
      <trkpt lat="47.496100" lon="8.148965">
        <ele>551.098103</ele>
        <time>2021-11-19T08:57:30.241Z</time>
      </trkpt>
      <trkpt lat="47.496114" lon="8.148836">
        <ele>551.220063</ele>
        <time>2021-11-19T08:57:32.204Z</time>
      </trkpt>
      <trkpt lat="47.496081" lon="8.148674">
        <ele>551.378008</ele>
        <time>2021-11-19T08:57:34.464Z</time>
      </trkpt>
      <trkpt lat="47.496048" lon="8.148514">
        <ele>551.534166</ele>
        <time>2021-11-19T08:57:36.800Z</time>
      </trkpt>
      <trkpt lat="47.495811" lon="8.147525">
        <ele>551.760679</ele>
        <time>2021-11-19T08:57:50.079Z</time>
      </trkpt>
      <trkpt lat="47.495531" lon="8.146431">
        <ele>551.929275</ele>
        <time>2021-11-19T08:58:01.170Z</time>
      </trkpt>
      <trkpt lat="47.495330" lon="8.146238">
        <ele>551.980381</ele>
        <time>2021-11-19T08:58:04.186Z</time>
      </trkpt>
      <trkpt lat="47.495291" lon="8.146216">
        <ele>551.989284</ele>
        <time>2021-11-19T08:58:04.778Z</time>
      </trkpt>
      <trkpt lat="47.495167" lon="8.146162">
        <ele>552.028057</ele>
        <time>2021-11-19T08:58:06.417Z</time>
      </trkpt>
      <trkpt lat="47.494550" lon="8.146113">
        <ele>552.307402</ele>
        <time>2021-11-19T08:58:15.163Z</time>
      </trkpt>
      <trkpt lat="47.494476" lon="8.146116">
        <ele>552.340870</ele>
        <time>2021-11-19T08:58:16.180Z</time>
      </trkpt>
      <trkpt lat="47.494351" lon="8.146113">
        <ele>552.397390</ele>
        <time>2021-11-19T08:58:17.929Z</time>
      </trkpt>
      <trkpt lat="47.492464" lon="8.146635">
        <ele>555.044987</ele>
        <time>2021-11-19T08:58:55.429Z</time>
      </trkpt>
      <trkpt lat="47.492241" lon="8.146624">
        <ele>555.549054</ele>
        <time>2021-11-19T08:59:00.762Z</time>
      </trkpt>
      <trkpt lat="47.492125" lon="8.146571">
        <ele>555.823317</ele>
        <time>2021-11-19T08:59:04.494Z</time>
      </trkpt>
      <trkpt lat="47.492088" lon="8.146482">
        <ele>555.982829</ele>
        <time>2021-11-19T08:59:06.330Z</time>
      </trkpt>
      <trkpt lat="47.492079" lon="8.146009">
        <ele>556.705139</ele>
        <time>2021-11-19T08:59:15.703Z</time>
      </trkpt>
      <trkpt lat="47.492082" lon="8.145838">
        <ele>557.074187</ele>
        <time>2021-11-19T08:59:18.978Z</time>
      </trkpt>
      <trkpt lat="47.492088" lon="8.145254">
        <ele>559.126935</ele>
        <time>2021-11-19T08:59:31.907Z</time>
      </trkpt>
      <trkpt lat="47.492088" lon="8.145158">
        <ele>559.464334</ele>
        <time>2021-11-19T08:59:34.135Z</time>
      </trkpt>
      <trkpt lat="47.492088" lon="8.144557">
        <ele>561.576592</ele>
        <time>2021-11-19T08:59:49.289Z</time>
      </trkpt>
      <trkpt lat="47.492087" lon="8.144186">
        <ele>562.880510</ele>
        <time>2021-11-19T08:59:58.835Z</time>
      </trkpt>
      <trkpt lat="47.492087" lon="8.143971">
        <ele>563.636143</ele>
        <time>2021-11-19T09:00:04.314Z</time>
      </trkpt>
      <trkpt lat="47.492053" lon="8.143800">
        <ele>564.262615</ele>
        <time>2021-11-19T09:00:08.400Z</time>
      </trkpt>
      <trkpt lat="47.492011" lon="8.143597">
        <ele>565.008771</ele>
        <time>2021-11-19T09:00:14.172Z</time>
      </trkpt>
      <trkpt lat="47.491965" lon="8.143321">
        <ele>566.007868</ele>
        <time>2021-11-19T09:00:20.907Z</time>
      </trkpt>
      <trkpt lat="47.491953" lon="8.143034">
        <ele>566.947899</ele>
        <time>2021-11-19T09:00:28.321Z</time>
      </trkpt>
      <trkpt lat="47.491957" lon="8.142795">
        <ele>567.712065</ele>
        <time>2021-11-19T09:00:35.232Z</time>
      </trkpt>
      <trkpt lat="47.491977" lon="8.142556">
        <ele>568.481832</ele>
        <time>2021-11-19T09:00:41.243Z</time>
      </trkpt>
      <trkpt lat="47.492031" lon="8.142263">
        <ele>569.452578</ele>
        <time>2021-11-19T09:00:49.296Z</time>
      </trkpt>
      <trkpt lat="47.492091" lon="8.142144">
        <ele>569.927170</ele>
        <time>2021-11-19T09:00:52.816Z</time>
      </trkpt>
      <trkpt lat="47.492178" lon="8.141991">
        <ele>570.566340</ele>
        <time>2021-11-19T09:00:57.770Z</time>
      </trkpt>
      <trkpt lat="47.492604" lon="8.141229">
        <ele>573.727538</ele>
        <time>2021-11-19T09:01:19.897Z</time>
      </trkpt>
      <trkpt lat="47.492634" lon="8.141132">
        <ele>574.068517</ele>
        <time>2021-11-19T09:01:22.329Z</time>
      </trkpt>
      <trkpt lat="47.492651" lon="8.141002">
        <ele>574.491750</ele>
        <time>2021-11-19T09:01:25.420Z</time>
      </trkpt>
      <trkpt lat="47.492379" lon="8.138603">
        <ele>576.880668</ele>
        <time>2021-11-19T09:01:59.117Z</time>
      </trkpt>
      <trkpt lat="47.492359" lon="8.138479">
        <ele>576.996269</ele>
        <time>2021-11-19T09:02:00.151Z</time>
      </trkpt>
      <trkpt lat="47.492313" lon="8.138377">
        <ele>577.107472</ele>
        <time>2021-11-19T09:02:01.245Z</time>
      </trkpt>
      <trkpt lat="47.492211" lon="8.138284">
        <ele>577.097856</ele>
        <time>2021-11-19T09:02:02.786Z</time>
      </trkpt>
      <trkpt lat="47.492088" lon="8.138269">
        <ele>576.999803</ele>
        <time>2021-11-19T09:02:04.274Z</time>
      </trkpt>
      <trkpt lat="47.491600" lon="8.138244">
        <ele>576.611864</ele>
        <time>2021-11-19T09:02:10.167Z</time>
      </trkpt>
      <trkpt lat="47.491438" lon="8.138230">
        <ele>576.482939</ele>
        <time>2021-11-19T09:02:12.117Z</time>
      </trkpt>
      <trkpt lat="47.490906" lon="8.138091">
        <ele>576.053739</ele>
        <time>2021-11-19T09:02:18.402Z</time>
      </trkpt>
      <trkpt lat="47.490479" lon="8.137973">
        <ele>575.748151</ele>
        <time>2021-11-19T09:02:23.833Z</time>
      </trkpt>
      <trkpt lat="47.490265" lon="8.137935">
        <ele>575.863677</ele>
        <time>2021-11-19T09:02:26.815Z</time>
      </trkpt>
      <trkpt lat="47.489423" lon="8.137655">
        <ele>576.326240</ele>
        <time>2021-11-19T09:02:41.197Z</time>
      </trkpt>
      <trkpt lat="47.488954" lon="8.137431">
        <ele>576.590390</ele>
        <time>2021-11-19T09:02:50.597Z</time>
      </trkpt>
      <trkpt lat="47.488837" lon="8.137371">
        <ele>576.656760</ele>
        <time>2021-11-19T09:02:53.026Z</time>
      </trkpt>
      <trkpt lat="47.488649" lon="8.137254">
        <ele>576.880364</ele>
        <time>2021-11-19T09:02:57.409Z</time>
      </trkpt>
      <trkpt lat="47.488465" lon="8.137151">
        <ele>577.158510</ele>
        <time>2021-11-19T09:03:01.522Z</time>
      </trkpt>
      <trkpt lat="47.488213" lon="8.137151">
        <ele>577.514810</ele>
        <time>2021-11-19T09:03:06.930Z</time>
      </trkpt>
      <trkpt lat="47.487735" lon="8.137374">
        <ele>578.223438</ele>
        <time>2021-11-19T09:03:18.119Z</time>
      </trkpt>
      <trkpt lat="47.487220" lon="8.137494">
        <ele>578.960562</ele>
        <time>2021-11-19T09:03:29.104Z</time>
      </trkpt>
      <trkpt lat="47.487129" lon="8.137532">
        <ele>579.094250</ele>
        <time>2021-11-19T09:03:30.860Z</time>
      </trkpt>
      <trkpt lat="47.486647" lon="8.137734">
        <ele>579.450534</ele>
        <time>2021-11-19T09:03:38.965Z</time>
      </trkpt>
      <trkpt lat="47.486625" lon="8.137748">
        <ele>579.463230</ele>
        <time>2021-11-19T09:03:39.738Z</time>
      </trkpt>
      <trkpt lat="47.486500" lon="8.137887">
        <ele>579.546119</ele>
        <time>2021-11-19T09:03:42.418Z</time>
      </trkpt>
      <trkpt lat="47.486480" lon="8.137926">
        <ele>579.563658</ele>
        <time>2021-11-19T09:03:43.704Z</time>
      </trkpt>
      <trkpt lat="47.486385" lon="8.138090">
        <ele>579.641041</ele>
        <time>2021-11-19T09:03:48.956Z</time>
      </trkpt>
      <trkpt lat="47.486244" lon="8.138406">
        <ele>579.776696</ele>
        <time>2021-11-19T09:03:59.143Z</time>
      </trkpt>
      <trkpt lat="47.486150" lon="8.138614">
        <ele>579.866337</ele>
        <time>2021-11-19T09:04:05.756Z</time>
      </trkpt>
      <trkpt lat="47.485914" lon="8.138973">
        <ele>580.045761</ele>
        <time>2021-11-19T09:04:18.913Z</time>
      </trkpt>
      <trkpt lat="47.485769" lon="8.139093">
        <ele>580.133833</ele>
        <time>2021-11-19T09:04:25.411Z</time>
      </trkpt>
      <trkpt lat="47.485679" lon="8.139129">
        <ele>580.183257</ele>
        <time>2021-11-19T09:04:28.568Z</time>
      </trkpt>
      <trkpt lat="47.485614" lon="8.139130">
        <ele>580.171756</ele>
        <time>2021-11-19T09:04:29.888Z</time>
      </trkpt>
      <trkpt lat="47.485087" lon="8.139024">
        <ele>579.931831</ele>
        <time>2021-11-19T09:04:38.595Z</time>
      </trkpt>
      <trkpt lat="47.484611" lon="8.138600">
        <ele>579.681197</ele>
        <time>2021-11-19T09:04:47.538Z</time>
      </trkpt>
      <trkpt lat="47.484101" lon="8.138667">
        <ele>579.450223</ele>
        <time>2021-11-19T09:04:53.684Z</time>
      </trkpt>
      <trkpt lat="47.483932" lon="8.138672">
        <ele>579.331919</ele>
        <time>2021-11-19T09:04:55.553Z</time>
      </trkpt>
      <trkpt lat="47.483799" lon="8.138672">
        <ele>578.936421</ele>
        <time>2021-11-19T09:04:57.127Z</time>
      </trkpt>
      <trkpt lat="47.483055" lon="8.138704">
        <ele>576.723077</ele>
        <time>2021-11-19T09:05:04.626Z</time>
      </trkpt>
      <trkpt lat="47.482993" lon="8.138736">
        <ele>576.527816</ele>
        <time>2021-11-19T09:05:05.364Z</time>
      </trkpt>
      <trkpt lat="47.482938" lon="8.138763">
        <ele>576.355498</ele>
        <time>2021-11-19T09:05:05.860Z</time>
      </trkpt>
      <trkpt lat="47.482382" lon="8.139311">
        <ele>574.368936</ele>
        <time>2021-11-19T09:05:13.072Z</time>
      </trkpt>
      <trkpt lat="47.482314" lon="8.139339">
        <ele>574.159044</ele>
        <time>2021-11-19T09:05:13.678Z</time>
      </trkpt>
      <trkpt lat="47.482269" lon="8.139354">
        <ele>574.026113</ele>
        <time>2021-11-19T09:05:14.141Z</time>
      </trkpt>
      <trkpt lat="47.481930" lon="8.139364">
        <ele>573.404720</ele>
        <time>2021-11-19T09:05:17.565Z</time>
      </trkpt>
      <trkpt lat="47.481795" lon="8.139350">
        <ele>573.156705</ele>
        <time>2021-11-19T09:05:18.974Z</time>
      </trkpt>
      <trkpt lat="47.481570" lon="8.139330">
        <ele>572.743614</ele>
        <time>2021-11-19T09:05:21.230Z</time>
      </trkpt>
      <trkpt lat="47.481334" lon="8.139233">
        <ele>572.294732</ele>
        <time>2021-11-19T09:05:24.673Z</time>
      </trkpt>
      <trkpt lat="47.481211" lon="8.139188">
        <ele>572.062527</ele>
        <time>2021-11-19T09:05:25.930Z</time>
      </trkpt>
      <trkpt lat="47.481047" lon="8.139151">
        <ele>571.758498</ele>
        <time>2021-11-19T09:05:28.198Z</time>
      </trkpt>
      <trkpt lat="47.480997" lon="8.139156">
        <ele>571.666657</ele>
        <time>2021-11-19T09:05:29.513Z</time>
      </trkpt>
      <trkpt lat="47.480931" lon="8.138738">
        <ele>571.134992</ele>
        <time>2021-11-19T09:05:32.632Z</time>
      </trkpt>
      <trkpt lat="47.480926" lon="8.138706">
        <ele>571.094312</ele>
        <time>2021-11-19T09:05:33.868Z</time>
      </trkpt>
      <trkpt lat="47.480849" lon="8.138227">
        <ele>570.323173</ele>
        <time>2021-11-19T09:05:38.510Z</time>
      </trkpt>
      <trkpt lat="47.480729" lon="8.137479">
        <ele>568.761803</ele>
        <time>2021-11-19T09:05:45.708Z</time>
      </trkpt>
      <trkpt lat="47.480611" lon="8.136738">
        <ele>567.215648</ele>
        <time>2021-11-19T09:05:50.783Z</time>
      </trkpt>
      <trkpt lat="47.480497" lon="8.136071">
        <ele>565.818347</ele>
        <time>2021-11-19T09:05:55.273Z</time>
      </trkpt>
      <trkpt lat="47.480445" lon="8.135745">
        <ele>564.922211</ele>
        <time>2021-11-19T09:05:57.346Z</time>
      </trkpt>
      <trkpt lat="47.480428" lon="8.135495">
        <ele>563.842572</ele>
        <time>2021-11-19T09:05:58.944Z</time>
      </trkpt>
      <trkpt lat="47.480431" lon="8.135333">
        <ele>563.146220</ele>
        <time>2021-11-19T09:05:59.896Z</time>
      </trkpt>
      <trkpt lat="47.480460" lon="8.135036">
        <ele>561.856802</ele>
        <time>2021-11-19T09:06:01.814Z</time>
      </trkpt>
      <trkpt lat="47.480608" lon="8.134090">
        <ele>557.684493</ele>
        <time>2021-11-19T09:06:07.717Z</time>
      </trkpt>
      <trkpt lat="47.480724" lon="8.133367">
        <ele>554.491536</ele>
        <time>2021-11-19T09:06:12.239Z</time>
      </trkpt>
      <trkpt lat="47.480899" lon="8.132641">
        <ele>551.778199</ele>
        <time>2021-11-19T09:06:16.951Z</time>
      </trkpt>
      <trkpt lat="47.481323" lon="8.131382">
        <ele>547.065990</ele>
        <time>2021-11-19T09:06:25.937Z</time>
      </trkpt>
      <trkpt lat="47.481421" lon="8.131045">
        <ele>545.836992</ele>
        <time>2021-11-19T09:06:28.410Z</time>
      </trkpt>
      <trkpt lat="47.481509" lon="8.130687">
        <ele>544.723433</ele>
        <time>2021-11-19T09:06:31.149Z</time>
      </trkpt>
      <trkpt lat="47.481589" lon="8.129851">
        <ele>542.990211</ele>
        <time>2021-11-19T09:06:36.904Z</time>
      </trkpt>
      <trkpt lat="47.481607" lon="8.129456">
        <ele>542.177533</ele>
        <time>2021-11-19T09:06:39.547Z</time>
      </trkpt>
      <trkpt lat="47.481655" lon="8.128429">
        <ele>540.064321</ele>
        <time>2021-11-19T09:06:46.624Z</time>
      </trkpt>
      <trkpt lat="47.481690" lon="8.127694">
        <ele>539.164320</ele>
        <time>2021-11-19T09:06:52.117Z</time>
      </trkpt>
      <trkpt lat="47.481722" lon="8.127177">
        <ele>538.774548</ele>
        <time>2021-11-19T09:06:56.202Z</time>
      </trkpt>
      <trkpt lat="47.481779" lon="8.126701">
        <ele>538.411615</ele>
        <time>2021-11-19T09:07:00.467Z</time>
      </trkpt>
      <trkpt lat="47.481879" lon="8.126325">
        <ele>538.108255</ele>
        <time>2021-11-19T09:07:03.872Z</time>
      </trkpt>
      <trkpt lat="47.481997" lon="8.125997">
        <ele>537.829287</ele>
        <time>2021-11-19T09:07:06.641Z</time>
      </trkpt>
      <trkpt lat="47.482507" lon="8.124964">
        <ele>537.577750</ele>
        <time>2021-11-19T09:07:20.139Z</time>
      </trkpt>
      <trkpt lat="47.482747" lon="8.124448">
        <ele>537.619917</ele>
        <time>2021-11-19T09:07:27.209Z</time>
      </trkpt>
      <trkpt lat="47.482968" lon="8.123897">
        <ele>537.663048</ele>
        <time>2021-11-19T09:07:34.215Z</time>
      </trkpt>
      <trkpt lat="47.483204" lon="8.123277">
        <ele>537.709399</ele>
        <time>2021-11-19T09:07:40.974Z</time>
      </trkpt>
      <trkpt lat="47.483395" lon="8.122774">
        <ele>537.743370</ele>
        <time>2021-11-19T09:07:46.682Z</time>
      </trkpt>
      <trkpt lat="47.483715" lon="8.122061">
        <ele>537.793766</ele>
        <time>2021-11-19T09:07:55.061Z</time>
      </trkpt>
      <trkpt lat="47.483747" lon="8.122015">
        <ele>537.797653</ele>
        <time>2021-11-19T09:07:55.529Z</time>
      </trkpt>
      <trkpt lat="47.483830" lon="8.121913">
        <ele>537.807053</ele>
        <time>2021-11-19T09:07:57.730Z</time>
      </trkpt>
      <trkpt lat="47.483946" lon="8.121799">
        <ele>537.819186</ele>
        <time>2021-11-19T09:08:00.423Z</time>
      </trkpt>
      <trkpt lat="47.484027" lon="8.121739">
        <ele>537.827078</ele>
        <time>2021-11-19T09:08:01.619Z</time>
      </trkpt>
      <trkpt lat="47.484058" lon="8.121717">
        <ele>537.830073</ele>
        <time>2021-11-19T09:08:02.015Z</time>
      </trkpt>
      <trkpt lat="47.484367" lon="8.121479">
        <ele>537.838434</ele>
        <time>2021-11-19T09:08:07.603Z</time>
      </trkpt>
      <trkpt lat="47.484520" lon="8.121330">
        <ele>537.786112</ele>
        <time>2021-11-19T09:08:11.173Z</time>
      </trkpt>
      <trkpt lat="47.484688" lon="8.121120">
        <ele>537.723290</ele>
        <time>2021-11-19T09:08:14.448Z</time>
      </trkpt>
      <trkpt lat="47.484812" lon="8.120917">
        <ele>537.670466</ele>
        <time>2021-11-19T09:08:17.952Z</time>
      </trkpt>
      <trkpt lat="47.484889" lon="8.120748">
        <ele>537.631119</ele>
        <time>2021-11-19T09:08:19.619Z</time>
      </trkpt>
      <trkpt lat="47.485011" lon="8.120456">
        <ele>537.564847</ele>
        <time>2021-11-19T09:08:23.781Z</time>
      </trkpt>
      <trkpt lat="47.485363" lon="8.119586">
        <ele>537.369100</ele>
        <time>2021-11-19T09:08:33.266Z</time>
      </trkpt>
      <trkpt lat="47.485564" lon="8.119205">
        <ele>535.977734</ele>
        <time>2021-11-19T09:08:37.147Z</time>
      </trkpt>
      <trkpt lat="47.486268" lon="8.118191">
        <ele>530.151818</ele>
        <time>2021-11-19T09:08:46.416Z</time>
      </trkpt>
      <trkpt lat="47.486571" lon="8.117656">
        <ele>527.354478</ele>
        <time>2021-11-19T09:08:50.539Z</time>
      </trkpt>
      <trkpt lat="47.486845" lon="8.117095">
        <ele>522.432610</ele>
        <time>2021-11-19T09:08:54.509Z</time>
      </trkpt>
      <trkpt lat="47.487583" lon="8.115667">
        <ele>507.840794</ele>
        <time>2021-11-19T09:09:04.739Z</time>
      </trkpt>
      <trkpt lat="47.487657" lon="8.115463">
        <ele>505.961510</ele>
        <time>2021-11-19T09:09:06.046Z</time>
      </trkpt>
      <trkpt lat="47.487880" lon="8.114431">
        <ele>497.710692</ele>
        <time>2021-11-19T09:09:12.234Z</time>
      </trkpt>
      <trkpt lat="47.487946" lon="8.113698">
        <ele>492.121271</ele>
        <time>2021-11-19T09:09:16.500Z</time>
      </trkpt>
      <trkpt lat="47.487928" lon="8.112601">
        <ele>483.942606</ele>
        <time>2021-11-19T09:09:22.872Z</time>
      </trkpt>
      <trkpt lat="47.487873" lon="8.112054">
        <ele>480.191798</ele>
        <time>2021-11-19T09:09:26.089Z</time>
      </trkpt>
      <trkpt lat="47.487816" lon="8.111427">
        <ele>475.900930</ele>
        <time>2021-11-19T09:09:29.764Z</time>
      </trkpt>
      <trkpt lat="47.487784" lon="8.111079">
        <ele>473.518905</ele>
        <time>2021-11-19T09:09:31.806Z</time>
      </trkpt>
      <trkpt lat="47.487750" lon="8.110724">
        <ele>471.087090</ele>
        <time>2021-11-19T09:09:33.893Z</time>
      </trkpt>
      <trkpt lat="47.487704" lon="8.110209">
        <ele>467.563771</ele>
        <time>2021-11-19T09:09:36.914Z</time>
      </trkpt>
      <trkpt lat="47.487592" lon="8.108945">
        <ele>459.971498</ele>
        <time>2021-11-19T09:09:44.352Z</time>
      </trkpt>
      <trkpt lat="47.487522" lon="8.108181">
        <ele>455.432855</ele>
        <time>2021-11-19T09:09:48.922Z</time>
      </trkpt>
      <trkpt lat="47.487488" lon="8.107690">
        <ele>452.527313</ele>
        <time>2021-11-19T09:09:51.886Z</time>
      </trkpt>
      <trkpt lat="47.487493" lon="8.107281">
        <ele>450.615248</ele>
        <time>2021-11-19T09:09:54.364Z</time>
      </trkpt>
      <trkpt lat="47.487526" lon="8.106968">
        <ele>449.582597</ele>
        <time>2021-11-19T09:09:56.274Z</time>
      </trkpt>
      <trkpt lat="47.487723" lon="8.106230">
        <ele>446.995995</ele>
        <time>2021-11-19T09:10:01.180Z</time>
      </trkpt>
      <trkpt lat="47.488025" lon="8.105557">
        <ele>444.362531</ele>
        <time>2021-11-19T09:10:06.353Z</time>
      </trkpt>
      <trkpt lat="47.488623" lon="8.104263">
        <ele>440.934494</ele>
        <time>2021-11-19T09:10:19.551Z</time>
      </trkpt>
      <trkpt lat="47.488766" lon="8.103832">
        <ele>440.166706</ele>
        <time>2021-11-19T09:10:22.722Z</time>
      </trkpt>
      <trkpt lat="47.488863" lon="8.103453">
        <ele>439.518651</ele>
        <time>2021-11-19T09:10:26.214Z</time>
      </trkpt>
      <trkpt lat="47.488961" lon="8.102990">
        <ele>438.742820</ele>
        <time>2021-11-19T09:10:29.454Z</time>
      </trkpt>
      <trkpt lat="47.489160" lon="8.101908">
        <ele>435.357825</ele>
        <time>2021-11-19T09:10:37.183Z</time>
      </trkpt>
      <trkpt lat="47.489218" lon="8.101622">
        <ele>434.316575</ele>
        <time>2021-11-19T09:10:39.072Z</time>
      </trkpt>
      <trkpt lat="47.489406" lon="8.100900">
        <ele>431.618454</ele>
        <time>2021-11-19T09:10:43.703Z</time>
      </trkpt>
      <trkpt lat="47.489497" lon="8.100620">
        <ele>430.535016</ele>
        <time>2021-11-19T09:10:45.592Z</time>
      </trkpt>
      <trkpt lat="47.489550" lon="8.100488">
        <ele>429.999597</ele>
        <time>2021-11-19T09:10:46.548Z</time>
      </trkpt>
      <trkpt lat="47.489698" lon="8.100128">
        <ele>428.719011</ele>
        <time>2021-11-19T09:10:49.219Z</time>
      </trkpt>
      <trkpt lat="47.489912" lon="8.099621">
        <ele>427.444562</ele>
        <time>2021-11-19T09:10:53.255Z</time>
      </trkpt>
      <trkpt lat="47.489995" lon="8.099422">
        <ele>426.945993</ele>
        <time>2021-11-19T09:10:54.868Z</time>
      </trkpt>
      <trkpt lat="47.490321" lon="8.098647">
        <ele>424.999750</ele>
        <time>2021-11-19T09:11:01.267Z</time>
      </trkpt>
      <trkpt lat="47.490966" lon="8.097142">
        <ele>422.217241</ele>
        <time>2021-11-19T09:11:14.560Z</time>
      </trkpt>
      <trkpt lat="47.491186" lon="8.096629">
        <ele>421.537193</ele>
        <time>2021-11-19T09:11:19.305Z</time>
      </trkpt>
      <trkpt lat="47.491531" lon="8.095826">
        <ele>420.472154</ele>
        <time>2021-11-19T09:11:26.804Z</time>
      </trkpt>
      <trkpt lat="47.492222" lon="8.094030">
        <ele>418.087110</ele>
        <time>2021-11-19T09:11:42.781Z</time>
      </trkpt>
      <trkpt lat="47.492561" lon="8.093030">
        <ele>416.687016</ele>
        <time>2021-11-19T09:11:50.958Z</time>
      </trkpt>
      <trkpt lat="47.492785" lon="8.092387">
        <ele>415.668772</ele>
        <time>2021-11-19T09:11:56.305Z</time>
      </trkpt>
      <trkpt lat="47.492908" lon="8.092021">
        <ele>415.093419</ele>
        <time>2021-11-19T09:11:59.254Z</time>
      </trkpt>
      <trkpt lat="47.492943" lon="8.091916">
        <ele>414.928625</ele>
        <time>2021-11-19T09:12:00.147Z</time>
      </trkpt>
      <trkpt lat="47.493004" lon="8.091715">
        <ele>414.618488</ele>
        <time>2021-11-19T09:12:01.869Z</time>
      </trkpt>
      <trkpt lat="47.493013" lon="8.091685">
        <ele>414.572288</ele>
        <time>2021-11-19T09:12:02.109Z</time>
      </trkpt>
      <trkpt lat="47.493111" lon="8.091365">
        <ele>414.077780</ele>
        <time>2021-11-19T09:12:04.633Z</time>
      </trkpt>
      <trkpt lat="47.493176" lon="8.091152">
        <ele>413.748822</ele>
        <time>2021-11-19T09:12:06.369Z</time>
      </trkpt>
      <trkpt lat="47.493199" lon="8.091055">
        <ele>413.604131</ele>
        <time>2021-11-19T09:12:07.066Z</time>
      </trkpt>
      <trkpt lat="47.493278" lon="8.090706">
        <ele>413.201882</ele>
        <time>2021-11-19T09:12:09.894Z</time>
      </trkpt>
      <trkpt lat="47.493318" lon="8.090521">
        <ele>412.998436</ele>
        <time>2021-11-19T09:12:11.227Z</time>
      </trkpt>
      <trkpt lat="47.493362" lon="8.090313">
        <ele>412.770153</ele>
        <time>2021-11-19T09:12:13.011Z</time>
      </trkpt>
      <trkpt lat="47.493381" lon="8.090217">
        <ele>412.665379</ele>
        <time>2021-11-19T09:12:13.782Z</time>
      </trkpt>
      <trkpt lat="47.493453" lon="8.089837">
        <ele>412.252021</ele>
        <time>2021-11-19T09:12:16.714Z</time>
      </trkpt>
      <trkpt lat="47.493523" lon="8.089470">
        <ele>411.852609</ele>
        <time>2021-11-19T09:12:19.669Z</time>
      </trkpt>
      <trkpt lat="47.493532" lon="8.089427">
        <ele>411.805461</ele>
        <time>2021-11-19T09:12:20.048Z</time>
      </trkpt>
      <trkpt lat="47.493802" lon="8.088286">
        <ele>410.543053</ele>
        <time>2021-11-19T09:12:30.031Z</time>
      </trkpt>
      <trkpt lat="47.493891" lon="8.087911">
        <ele>410.134290</ele>
        <time>2021-11-19T09:12:33.128Z</time>
      </trkpt>
      <trkpt lat="47.494042" lon="8.087271">
        <ele>409.437120</ele>
        <time>2021-11-19T09:12:38.430Z</time>
      </trkpt>
      <trkpt lat="47.494237" lon="8.086449">
        <ele>408.541162</ele>
        <time>2021-11-19T09:12:45.083Z</time>
      </trkpt>
      <trkpt lat="47.494445" lon="8.085612">
        <ele>407.499580</ele>
        <time>2021-11-19T09:12:51.910Z</time>
      </trkpt>
      <trkpt lat="47.494640" lon="8.084828">
        <ele>406.365509</ele>
        <time>2021-11-19T09:12:58.235Z</time>
      </trkpt>
      <trkpt lat="47.494652" lon="8.084779">
        <ele>406.294759</ele>
        <time>2021-11-19T09:12:58.624Z</time>
      </trkpt>
      <trkpt lat="47.494666" lon="8.084717">
        <ele>406.206021</ele>
        <time>2021-11-19T09:12:59.095Z</time>
      </trkpt>
      <trkpt lat="47.494749" lon="8.084368">
        <ele>405.703777</ele>
        <time>2021-11-19T09:13:01.795Z</time>
      </trkpt>
      <trkpt lat="47.494822" lon="8.084015">
        <ele>405.202652</ele>
        <time>2021-11-19T09:13:04.430Z</time>
      </trkpt>
      <trkpt lat="47.494898" lon="8.083514">
        <ele>404.505637</ele>
        <time>2021-11-19T09:13:08.111Z</time>
      </trkpt>
      <trkpt lat="47.494933" lon="8.083243">
        <ele>404.217411</ele>
        <time>2021-11-19T09:13:10.151Z</time>
      </trkpt>
      <trkpt lat="47.494963" lon="8.083009">
        <ele>403.998174</ele>
        <time>2021-11-19T09:13:11.868Z</time>
      </trkpt>
      <trkpt lat="47.494982" lon="8.082826">
        <ele>403.827747</ele>
        <time>2021-11-19T09:13:13.267Z</time>
      </trkpt>
      <trkpt lat="47.495018" lon="8.082502">
        <ele>403.525504</ele>
        <time>2021-11-19T09:13:15.782Z</time>
      </trkpt>
      <trkpt lat="47.495034" lon="8.082354">
        <ele>403.387539</ele>
        <time>2021-11-19T09:13:16.972Z</time>
      </trkpt>
      <trkpt lat="47.495088" lon="8.082021">
        <ele>403.072313</ele>
        <time>2021-11-19T09:13:19.688Z</time>
      </trkpt>
      <trkpt lat="47.495132" lon="8.081754">
        <ele>402.819339</ele>
        <time>2021-11-19T09:13:21.949Z</time>
      </trkpt>
      <trkpt lat="47.495162" lon="8.081632">
        <ele>402.699833</ele>
        <time>2021-11-19T09:13:22.997Z</time>
      </trkpt>
      <trkpt lat="47.495207" lon="8.081445">
        <ele>402.517111</ele>
        <time>2021-11-19T09:13:24.570Z</time>
      </trkpt>
      <trkpt lat="47.495281" lon="8.081177">
        <ele>402.250617</ele>
        <time>2021-11-19T09:13:27.094Z</time>
      </trkpt>
      <trkpt lat="47.495292" lon="8.081144">
        <ele>402.216745</ele>
        <time>2021-11-19T09:13:27.380Z</time>
      </trkpt>
      <trkpt lat="47.495384" lon="8.080873">
        <ele>401.945258</ele>
        <time>2021-11-19T09:13:29.930Z</time>
      </trkpt>
      <trkpt lat="47.495515" lon="8.080558">
        <ele>401.837597</ele>
        <time>2021-11-19T09:13:33.330Z</time>
      </trkpt>
      <trkpt lat="47.495562" lon="8.080466">
        <ele>401.804026</ele>
        <time>2021-11-19T09:13:34.422Z</time>
      </trkpt>
      <trkpt lat="47.495681" lon="8.080229">
        <ele>401.718080</ele>
        <time>2021-11-19T09:13:37.292Z</time>
      </trkpt>
      <trkpt lat="47.495859" lon="8.079943">
        <ele>401.604901</ele>
        <time>2021-11-19T09:13:41.128Z</time>
      </trkpt>
      <trkpt lat="47.496040" lon="8.079701">
        <ele>401.499823</ele>
        <time>2021-11-19T09:13:44.345Z</time>
      </trkpt>
      <trkpt lat="47.496380" lon="8.079285">
        <ele>401.309786</ele>
        <time>2021-11-19T09:13:50.368Z</time>
      </trkpt>
      <trkpt lat="47.496446" lon="8.079280">
        <ele>401.281317</ele>
        <time>2021-11-19T09:13:51.528Z</time>
      </trkpt>
      <trkpt lat="47.496793" lon="8.078891">
        <ele>400.967896</ele>
        <time>2021-11-19T09:13:59.551Z</time>
      </trkpt>
      <trkpt lat="47.497038" lon="8.078610">
        <ele>400.624697</ele>
        <time>2021-11-19T09:14:05.062Z</time>
      </trkpt>
      <trkpt lat="47.497125" lon="8.078508">
        <ele>400.501804</ele>
        <time>2021-11-19T09:14:06.914Z</time>
      </trkpt>
      <trkpt lat="47.497112" lon="8.078490">
        <ele>400.482093</ele>
        <time>2021-11-19T09:14:07.168Z</time>
      </trkpt>
      <trkpt lat="47.497084" lon="8.078448">
        <ele>400.437951</ele>
        <time>2021-11-19T09:14:07.782Z</time>
      </trkpt>
      <trkpt lat="47.497208" lon="8.078293">
        <ele>400.258236</ele>
        <time>2021-11-19T09:14:09.938Z</time>
      </trkpt>
      <trkpt lat="47.497325" lon="8.078131">
        <ele>400.080835</ele>
        <time>2021-11-19T09:14:11.757Z</time>
      </trkpt>
      <trkpt lat="47.497745" lon="8.077494">
        <ele>399.414978</ele>
        <time>2021-11-19T09:14:18.799Z</time>
      </trkpt>
      <trkpt lat="47.498061" lon="8.076857">
        <ele>399.047200</ele>
        <time>2021-11-19T09:14:24.698Z</time>
      </trkpt>
      <trkpt lat="47.498775" lon="8.075058">
        <ele>398.458825</ele>
        <time>2021-11-19T09:14:44.428Z</time>
      </trkpt>
      <trkpt lat="47.498880" lon="8.074711">
        <ele>398.546659</ele>
        <time>2021-11-19T09:14:49.018Z</time>
      </trkpt>
      <trkpt lat="47.498924" lon="8.074527">
        <ele>398.625782</ele>
        <time>2021-11-19T09:14:51.856Z</time>
      </trkpt>
      <trkpt lat="47.498960" lon="8.074378">
        <ele>398.689928</ele>
        <time>2021-11-19T09:14:53.927Z</time>
      </trkpt>
      <trkpt lat="47.499013" lon="8.074135">
        <ele>398.793440</ele>
        <time>2021-11-19T09:14:56.893Z</time>
      </trkpt>
      <trkpt lat="47.499051" lon="8.073942">
        <ele>398.874931</ele>
        <time>2021-11-19T09:15:00.032Z</time>
      </trkpt>
      <trkpt lat="47.499138" lon="8.073263">
        <ele>399.155085</ele>
        <time>2021-11-19T09:15:08.881Z</time>
      </trkpt>
      <trkpt lat="47.499170" lon="8.072504">
        <ele>399.463360</ele>
        <time>2021-11-19T09:15:19.169Z</time>
      </trkpt>
      <trkpt lat="47.499016" lon="8.069840">
        <ele>396.515923</ele>
        <time>2021-11-19T09:15:39.644Z</time>
      </trkpt>
      <trkpt lat="47.499026" lon="8.069468">
        <ele>395.637455</ele>
        <time>2021-11-19T09:15:42.075Z</time>
      </trkpt>
      <trkpt lat="47.499075" lon="8.068991">
        <ele>394.271764</ele>
        <time>2021-11-19T09:15:45.265Z</time>
      </trkpt>
      <trkpt lat="47.499075" lon="8.068991">
        <ele>394.271764</ele>
        <time>2021-11-19T09:15:45.277Z</time>
      </trkpt>
      <trkpt lat="47.499104" lon="8.068766">
        <ele>393.623405</ele>
        <time>2021-11-19T09:15:46.732Z</time>
      </trkpt>
      <trkpt lat="47.499148" lon="8.068524">
        <ele>392.914041</ele>
        <time>2021-11-19T09:15:48.570Z</time>
      </trkpt>
      <trkpt lat="47.499201" lon="8.068229">
        <ele>392.050010</ele>
        <time>2021-11-19T09:15:50.417Z</time>
      </trkpt>
      <trkpt lat="47.499519" lon="8.066520">
        <ele>387.781064</ele>
        <time>2021-11-19T09:16:01.921Z</time>
      </trkpt>
      <trkpt lat="47.499531" lon="8.066460">
        <ele>387.676639</ele>
        <time>2021-11-19T09:16:03.751Z</time>
      </trkpt>
      <trkpt lat="47.499591" lon="8.066154">
        <ele>387.144902</ele>
        <time>2021-11-19T09:16:05.763Z</time>
      </trkpt>
      <trkpt lat="47.499610" lon="8.066051">
        <ele>386.966720</ele>
        <time>2021-11-19T09:16:06.540Z</time>
      </trkpt>
      <trkpt lat="47.499668" lon="8.065730">
        <ele>386.412197</ele>
        <time>2021-11-19T09:16:09.689Z</time>
      </trkpt>
      <trkpt lat="47.499682" lon="8.065635">
        <ele>386.249930</ele>
        <time>2021-11-19T09:16:10.263Z</time>
      </trkpt>
      <trkpt lat="47.499770" lon="8.065082">
        <ele>385.301812</ele>
        <time>2021-11-19T09:16:14.653Z</time>
      </trkpt>
      <trkpt lat="47.499809" lon="8.064788">
        <ele>384.801808</ele>
        <time>2021-11-19T09:16:18.465Z</time>
      </trkpt>
      <trkpt lat="47.499832" lon="8.064625">
        <ele>384.523919</ele>
        <time>2021-11-19T09:16:19.559Z</time>
      </trkpt>
      <trkpt lat="47.499921" lon="8.063941">
        <ele>384.108848</ele>
        <time>2021-11-19T09:16:25.410Z</time>
      </trkpt>
      <trkpt lat="47.499972" lon="8.063575">
        <ele>383.928268</ele>
        <time>2021-11-19T09:16:29.550Z</time>
      </trkpt>
      <trkpt lat="47.500065" lon="8.063116">
        <ele>383.696712</ele>
        <time>2021-11-19T09:16:33.625Z</time>
      </trkpt>
      <trkpt lat="47.500111" lon="8.062899">
        <ele>383.586814</ele>
        <time>2021-11-19T09:16:36.042Z</time>
      </trkpt>
      <trkpt lat="47.500321" lon="8.061955">
        <ele>383.099104</ele>
        <time>2021-11-19T09:16:44.589Z</time>
      </trkpt>
      <trkpt lat="47.500357" lon="8.061762">
        <ele>382.966982</ele>
        <time>2021-11-19T09:16:46.053Z</time>
      </trkpt>
      <trkpt lat="47.500421" lon="8.061418">
        <ele>382.731532</ele>
        <time>2021-11-19T09:16:49.575Z</time>
      </trkpt>
      <trkpt lat="47.500438" lon="8.061324">
        <ele>382.667319</ele>
        <time>2021-11-19T09:16:50.174Z</time>
      </trkpt>
      <trkpt lat="47.500538" lon="8.060723">
        <ele>382.258879</ele>
        <time>2021-11-19T09:16:55.451Z</time>
      </trkpt>
      <trkpt lat="47.500573" lon="8.060533">
        <ele>382.128925</ele>
        <time>2021-11-19T09:16:57.286Z</time>
      </trkpt>
      <trkpt lat="47.500588" lon="8.060437">
        <ele>382.063904</ele>
        <time>2021-11-19T09:16:58.032Z</time>
      </trkpt>
      <trkpt lat="47.500604" lon="8.060344">
        <ele>382.000576</ele>
        <time>2021-11-19T09:16:58.730Z</time>
      </trkpt>
      <trkpt lat="47.500708" lon="8.059752">
        <ele>381.596936</ele>
        <time>2021-11-19T09:17:03.489Z</time>
      </trkpt>
      <trkpt lat="47.500919" lon="8.058927">
        <ele>381.613620</ele>
        <time>2021-11-19T09:17:11.481Z</time>
      </trkpt>
      <trkpt lat="47.501139" lon="8.058076">
        <ele>382.025639</ele>
        <time>2021-11-19T09:17:21.449Z</time>
      </trkpt>
      <trkpt lat="47.501265" lon="8.057592">
        <ele>382.260181</ele>
        <time>2021-11-19T09:17:28.576Z</time>
      </trkpt>
      <trkpt lat="47.501287" lon="8.057595">
        <ele>382.274969</ele>
        <time>2021-11-19T09:17:29.035Z</time>
      </trkpt>
      <trkpt lat="47.501352" lon="8.057560">
        <ele>382.321264</ele>
        <time>2021-11-19T09:17:30.396Z</time>
      </trkpt>
      <trkpt lat="47.501377" lon="8.057505">
        <ele>382.351239</ele>
        <time>2021-11-19T09:17:31.304Z</time>
      </trkpt>
      <trkpt lat="47.501386" lon="8.057452">
        <ele>382.375950</ele>
        <time>2021-11-19T09:17:32.287Z</time>
      </trkpt>
      <trkpt lat="47.501371" lon="8.057371">
        <ele>382.413928</ele>
        <time>2021-11-19T09:17:33.387Z</time>
      </trkpt>
      <trkpt lat="47.501356" lon="8.057344">
        <ele>382.429735</ele>
        <time>2021-11-19T09:17:34.121Z</time>
      </trkpt>
      <trkpt lat="47.501459" lon="8.056906">
        <ele>382.656405</ele>
        <time>2021-11-19T09:17:41.021Z</time>
      </trkpt>
      <trkpt lat="47.501717" lon="8.055892">
        <ele>383.273372</ele>
        <time>2021-11-19T09:17:57.278Z</time>
      </trkpt>
      <trkpt lat="47.501751" lon="8.055654">
        <ele>383.411886</ele>
        <time>2021-11-19T09:18:00.908Z</time>
      </trkpt>
      <trkpt lat="47.501784" lon="8.055340">
        <ele>383.592829</ele>
        <time>2021-11-19T09:18:04.753Z</time>
      </trkpt>
      <trkpt lat="47.501806" lon="8.054996">
        <ele>383.789578</ele>
        <time>2021-11-19T09:18:08.816Z</time>
      </trkpt>
      <trkpt lat="47.501851" lon="8.054393">
        <ele>383.954474</ele>
        <time>2021-11-19T09:18:14.115Z</time>
      </trkpt>
      <trkpt lat="47.501857" lon="8.054265">
        <ele>383.734475</ele>
        <time>2021-11-19T09:18:15.056Z</time>
      </trkpt>
      <trkpt lat="47.501923" lon="8.053252">
        <ele>381.989512</ele>
        <time>2021-11-19T09:18:22.712Z</time>
      </trkpt>
      <trkpt lat="47.502020" lon="8.051188">
        <ele>378.072973</ele>
        <time>2021-11-19T09:18:36.638Z</time>
      </trkpt>
      <trkpt lat="47.502094" lon="8.049547">
        <ele>374.292136</ele>
        <time>2021-11-19T09:18:47.669Z</time>
      </trkpt>
      <trkpt lat="47.502090" lon="8.048236">
        <ele>372.065728</ele>
        <time>2021-11-19T09:18:56.911Z</time>
      </trkpt>
      <trkpt lat="47.502044" lon="8.047705">
        <ele>371.290842</ele>
        <time>2021-11-19T09:19:00.848Z</time>
      </trkpt>
      <trkpt lat="47.502029" lon="8.047540">
        <ele>371.049861</ele>
        <time>2021-11-19T09:19:02.047Z</time>
      </trkpt>
      <trkpt lat="47.501759" lon="8.046002">
        <ele>369.106555</ele>
        <time>2021-11-19T09:19:14.355Z</time>
      </trkpt>
      <trkpt lat="47.501515" lon="8.044851">
        <ele>368.138324</ele>
        <time>2021-11-19T09:19:24.383Z</time>
      </trkpt>
      <trkpt lat="47.501358" lon="8.044092">
        <ele>367.501216</ele>
        <time>2021-11-19T09:19:30.936Z</time>
      </trkpt>
      <trkpt lat="47.501234" lon="8.043345">
        <ele>366.497609</ele>
        <time>2021-11-19T09:19:36.994Z</time>
      </trkpt>
      <trkpt lat="47.501123" lon="8.042252">
        <ele>364.963958</ele>
        <time>2021-11-19T09:19:45.207Z</time>
      </trkpt>
      <trkpt lat="47.501065" lon="8.041677">
        <ele>364.157261</ele>
        <time>2021-11-19T09:19:49.230Z</time>
      </trkpt>
      <trkpt lat="47.501009" lon="8.040934">
        <ele>363.219163</ele>
        <time>2021-11-19T09:19:54.550Z</time>
      </trkpt>
      <trkpt lat="47.501026" lon="8.040085">
        <ele>362.235702</ele>
        <time>2021-11-19T09:20:00.721Z</time>
      </trkpt>
      <trkpt lat="47.501026" lon="8.040085">
        <ele>362.235702</ele>
        <time>2021-11-19T09:20:00.730Z</time>
      </trkpt>
      <trkpt lat="47.501083" lon="8.039040">
        <ele>361.021793</ele>
        <time>2021-11-19T09:20:09.176Z</time>
      </trkpt>
      <trkpt lat="47.501120" lon="8.039033">
        <ele>360.957863</ele>
        <time>2021-11-19T09:20:09.549Z</time>
      </trkpt>
      <trkpt lat="47.501198" lon="8.038918">
        <ele>360.769180</ele>
        <time>2021-11-19T09:20:11.143Z</time>
      </trkpt>
      <trkpt lat="47.501143" lon="8.038725">
        <ele>360.649154</ele>
        <time>2021-11-19T09:20:13.033Z</time>
      </trkpt>
      <trkpt lat="47.501107" lon="8.038707">
        <ele>360.656435</ele>
        <time>2021-11-19T09:20:13.504Z</time>
      </trkpt>
      <trkpt lat="47.501117" lon="8.038538">
        <ele>360.678395</ele>
        <time>2021-11-19T09:20:14.871Z</time>
      </trkpt>
      <trkpt lat="47.501141" lon="8.038290">
        <ele>360.710825</ele>
        <time>2021-11-19T09:20:17.437Z</time>
      </trkpt>
      <trkpt lat="47.501181" lon="8.037704">
        <ele>360.787067</ele>
        <time>2021-11-19T09:20:23.498Z</time>
      </trkpt>
      <trkpt lat="47.501269" lon="8.036713">
        <ele>360.916451</ele>
        <time>2021-11-19T09:20:35.688Z</time>
      </trkpt>
      <trkpt lat="47.501342" lon="8.036045">
        <ele>360.929176</ele>
        <time>2021-11-19T09:20:43.746Z</time>
      </trkpt>
      <trkpt lat="47.501430" lon="8.035235">
        <ele>360.683167</ele>
        <time>2021-11-19T09:20:52.032Z</time>
      </trkpt>
      <trkpt lat="47.501641" lon="8.034168">
        <ele>360.349790</ele>
        <time>2021-11-19T09:21:01.563Z</time>
      </trkpt>
      <trkpt lat="47.501669" lon="8.033986">
        <ele>360.293818</ele>
        <time>2021-11-19T09:21:03.072Z</time>
      </trkpt>
      <trkpt lat="47.501698" lon="8.034000">
        <ele>360.280279</ele>
        <time>2021-11-19T09:21:03.402Z</time>
      </trkpt>
      <trkpt lat="47.501807" lon="8.033950">
        <ele>360.229628</ele>
        <time>2021-11-19T09:21:04.849Z</time>
      </trkpt>
      <trkpt lat="47.501827" lon="8.033911">
        <ele>360.214946</ele>
        <time>2021-11-19T09:21:05.218Z</time>
      </trkpt>
      <trkpt lat="47.501840" lon="8.033865">
        <ele>360.199994</ele>
        <time>2021-11-19T09:21:05.674Z</time>
      </trkpt>
      <trkpt lat="47.501821" lon="8.033715">
        <ele>360.094808</ele>
        <time>2021-11-19T09:21:06.884Z</time>
      </trkpt>
      <trkpt lat="47.501785" lon="8.033665">
        <ele>360.027821</ele>
        <time>2021-11-19T09:21:07.489Z</time>
      </trkpt>
      <trkpt lat="47.501831" lon="8.033540">
        <ele>359.897335</ele>
        <time>2021-11-19T09:21:08.628Z</time>
      </trkpt>
      <trkpt lat="47.501831" lon="8.033540">
        <ele>359.897335</ele>
        <time>2021-11-19T09:21:08.641Z</time>
      </trkpt>
      <trkpt lat="47.501831" lon="8.033540">
        <ele>359.897335</ele>
        <time>2021-11-19T09:21:08.711Z</time>
      </trkpt>
      <trkpt lat="47.501972" lon="8.033162">
        <ele>359.501510</ele>
        <time>2021-11-19T09:21:12.127Z</time>
      </trkpt>
      <trkpt lat="47.502050" lon="8.032952">
        <ele>359.281825</ele>
        <time>2021-11-19T09:21:14.045Z</time>
      </trkpt>
      <trkpt lat="47.502278" lon="8.032378">
        <ele>358.671426</ele>
        <time>2021-11-19T09:21:19.182Z</time>
      </trkpt>
      <trkpt lat="47.502589" lon="8.031477">
        <ele>357.743919</ele>
        <time>2021-11-19T09:21:27.064Z</time>
      </trkpt>
      <trkpt lat="47.503055" lon="8.030264">
        <ele>356.709776</ele>
        <time>2021-11-19T09:21:38.247Z</time>
      </trkpt>
      <trkpt lat="47.503408" lon="8.029412">
        <ele>355.969272</ele>
        <time>2021-11-19T09:21:46.613Z</time>
      </trkpt>
      <trkpt lat="47.503617" lon="8.028907">
        <ele>355.647355</ele>
        <time>2021-11-19T09:21:51.611Z</time>
      </trkpt>
      <trkpt lat="47.503672" lon="8.028775">
        <ele>355.588552</ele>
        <time>2021-11-19T09:21:52.954Z</time>
      </trkpt>
      <trkpt lat="47.504063" lon="8.027828">
        <ele>355.167739</ele>
        <time>2021-11-19T09:22:02.749Z</time>
      </trkpt>
      <trkpt lat="47.504221" lon="8.027444">
        <ele>354.997264</ele>
        <time>2021-11-19T09:22:06.869Z</time>
      </trkpt>
      <trkpt lat="47.504606" lon="8.026545">
        <ele>354.534611</ele>
        <time>2021-11-19T09:22:16.775Z</time>
      </trkpt>
      <trkpt lat="47.504614" lon="8.026525">
        <ele>354.522675</ele>
        <time>2021-11-19T09:22:16.938Z</time>
      </trkpt>
      <trkpt lat="47.504641" lon="8.026538">
        <ele>354.501091</ele>
        <time>2021-11-19T09:22:17.364Z</time>
      </trkpt>
      <trkpt lat="47.504663" lon="8.026539">
        <ele>354.484358</ele>
        <time>2021-11-19T09:22:17.683Z</time>
      </trkpt>
      <trkpt lat="47.504689" lon="8.026530">
        <ele>354.464059</ele>
        <time>2021-11-19T09:22:18.070Z</time>
      </trkpt>
      <trkpt lat="47.504716" lon="8.026506">
        <ele>354.440118</ele>
        <time>2021-11-19T09:22:18.479Z</time>
      </trkpt>
      <trkpt lat="47.504737" lon="8.026462">
        <ele>354.412451</ele>
        <time>2021-11-19T09:22:18.964Z</time>
      </trkpt>
      <trkpt lat="47.504744" lon="8.026435">
        <ele>354.397599</ele>
        <time>2021-11-19T09:22:19.218Z</time>
      </trkpt>
      <trkpt lat="47.504745" lon="8.026393">
        <ele>354.376017</ele>
        <time>2021-11-19T09:22:19.589Z</time>
      </trkpt>
      <trkpt lat="47.504733" lon="8.026338">
        <ele>354.346335</ele>
        <time>2021-11-19T09:22:20.093Z</time>
      </trkpt>
      <trkpt lat="47.504704" lon="8.026294">
        <ele>354.314766</ele>
        <time>2021-11-19T09:22:20.622Z</time>
      </trkpt>
      <trkpt lat="47.504725" lon="8.026244">
        <ele>354.284530</ele>
        <time>2021-11-19T09:22:21.172Z</time>
      </trkpt>
      <trkpt lat="47.504760" lon="8.026163">
        <ele>354.235151</ele>
        <time>2021-11-19T09:22:21.957Z</time>
      </trkpt>
      <trkpt lat="47.504823" lon="8.026024">
        <ele>354.149190</ele>
        <time>2021-11-19T09:22:23.462Z</time>
      </trkpt>
      <trkpt lat="47.505192" lon="8.025207">
        <ele>353.644487</ele>
        <time>2021-11-19T09:22:31.813Z</time>
      </trkpt>
      <trkpt lat="47.505559" lon="8.024486">
        <ele>352.869876</ele>
        <time>2021-11-19T09:22:39.077Z</time>
      </trkpt>
      <trkpt lat="47.505612" lon="8.024383">
        <ele>352.705891</ele>
        <time>2021-11-19T09:22:40.104Z</time>
      </trkpt>
      <trkpt lat="47.505697" lon="8.024216">
        <ele>352.441068</ele>
        <time>2021-11-19T09:22:41.676Z</time>
      </trkpt>
      <trkpt lat="47.505883" lon="8.023827">
        <ele>351.837470</ele>
        <time>2021-11-19T09:22:45.283Z</time>
      </trkpt>
      <trkpt lat="47.506199" lon="8.023103">
        <ele>350.745782</ele>
        <time>2021-11-19T09:22:51.655Z</time>
      </trkpt>
      <trkpt lat="47.506232" lon="8.023038">
        <ele>350.642802</ele>
        <time>2021-11-19T09:22:52.247Z</time>
      </trkpt>
      <trkpt lat="47.506258" lon="8.022985">
        <ele>350.559846</ele>
        <time>2021-11-19T09:22:52.722Z</time>
      </trkpt>
      <trkpt lat="47.506468" lon="8.022553">
        <ele>349.837572</ele>
        <time>2021-11-19T09:22:56.569Z</time>
      </trkpt>
      <trkpt lat="47.506535" lon="8.022414">
        <ele>349.544070</ele>
        <time>2021-11-19T09:22:57.772Z</time>
      </trkpt>
      <trkpt lat="47.506621" lon="8.022234">
        <ele>349.165121</ele>
        <time>2021-11-19T09:22:59.363Z</time>
      </trkpt>
      <trkpt lat="47.506655" lon="8.022123">
        <ele>348.955636</ele>
        <time>2021-11-19T09:23:00.226Z</time>
      </trkpt>
      <trkpt lat="47.506678" lon="8.022015">
        <ele>348.760999</ele>
        <time>2021-11-19T09:23:01.008Z</time>
      </trkpt>
      <trkpt lat="47.506735" lon="8.021861">
        <ele>348.459174</ele>
        <time>2021-11-19T09:23:02.249Z</time>
      </trkpt>
      <trkpt lat="47.506867" lon="8.021604">
        <ele>347.904256</ele>
        <time>2021-11-19T09:23:04.478Z</time>
      </trkpt>
      <trkpt lat="47.506910" lon="8.021529">
        <ele>347.735174</ele>
        <time>2021-11-19T09:23:05.149Z</time>
      </trkpt>
      <trkpt lat="47.506949" lon="8.021459">
        <ele>347.579216</ele>
        <time>2021-11-19T09:23:05.804Z</time>
      </trkpt>
      <trkpt lat="47.507007" lon="8.021362">
        <ele>347.356559</ele>
        <time>2021-11-19T09:23:06.705Z</time>
      </trkpt>
      <trkpt lat="47.507213" lon="8.021061">
        <ele>346.620081</ele>
        <time>2021-11-19T09:23:09.707Z</time>
      </trkpt>
      <trkpt lat="47.507466" lon="8.020697">
        <ele>345.722399</ele>
        <time>2021-11-19T09:23:13.425Z</time>
      </trkpt>
      <trkpt lat="47.507609" lon="8.020484">
        <ele>345.337686</ele>
        <time>2021-11-19T09:23:15.621Z</time>
      </trkpt>
      <trkpt lat="47.507666" lon="8.020400">
        <ele>345.246088</ele>
        <time>2021-11-19T09:23:16.510Z</time>
      </trkpt>
      <trkpt lat="47.507863" lon="8.020075">
        <ele>344.910157</ele>
        <time>2021-11-19T09:23:19.850Z</time>
      </trkpt>
      <trkpt lat="47.507951" lon="8.019911">
        <ele>344.749029</ele>
        <time>2021-11-19T09:23:21.515Z</time>
      </trkpt>
      <trkpt lat="47.508029" lon="8.019761">
        <ele>344.603402</ele>
        <time>2021-11-19T09:23:22.950Z</time>
      </trkpt>
      <trkpt lat="47.508075" lon="8.019669">
        <ele>344.515346</ele>
        <time>2021-11-19T09:23:23.879Z</time>
      </trkpt>
      <trkpt lat="47.508117" lon="8.019584">
        <ele>344.434328</ele>
        <time>2021-11-19T09:23:24.711Z</time>
      </trkpt>
      <trkpt lat="47.508273" lon="8.019268">
        <ele>344.133226</ele>
        <time>2021-11-19T09:23:27.915Z</time>
      </trkpt>
      <trkpt lat="47.508403" lon="8.018982">
        <ele>343.868031</ele>
        <time>2021-11-19T09:23:30.863Z</time>
      </trkpt>
      <trkpt lat="47.508436" lon="8.018909">
        <ele>343.800456</ele>
        <time>2021-11-19T09:23:31.609Z</time>
      </trkpt>
      <trkpt lat="47.508505" lon="8.018716">
        <ele>343.632469</ele>
        <time>2021-11-19T09:23:33.560Z</time>
      </trkpt>
      <trkpt lat="47.508517" lon="8.018677">
        <ele>343.599500</ele>
        <time>2021-11-19T09:23:33.972Z</time>
      </trkpt>
      <trkpt lat="47.508544" lon="8.018690">
        <ele>343.567165</ele>
        <time>2021-11-19T09:23:34.427Z</time>
      </trkpt>
      <trkpt lat="47.508639" lon="8.018617">
        <ele>343.445265</ele>
        <time>2021-11-19T09:23:35.874Z</time>
      </trkpt>
      <trkpt lat="47.508635" lon="8.018495">
        <ele>343.413443</ele>
        <time>2021-11-19T09:23:36.966Z</time>
      </trkpt>
      <trkpt lat="47.508617" lon="8.018463">
        <ele>343.426200</ele>
        <time>2021-11-19T09:23:37.403Z</time>
      </trkpt>
      <trkpt lat="47.508636" lon="8.018423">
        <ele>343.441181</ele>
        <time>2021-11-19T09:23:37.901Z</time>
      </trkpt>
      <trkpt lat="47.508699" lon="8.018304">
        <ele>343.487501</ele>
        <time>2021-11-19T09:23:39.566Z</time>
      </trkpt>
      <trkpt lat="47.508805" lon="8.018141">
        <ele>343.556818</ele>
        <time>2021-11-19T09:23:41.945Z</time>
      </trkpt>
      <trkpt lat="47.508896" lon="8.018035">
        <ele>343.609334</ele>
        <time>2021-11-19T09:23:43.823Z</time>
      </trkpt>
      <trkpt lat="47.508988" lon="8.017959">
        <ele>343.657116</ele>
        <time>2021-11-19T09:23:45.723Z</time>
      </trkpt>
      <trkpt lat="47.509105" lon="8.017861">
        <ele>343.718084</ele>
        <time>2021-11-19T09:23:47.926Z</time>
      </trkpt>
      <trkpt lat="47.509253" lon="8.017765">
        <ele>343.791368</ele>
        <time>2021-11-19T09:23:50.710Z</time>
      </trkpt>
      <trkpt lat="47.509437" lon="8.017668">
        <ele>343.879953</ele>
        <time>2021-11-19T09:23:54.129Z</time>
      </trkpt>
      <trkpt lat="47.509596" lon="8.017609">
        <ele>343.954296</ele>
        <time>2021-11-19T09:23:56.979Z</time>
      </trkpt>
      <trkpt lat="47.509728" lon="8.017576">
        <ele>344.015011</ele>
        <time>2021-11-19T09:23:59.404Z</time>
      </trkpt>
      <trkpt lat="47.509872" lon="8.017541">
        <ele>344.081195</ele>
        <time>2021-11-19T09:24:01.961Z</time>
      </trkpt>
      <trkpt lat="47.510117" lon="8.017458">
        <ele>344.195184</ele>
        <time>2021-11-19T09:24:06.499Z</time>
      </trkpt>
      <trkpt lat="47.510624" lon="8.017217">
        <ele>344.375234</ele>
        <time>2021-11-19T09:24:15.992Z</time>
      </trkpt>
      <trkpt lat="47.511079" lon="8.016999">
        <ele>344.532937</ele>
        <time>2021-11-19T09:24:24.013Z</time>
      </trkpt>
      <trkpt lat="47.511835" lon="8.016624">
        <ele>344.795859</ele>
        <time>2021-11-19T09:24:36.070Z</time>
      </trkpt>
      <trkpt lat="47.511937" lon="8.016578">
        <ele>344.750846</ele>
        <time>2021-11-19T09:24:37.742Z</time>
      </trkpt>
      <trkpt lat="47.512292" lon="8.016407">
        <ele>344.499998</ele>
        <time>2021-11-19T09:24:42.904Z</time>
      </trkpt>
      <trkpt lat="47.512572" lon="8.016270">
        <ele>344.301845</ele>
        <time>2021-11-19T09:24:46.808Z</time>
      </trkpt>
      <trkpt lat="47.512748" lon="8.016153">
        <ele>344.172208</ele>
        <time>2021-11-19T09:24:49.420Z</time>
      </trkpt>
      <trkpt lat="47.512943" lon="8.015998">
        <ele>344.023490</ele>
        <time>2021-11-19T09:24:52.279Z</time>
      </trkpt>
      <trkpt lat="47.513615" lon="8.015346">
        <ele>343.365727</ele>
        <time>2021-11-19T09:25:01.834Z</time>
      </trkpt>
      <trkpt lat="47.513872" lon="8.015092">
        <ele>342.940340</ele>
        <time>2021-11-19T09:25:05.343Z</time>
      </trkpt>
      <trkpt lat="47.513919" lon="8.015052">
        <ele>342.865709</ele>
        <time>2021-11-19T09:25:05.985Z</time>
      </trkpt>
      <trkpt lat="47.514036" lon="8.014936">
        <ele>342.671862</ele>
        <time>2021-11-19T09:25:07.610Z</time>
      </trkpt>
      <trkpt lat="47.514162" lon="8.014813">
        <ele>342.464093</ele>
        <time>2021-11-19T09:25:09.316Z</time>
      </trkpt>
      <trkpt lat="47.514283" lon="8.014708">
        <ele>342.271015</ele>
        <time>2021-11-19T09:25:10.932Z</time>
      </trkpt>
      <trkpt lat="47.514464" lon="8.014550">
        <ele>341.981756</ele>
        <time>2021-11-19T09:25:13.396Z</time>
      </trkpt>
      <trkpt lat="47.514628" lon="8.014407">
        <ele>341.719740</ele>
        <time>2021-11-19T09:25:15.606Z</time>
      </trkpt>
      <trkpt lat="47.514746" lon="8.014292">
        <ele>341.525261</ele>
        <time>2021-11-19T09:25:17.254Z</time>
      </trkpt>
      <trkpt lat="47.515054" lon="8.014017">
        <ele>341.060434</ele>
        <time>2021-11-19T09:25:21.482Z</time>
      </trkpt>
      <trkpt lat="47.515263" lon="8.013836">
        <ele>340.839638</ele>
        <time>2021-11-19T09:25:24.367Z</time>
      </trkpt>
      <trkpt lat="47.515468" lon="8.013643">
        <ele>340.618106</ele>
        <time>2021-11-19T09:25:27.267Z</time>
      </trkpt>
      <trkpt lat="47.515487" lon="8.013682">
        <ele>340.588490</ele>
        <time>2021-11-19T09:25:27.635Z</time>
      </trkpt>
      <trkpt lat="47.515592" lon="8.013719">
        <ele>340.490065</ele>
        <time>2021-11-19T09:25:28.965Z</time>
      </trkpt>
      <trkpt lat="47.515625" lon="8.013694">
        <ele>340.456262</ele>
        <time>2021-11-19T09:25:29.391Z</time>
      </trkpt>
      <trkpt lat="47.515640" lon="8.013674">
        <ele>340.437855</ele>
        <time>2021-11-19T09:25:29.650Z</time>
      </trkpt>
      <trkpt lat="47.515666" lon="8.013522">
        <ele>340.341284</ele>
        <time>2021-11-19T09:25:30.961Z</time>
      </trkpt>
      <trkpt lat="47.515654" lon="8.013483">
        <ele>340.314889</ele>
        <time>2021-11-19T09:25:31.341Z</time>
      </trkpt>
      <trkpt lat="47.515686" lon="8.013458">
        <ele>340.281895</ele>
        <time>2021-11-19T09:25:31.740Z</time>
      </trkpt>
      <trkpt lat="47.516968" lon="8.012240">
        <ele>338.882041</ele>
        <time>2021-11-19T09:25:51.507Z</time>
      </trkpt>
      <trkpt lat="47.517220" lon="8.011958">
        <ele>338.588683</ele>
        <time>2021-11-19T09:25:55.633Z</time>
      </trkpt>
      <trkpt lat="47.517559" lon="8.011519">
        <ele>338.170426</ele>
        <time>2021-11-19T09:26:01.161Z</time>
      </trkpt>
      <trkpt lat="47.517842" lon="8.011140">
        <ele>337.816044</ele>
        <time>2021-11-19T09:26:05.561Z</time>
      </trkpt>
      <trkpt lat="47.518005" lon="8.011373">
        <ele>337.458992</ele>
        <time>2021-11-19T09:26:08.089Z</time>
      </trkpt>
      <trkpt lat="47.518031" lon="8.011413">
        <ele>337.399099</ele>
        <time>2021-11-19T09:26:08.503Z</time>
      </trkpt>
      <trkpt lat="47.518672" lon="8.012356">
        <ele>335.955712</ele>
        <time>2021-11-19T09:26:19.162Z</time>
      </trkpt>
      <trkpt lat="47.518762" lon="8.012505">
        <ele>335.740059</ele>
        <time>2021-11-19T09:26:20.482Z</time>
      </trkpt>
      <trkpt lat="47.519066" lon="8.012986">
        <ele>335.029374</ele>
        <time>2021-11-19T09:26:25.321Z</time>
      </trkpt>
      <trkpt lat="47.519283" lon="8.013313">
        <ele>334.802936</ele>
        <time>2021-11-19T09:26:28.896Z</time>
      </trkpt>
      <trkpt lat="47.519407" lon="8.013567">
        <ele>334.690711</ele>
        <time>2021-11-19T09:26:32.277Z</time>
      </trkpt>
      <trkpt lat="47.519506" lon="8.013880">
        <ele>334.566952</ele>
        <time>2021-11-19T09:26:34.704Z</time>
      </trkpt>
      <trkpt lat="47.519542" lon="8.014115">
        <ele>334.480668</ele>
        <time>2021-11-19T09:26:38.864Z</time>
      </trkpt>
      <trkpt lat="47.519550" lon="8.014167">
        <ele>334.461571</ele>
        <time>2021-11-19T09:26:39.166Z</time>
      </trkpt>
      <trkpt lat="47.519560" lon="8.014397">
        <ele>334.379045</ele>
        <time>2021-11-19T09:26:40.976Z</time>
      </trkpt>
      <trkpt lat="47.519567" lon="8.014689">
        <ele>334.274422</ele>
        <time>2021-11-19T09:26:44.778Z</time>
      </trkpt>
      <trkpt lat="47.519570" lon="8.014933">
        <ele>334.187039</ele>
        <time>2021-11-19T09:26:46.805Z</time>
      </trkpt>
      <trkpt lat="47.519564" lon="8.015041">
        <ele>334.148237</ele>
        <time>2021-11-19T09:26:48.992Z</time>
      </trkpt>
      <trkpt lat="47.519666" lon="8.015011">
        <ele>334.093099</ele>
        <time>2021-11-19T09:26:51.618Z</time>
      </trkpt>
      <trkpt lat="47.520115" lon="8.014648">
        <ele>334.036038</ele>
        <time>2021-11-19T09:26:59.586Z</time>
      </trkpt>
      <trkpt lat="47.520539" lon="8.014558">
        <ele>334.111737</ele>
        <time>2021-11-19T09:27:05.941Z</time>
      </trkpt>
      <trkpt lat="47.520848" lon="8.014542">
        <ele>334.166379</ele>
        <time>2021-11-19T09:27:11.219Z</time>
      </trkpt>
      <trkpt lat="47.520953" lon="8.014530">
        <ele>334.184991</ele>
        <time>2021-11-19T09:27:12.679Z</time>
      </trkpt>
      <trkpt lat="47.521150" lon="8.014447">
        <ele>334.221188</ele>
        <time>2021-11-19T09:27:15.890Z</time>
      </trkpt>
      <trkpt lat="47.521292" lon="8.014319">
        <ele>334.250567</ele>
        <time>2021-11-19T09:27:18.091Z</time>
      </trkpt>
      <trkpt lat="47.521454" lon="8.014134">
        <ele>334.286722</ele>
        <time>2021-11-19T09:27:21.287Z</time>
      </trkpt>
      <trkpt lat="47.521508" lon="8.014076">
        <ele>334.298512</ele>
        <time>2021-11-19T09:27:22.227Z</time>
      </trkpt>
      <trkpt lat="47.521532" lon="8.014046">
        <ele>334.300044</ele>
        <time>2021-11-19T09:27:22.679Z</time>
      </trkpt>
      <trkpt lat="47.521611" lon="8.013949">
        <ele>334.298459</ele>
        <time>2021-11-19T09:27:23.942Z</time>
      </trkpt>
      <trkpt lat="47.521782" lon="8.013652">
        <ele>334.294388</ele>
        <time>2021-11-19T09:27:28.177Z</time>
      </trkpt>
      <trkpt lat="47.521857" lon="8.013314">
        <ele>334.290676</ele>
        <time>2021-11-19T09:27:31.828Z</time>
      </trkpt>
      <trkpt lat="47.521867" lon="8.013168">
        <ele>334.289146</ele>
        <time>2021-11-19T09:27:33.255Z</time>
      </trkpt>
      <trkpt lat="47.521884" lon="8.013019">
        <ele>334.287569</ele>
        <time>2021-11-19T09:27:34.995Z</time>
      </trkpt>
      <trkpt lat="47.521999" lon="8.011997">
        <ele>334.276761</ele>
        <time>2021-11-19T09:27:48.631Z</time>
      </trkpt>
      <trkpt lat="47.522135" lon="8.011541">
        <ele>334.314589</ele>
        <time>2021-11-19T09:27:55.676Z</time>
      </trkpt>
      <trkpt lat="47.522752" lon="8.010942">
        <ele>334.782858</ele>
        <time>2021-11-19T09:28:12.732Z</time>
      </trkpt>
      <trkpt lat="47.523475" lon="8.009886">
        <ele>335.419769</ele>
        <time>2021-11-19T09:28:36.797Z</time>
      </trkpt>
      <trkpt lat="47.523750" lon="8.009595">
        <ele>335.510373</ele>
        <time>2021-11-19T09:28:44.438Z</time>
      </trkpt>
      <trkpt lat="47.525125" lon="8.008474">
        <ele>335.767505</ele>
        <time>2021-11-19T09:29:17.519Z</time>
      </trkpt>
      <trkpt lat="47.525704" lon="8.008036">
        <ele>335.122065</ele>
        <time>2021-11-19T09:29:29.228Z</time>
      </trkpt>
      <trkpt lat="47.526398" lon="8.007517">
        <ele>334.350250</ele>
        <time>2021-11-19T09:29:42.216Z</time>
      </trkpt>
      <trkpt lat="47.527466" lon="8.006442">
        <ele>332.207941</ele>
        <time>2021-11-19T09:30:03.005Z</time>
      </trkpt>
      <trkpt lat="47.528598" lon="8.005386">
        <ele>329.738578</ele>
        <time>2021-11-19T09:30:24.090Z</time>
      </trkpt>
      <trkpt lat="47.528699" lon="8.005292">
        <ele>329.513292</ele>
        <time>2021-11-19T09:30:26.105Z</time>
      </trkpt>
      <trkpt lat="47.528852" lon="8.005150">
        <ele>329.172287</ele>
        <time>2021-11-19T09:30:29.077Z</time>
      </trkpt>
      <trkpt lat="47.529337" lon="8.004498">
        <ele>327.935243</ele>
        <time>2021-11-19T09:30:39.809Z</time>
      </trkpt>
      <trkpt lat="47.529391" lon="8.004422">
        <ele>327.794555</ele>
        <time>2021-11-19T09:30:40.972Z</time>
      </trkpt>
      <trkpt lat="47.530077" lon="8.003471">
        <ele>325.648829</ele>
        <time>2021-11-19T09:30:55.166Z</time>
      </trkpt>
      <trkpt lat="47.531127" lon="8.002157">
        <ele>322.628048</ele>
        <time>2021-11-19T09:31:16.227Z</time>
      </trkpt>
      <trkpt lat="47.531407" lon="8.001793">
        <ele>322.016517</ele>
        <time>2021-11-19T09:31:21.964Z</time>
      </trkpt>
      <trkpt lat="47.531789" lon="8.001140">
        <ele>321.058972</ele>
        <time>2021-11-19T09:31:31.209Z</time>
      </trkpt>
      <trkpt lat="47.532176" lon="8.000088">
        <ele>320.241378</ele>
        <time>2021-11-19T09:31:45.948Z</time>
      </trkpt>
      <trkpt lat="47.532283" lon="7.999633">
        <ele>320.257242</ele>
        <time>2021-11-19T09:31:52.878Z</time>
      </trkpt>
      <trkpt lat="47.532321" lon="7.999312">
        <ele>320.267972</ele>
        <time>2021-11-19T09:31:57.636Z</time>
      </trkpt>
      <trkpt lat="47.532314" lon="7.998991">
        <ele>320.278546</ele>
        <time>2021-11-19T09:32:02.081Z</time>
      </trkpt>
      <trkpt lat="47.532616" lon="7.998942">
        <ele>320.293362</ele>
        <time>2021-11-19T09:32:08.660Z</time>
      </trkpt>
      <trkpt lat="47.532745" lon="7.998891">
        <ele>320.299873</ele>
        <time>2021-11-19T09:32:11.696Z</time>
      </trkpt>
      <trkpt lat="47.532880" lon="7.998728">
        <ele>320.308366</ele>
        <time>2021-11-19T09:32:15.436Z</time>
      </trkpt>
      <trkpt lat="47.534115" lon="7.996823">
        <ele>320.376543</ele>
        <time>2021-11-19T09:32:52.971Z</time>
      </trkpt>
      <trkpt lat="47.535091" lon="7.993681">
        <ele>318.612584</ele>
        <time>2021-11-19T09:33:33.763Z</time>
      </trkpt>
      <trkpt lat="47.535530" lon="7.992828">
        <ele>318.191163</ele>
        <time>2021-11-19T09:33:45.921Z</time>
      </trkpt>
      <trkpt lat="47.535601" lon="7.992617">
        <ele>318.098535</ele>
        <time>2021-11-19T09:33:49.538Z</time>
      </trkpt>
      <trkpt lat="47.535603" lon="7.992576">
        <ele>318.082384</ele>
        <time>2021-11-19T09:33:50.558Z</time>
      </trkpt>
      <trkpt lat="47.535497" lon="7.992318">
        <ele>317.963720</ele>
        <time>2021-11-19T09:33:54.242Z</time>
      </trkpt>
      <trkpt lat="47.535110" lon="7.991631">
        <ele>318.086222</ele>
        <time>2021-11-19T09:34:08.054Z</time>
      </trkpt>
      <trkpt lat="47.534860" lon="7.991148">
        <ele>318.459411</ele>
        <time>2021-11-19T09:34:17.521Z</time>
      </trkpt>
      <trkpt lat="47.534644" lon="7.990797">
        <ele>318.750631</ele>
        <time>2021-11-19T09:34:25.286Z</time>
      </trkpt>
      <trkpt lat="47.534606" lon="7.990590">
        <ele>318.882169</ele>
        <time>2021-11-19T09:34:28.633Z</time>
      </trkpt>
      <trkpt lat="47.534609" lon="7.990394">
        <ele>319.002384</ele>
        <time>2021-11-19T09:34:32.243Z</time>
      </trkpt>
      <trkpt lat="47.534723" lon="7.989575">
        <ele>319.424016</ele>
        <time>2021-11-19T09:34:46.828Z</time>
      </trkpt>
      <trkpt lat="47.534771" lon="7.988562">
        <ele>319.373238</ele>
        <time>2021-11-19T09:35:03.609Z</time>
      </trkpt>
      <trkpt lat="47.534795" lon="7.988078">
        <ele>319.348972</ele>
        <time>2021-11-19T09:35:09.881Z</time>
      </trkpt>
      <trkpt lat="47.534985" lon="7.988144">
        <ele>319.334518</ele>
        <time>2021-11-19T09:35:12.117Z</time>
      </trkpt>
      <trkpt lat="47.535196" lon="7.988134">
        <ele>319.318883</ele>
        <time>2021-11-19T09:35:14.852Z</time>
      </trkpt>
      <trkpt lat="47.535393" lon="7.988043">
        <ele>319.303600</ele>
        <time>2021-11-19T09:35:17.279Z</time>
      </trkpt>
      <trkpt lat="47.535735" lon="7.987639">
        <ele>318.704692</ele>
        <time>2021-11-19T09:35:22.277Z</time>
      </trkpt>
      <trkpt lat="47.535862" lon="7.987408">
        <ele>318.371040</ele>
        <time>2021-11-19T09:35:24.415Z</time>
      </trkpt>
      <trkpt lat="47.535935" lon="7.987272">
        <ele>318.176445</ele>
        <time>2021-11-19T09:35:25.725Z</time>
      </trkpt>
      <trkpt lat="47.536140" lon="7.986963">
        <ele>317.691239</ele>
        <time>2021-11-19T09:35:28.752Z</time>
      </trkpt>
      <trkpt lat="47.536465" lon="7.986660">
        <ele>317.054176</ele>
        <time>2021-11-19T09:35:32.894Z</time>
      </trkpt>
      <trkpt lat="47.536685" lon="7.986543">
        <ele>316.666399</ele>
        <time>2021-11-19T09:35:35.783Z</time>
      </trkpt>
      <trkpt lat="47.536796" lon="7.986519">
        <ele>316.480306</ele>
        <time>2021-11-19T09:35:37.030Z</time>
      </trkpt>
      <trkpt lat="47.537167" lon="7.986470">
        <ele>316.418119</ele>
        <time>2021-11-19T09:35:42.071Z</time>
      </trkpt>
      <trkpt lat="47.537409" lon="7.986449">
        <ele>316.511012</ele>
        <time>2021-11-19T09:35:46.124Z</time>
      </trkpt>
      <trkpt lat="47.537821" lon="7.986433">
        <ele>316.668943</ele>
        <time>2021-11-19T09:35:52.611Z</time>
      </trkpt>
      <trkpt lat="47.537815" lon="7.986191">
        <ele>316.731589</ele>
        <time>2021-11-19T09:35:55.353Z</time>
      </trkpt>
      <trkpt lat="47.537812" lon="7.986127">
        <ele>316.748186</ele>
        <time>2021-11-19T09:35:56.715Z</time>
      </trkpt>
      <trkpt lat="47.537884" lon="7.985939">
        <ele>316.804102</ele>
        <time>2021-11-19T09:35:58.661Z</time>
      </trkpt>
      <trkpt lat="47.538208" lon="7.985592">
        <ele>316.957310</ele>
        <time>2021-11-19T09:36:06.325Z</time>
      </trkpt>
      <trkpt lat="47.538891" lon="7.984830">
        <ele>317.189387</ele>
        <time>2021-11-19T09:36:23.556Z</time>
      </trkpt>
      <trkpt lat="47.538988" lon="7.984674">
        <ele>317.225650</ele>
        <time>2021-11-19T09:36:26.927Z</time>
      </trkpt>
      <trkpt lat="47.539141" lon="7.984006">
        <ele>317.346259</ele>
        <time>2021-11-19T09:36:34.215Z</time>
      </trkpt>
      <trkpt lat="47.539266" lon="7.983513">
        <ele>317.436301</ele>
        <time>2021-11-19T09:36:38.414Z</time>
      </trkpt>
      <trkpt lat="47.539359" lon="7.983508">
        <ele>317.447658</ele>
        <time>2021-11-19T09:36:39.844Z</time>
      </trkpt>
      <trkpt lat="47.539746" lon="7.983424">
        <ele>316.581213</ele>
        <time>2021-11-19T09:36:46.150Z</time>
      </trkpt>
      <trkpt lat="47.540009" lon="7.983581">
        <ele>315.953081</ele>
        <time>2021-11-19T09:36:50.713Z</time>
      </trkpt>
      <trkpt lat="47.540197" lon="7.983795">
        <ele>315.427862</ele>
        <time>2021-11-19T09:36:54.397Z</time>
      </trkpt>
      <trkpt lat="47.540570" lon="7.984220">
        <ele>314.385429</ele>
        <time>2021-11-19T09:37:01.560Z</time>
      </trkpt>
      <trkpt lat="47.540609" lon="7.984254">
        <ele>314.285184</ele>
        <time>2021-11-19T09:37:02.194Z</time>
      </trkpt>
      <trkpt lat="47.540750" lon="7.984343">
        <ele>313.945665</ele>
        <time>2021-11-19T09:37:04.425Z</time>
      </trkpt>
      <trkpt lat="47.541183" lon="7.984395">
        <ele>312.987949</ele>
        <time>2021-11-19T09:37:10.888Z</time>
      </trkpt>
      <trkpt lat="47.541734" lon="7.984406">
        <ele>311.778744</ele>
        <time>2021-11-19T09:37:19.130Z</time>
      </trkpt>
      <trkpt lat="47.542126" lon="7.984398">
        <ele>310.918471</ele>
        <time>2021-11-19T09:37:25.203Z</time>
      </trkpt>
      <trkpt lat="47.542208" lon="7.984399">
        <ele>310.738527</ele>
        <time>2021-11-19T09:37:26.108Z</time>
      </trkpt>
      <trkpt lat="47.542145" lon="7.983983">
        <ele>310.106989</ele>
        <time>2021-11-19T09:37:29.381Z</time>
      </trkpt>
      <trkpt lat="47.542068" lon="7.983338">
        <ele>309.467318</ele>
        <time>2021-11-19T09:37:34.472Z</time>
      </trkpt>
      <trkpt lat="47.542076" lon="7.983000">
        <ele>309.390328</ele>
        <time>2021-11-19T09:37:37.161Z</time>
      </trkpt>
      <trkpt lat="47.542080" lon="7.982849">
        <ele>309.355928</ele>
        <time>2021-11-19T09:37:38.408Z</time>
      </trkpt>
      <trkpt lat="47.542087" lon="7.982565">
        <ele>309.291235</ele>
        <time>2021-11-19T09:37:40.763Z</time>
      </trkpt>
      <trkpt lat="47.542122" lon="7.980765">
        <ele>309.063340</ele>
        <time>2021-11-19T09:37:59.619Z</time>
      </trkpt>
      <trkpt lat="47.542138" lon="7.980233">
        <ele>309.500825</ele>
        <time>2021-11-19T09:38:06.371Z</time>
      </trkpt>
      <trkpt lat="47.542153" lon="7.979253">
        <ele>310.306127</ele>
        <time>2021-11-19T09:38:19.846Z</time>
      </trkpt>
      <trkpt lat="47.542119" lon="7.977479">
        <ele>311.940276</ele>
        <time>2021-11-19T09:38:45.539Z</time>
      </trkpt>
      <trkpt lat="47.542030" lon="7.976464">
        <ele>313.007514</ele>
        <time>2021-11-19T09:39:00.476Z</time>
      </trkpt>
      <trkpt lat="47.541613" lon="7.974143">
        <ele>314.642994</ele>
        <time>2021-11-19T09:39:32.503Z</time>
      </trkpt>
      <trkpt lat="47.541444" lon="7.973570">
        <ele>314.946135</ele>
        <time>2021-11-19T09:39:39.599Z</time>
      </trkpt>
      <trkpt lat="47.541111" lon="7.971844">
        <ele>314.437456</ele>
        <time>2021-11-19T09:39:55.777Z</time>
      </trkpt>
      <trkpt lat="47.541050" lon="7.971427">
        <ele>314.196322</ele>
        <time>2021-11-19T09:39:59.278Z</time>
      </trkpt>
      <trkpt lat="47.541007" lon="7.971034">
        <ele>313.971322</ele>
        <time>2021-11-19T09:40:02.449Z</time>
      </trkpt>
      <trkpt lat="47.540930" lon="7.969589">
        <ele>312.825814</ele>
        <time>2021-11-19T09:40:13.799Z</time>
      </trkpt>
      <trkpt lat="47.540988" lon="7.968696">
        <ele>312.001706</ele>
        <time>2021-11-19T09:40:20.873Z</time>
      </trkpt>
      <trkpt lat="47.541122" lon="7.967754">
        <ele>311.060150</ele>
        <time>2021-11-19T09:40:28.905Z</time>
      </trkpt>
      <trkpt lat="47.541502" lon="7.965586">
        <ele>307.922243</ele>
        <time>2021-11-19T09:40:45.158Z</time>
      </trkpt>
      <trkpt lat="47.541593" lon="7.965571">
        <ele>307.732229</ele>
        <time>2021-11-19T09:40:46.127Z</time>
      </trkpt>
      <trkpt lat="47.541714" lon="7.965522">
        <ele>307.472061</ele>
        <time>2021-11-19T09:40:47.482Z</time>
      </trkpt>
      <trkpt lat="47.542210" lon="7.965313">
        <ele>306.409366</ele>
        <time>2021-11-19T09:40:53.121Z</time>
      </trkpt>
      <trkpt lat="47.542271" lon="7.965269">
        <ele>306.269548</ele>
        <time>2021-11-19T09:40:54.169Z</time>
      </trkpt>
      <trkpt lat="47.542253" lon="7.965169">
        <ele>306.125575</ele>
        <time>2021-11-19T09:40:55.277Z</time>
      </trkpt>
      <trkpt lat="47.542495" lon="7.963580">
        <ele>303.859525</ele>
        <time>2021-11-19T09:41:12.269Z</time>
      </trkpt>
      <trkpt lat="47.542511" lon="7.963476">
        <ele>303.733793</ele>
        <time>2021-11-19T09:41:13.465Z</time>
      </trkpt>
      <trkpt lat="47.542516" lon="7.962915">
        <ele>303.186099</ele>
        <time>2021-11-19T09:41:19.911Z</time>
      </trkpt>
      <trkpt lat="47.542513" lon="7.962471">
        <ele>302.752647</ele>
        <time>2021-11-19T09:41:24.985Z</time>
      </trkpt>
      <trkpt lat="47.542619" lon="7.961728">
        <ele>302.011313</ele>
        <time>2021-11-19T09:41:33.816Z</time>
      </trkpt>
      <trkpt lat="47.542689" lon="7.961423">
        <ele>301.696836</ele>
        <time>2021-11-19T09:41:37.335Z</time>
      </trkpt>
      <trkpt lat="47.542731" lon="7.961265">
        <ele>301.531070</ele>
        <time>2021-11-19T09:41:39.245Z</time>
      </trkpt>
      <trkpt lat="47.542800" lon="7.960973">
        <ele>301.229062</ele>
        <time>2021-11-19T09:41:42.622Z</time>
      </trkpt>
      <trkpt lat="47.542861" lon="7.960776">
        <ele>301.080677</ele>
        <time>2021-11-19T09:41:45.002Z</time>
      </trkpt>
      <trkpt lat="47.542960" lon="7.960501">
        <ele>300.890505</ele>
        <time>2021-11-19T09:41:48.358Z</time>
      </trkpt>
      <trkpt lat="47.543170" lon="7.960060">
        <ele>300.561196</ele>
        <time>2021-11-19T09:41:54.356Z</time>
      </trkpt>
      <trkpt lat="47.543357" lon="7.959668">
        <ele>300.268304</ele>
        <time>2021-11-19T09:41:59.848Z</time>
      </trkpt>
      <trkpt lat="47.543374" lon="7.959437">
        <ele>300.126517</ele>
        <time>2021-11-19T09:42:02.525Z</time>
      </trkpt>
      <trkpt lat="47.543322" lon="7.959242">
        <ele>299.998583</ele>
        <time>2021-11-19T09:42:05.091Z</time>
      </trkpt>
      <trkpt lat="47.543178" lon="7.959043">
        <ele>299.820573</ele>
        <time>2021-11-19T09:42:08.780Z</time>
      </trkpt>
      <trkpt lat="47.542693" lon="7.958608">
        <ele>299.638554</ele>
        <time>2021-11-19T09:42:21.072Z</time>
      </trkpt>
      <trkpt lat="47.542441" lon="7.958428">
        <ele>299.717172</ele>
        <time>2021-11-19T09:42:26.829Z</time>
      </trkpt>
      <trkpt lat="47.542259" lon="7.958287">
        <ele>299.774889</ele>
        <time>2021-11-19T09:42:31.552Z</time>
      </trkpt>
      <trkpt lat="47.541830" lon="7.958033">
        <ele>299.904716</ele>
        <time>2021-11-19T09:42:41.246Z</time>
      </trkpt>
      <trkpt lat="47.541700" lon="7.957963">
        <ele>299.943587</ele>
        <time>2021-11-19T09:42:44.610Z</time>
      </trkpt>
      <trkpt lat="47.541539" lon="7.957892">
        <ele>299.990792</ele>
        <time>2021-11-19T09:42:48.085Z</time>
      </trkpt>
      <trkpt lat="47.541305" lon="7.957787">
        <ele>300.059500</ele>
        <time>2021-11-19T09:42:53.691Z</time>
      </trkpt>
      <trkpt lat="47.541355" lon="7.957559">
        <ele>300.074870</ele>
        <time>2021-11-19T09:42:55.980Z</time>
      </trkpt>
      <trkpt lat="47.541450" lon="7.956897">
        <ele>300.105035</ele>
        <time>2021-11-19T09:43:03.674Z</time>
      </trkpt>
      <trkpt lat="47.541464" lon="7.956698">
        <ele>300.113952</ele>
        <time>2021-11-19T09:43:05.654Z</time>
      </trkpt>
      <trkpt lat="47.541533" lon="7.955526">
        <ele>300.166386</ele>
        <time>2021-11-19T09:43:16.970Z</time>
      </trkpt>
      <trkpt lat="47.541554" lon="7.955311">
        <ele>300.176068</ele>
        <time>2021-11-19T09:43:19.008Z</time>
      </trkpt>
      <trkpt lat="47.541735" lon="7.953892">
        <ele>300.307421</ele>
        <time>2021-11-19T09:43:33.217Z</time>
      </trkpt>
      <trkpt lat="47.541773" lon="7.953695">
        <ele>300.327466</ele>
        <time>2021-11-19T09:43:35.464Z</time>
      </trkpt>
      <trkpt lat="47.541791" lon="7.953601">
        <ele>300.337025</ele>
        <time>2021-11-19T09:43:36.499Z</time>
      </trkpt>
      <trkpt lat="47.541991" lon="7.952667">
        <ele>300.432889</ele>
        <time>2021-11-19T09:43:47.355Z</time>
      </trkpt>
      <trkpt lat="47.542169" lon="7.951815">
        <ele>300.562324</ele>
        <time>2021-11-19T09:43:57.092Z</time>
      </trkpt>
      <trkpt lat="47.542192" lon="7.951713">
        <ele>300.578755</ele>
        <time>2021-11-19T09:43:58.355Z</time>
      </trkpt>
      <trkpt lat="47.542357" lon="7.951037">
        <ele>300.688583</ele>
        <time>2021-11-19T09:44:05.819Z</time>
      </trkpt>
      <trkpt lat="47.542444" lon="7.950687">
        <ele>300.745569</ele>
        <time>2021-11-19T09:44:09.650Z</time>
      </trkpt>
      <trkpt lat="47.542546" lon="7.950274">
        <ele>300.812760</ele>
        <time>2021-11-19T09:44:13.997Z</time>
      </trkpt>
      <trkpt lat="47.542554" lon="7.950231">
        <ele>300.819575</ele>
        <time>2021-11-19T09:44:14.484Z</time>
      </trkpt>
      <trkpt lat="47.542560" lon="7.950202">
        <ele>300.824209</ele>
        <time>2021-11-19T09:44:14.818Z</time>
      </trkpt>
      <trkpt lat="47.542609" lon="7.949914">
        <ele>300.909644</ele>
        <time>2021-11-19T09:44:17.816Z</time>
      </trkpt>
      <trkpt lat="47.542719" lon="7.949175">
        <ele>301.290832</ele>
        <time>2021-11-19T09:44:25.720Z</time>
      </trkpt>
      <trkpt lat="47.542826" lon="7.948298">
        <ele>301.739747</ele>
        <time>2021-11-19T09:44:36.662Z</time>
      </trkpt>
      <trkpt lat="47.542838" lon="7.948225">
        <ele>301.777592</ele>
        <time>2021-11-19T09:44:37.490Z</time>
      </trkpt>
      <trkpt lat="47.542875" lon="7.948001">
        <ele>301.893753</ele>
        <time>2021-11-19T09:44:40.374Z</time>
      </trkpt>
      <trkpt lat="47.542928" lon="7.947798">
        <ele>302.003388</ele>
        <time>2021-11-19T09:44:43.296Z</time>
      </trkpt>
      <trkpt lat="47.542957" lon="7.947651">
        <ele>302.080531</ele>
        <time>2021-11-19T09:44:45.004Z</time>
      </trkpt>
      <trkpt lat="47.543050" lon="7.947411">
        <ele>302.260176</ele>
        <time>2021-11-19T09:44:49.369Z</time>
      </trkpt>
      <trkpt lat="47.543087" lon="7.947317">
        <ele>302.401062</ele>
        <time>2021-11-19T09:44:50.648Z</time>
      </trkpt>
      <trkpt lat="47.543092" lon="7.947257">
        <ele>302.479337</ele>
        <time>2021-11-19T09:44:51.437Z</time>
      </trkpt>
      <trkpt lat="47.543097" lon="7.947186">
        <ele>302.571764</ele>
        <time>2021-11-19T09:44:52.287Z</time>
      </trkpt>
      <trkpt lat="47.543086" lon="7.947052">
        <ele>302.746539</ele>
        <time>2021-11-19T09:44:54.117Z</time>
      </trkpt>
      <trkpt lat="47.543056" lon="7.946935">
        <ele>302.908586</ele>
        <time>2021-11-19T09:44:56.483Z</time>
      </trkpt>
      <trkpt lat="47.543045" lon="7.946881">
        <ele>302.981617</ele>
        <time>2021-11-19T09:44:57.596Z</time>
      </trkpt>
      <trkpt lat="47.542982" lon="7.946547">
        <ele>303.430631</ele>
        <time>2021-11-19T09:45:02.195Z</time>
      </trkpt>
      <trkpt lat="47.542974" lon="7.946495">
        <ele>303.499684</ele>
        <time>2021-11-19T09:45:03.408Z</time>
      </trkpt>
      <trkpt lat="47.542960" lon="7.946400">
        <ele>303.625583</ele>
        <time>2021-11-19T09:45:05.245Z</time>
      </trkpt>
      <trkpt lat="47.542916" lon="7.945730">
        <ele>304.497167</ele>
        <time>2021-11-19T09:45:15.821Z</time>
      </trkpt>
      <trkpt lat="47.542913" lon="7.945267">
        <ele>305.096668</ele>
        <time>2021-11-19T09:45:23.307Z</time>
      </trkpt>
      <trkpt lat="47.543007" lon="7.943867">
        <ele>306.168484</ele>
        <time>2021-11-19T09:45:44.153Z</time>
      </trkpt>
      <trkpt lat="47.543161" lon="7.942213">
        <ele>307.058080</ele>
        <time>2021-11-19T09:46:02.822Z</time>
      </trkpt>
      <trkpt lat="47.543429" lon="7.940700">
        <ele>305.787115</ele>
        <time>2021-11-19T09:46:15.660Z</time>
      </trkpt>
      <trkpt lat="47.543435" lon="7.940670">
        <ele>305.761399</ele>
        <time>2021-11-19T09:46:15.857Z</time>
      </trkpt>
      <trkpt lat="47.543826" lon="7.939433">
        <ele>304.514706</ele>
        <time>2021-11-19T09:46:26.296Z</time>
      </trkpt>
      <trkpt lat="47.544472" lon="7.937932">
        <ele>302.279537</ele>
        <time>2021-11-19T09:46:39.499Z</time>
      </trkpt>
      <trkpt lat="47.544705" lon="7.937395">
        <ele>301.486105</ele>
        <time>2021-11-19T09:46:44.339Z</time>
      </trkpt>
      <trkpt lat="47.544903" lon="7.936917">
        <ele>300.895718</ele>
        <time>2021-11-19T09:46:48.599Z</time>
      </trkpt>
      <trkpt lat="47.545074" lon="7.936484">
        <ele>300.367614</ele>
        <time>2021-11-19T09:46:52.430Z</time>
      </trkpt>
      <trkpt lat="47.545457" lon="7.935110">
        <ele>298.802723</ele>
        <time>2021-11-19T09:47:03.795Z</time>
      </trkpt>
      <trkpt lat="47.545674" lon="7.933625">
        <ele>298.616416</ele>
        <time>2021-11-19T09:47:16.882Z</time>
      </trkpt>
      <trkpt lat="47.545686" lon="7.933484">
        <ele>298.605911</ele>
        <time>2021-11-19T09:47:18.346Z</time>
      </trkpt>
      <trkpt lat="47.545702" lon="7.933290">
        <ele>298.591465</ele>
        <time>2021-11-19T09:47:20.462Z</time>
      </trkpt>
      <trkpt lat="47.545724" lon="7.932758">
        <ele>298.552068</ele>
        <time>2021-11-19T09:47:26.729Z</time>
      </trkpt>
      <trkpt lat="47.545721" lon="7.931992">
        <ele>299.059499</ele>
        <time>2021-11-19T09:47:36.762Z</time>
      </trkpt>
      <trkpt lat="47.545696" lon="7.931497">
        <ele>299.696303</ele>
        <time>2021-11-19T09:47:43.973Z</time>
      </trkpt>
      <trkpt lat="47.545661" lon="7.930955">
        <ele>300.394804</ele>
        <time>2021-11-19T09:47:52.669Z</time>
      </trkpt>
      <trkpt lat="47.545563" lon="7.929641">
        <ele>301.943348</ele>
        <time>2021-11-19T09:48:15.009Z</time>
      </trkpt>
      <trkpt lat="47.545475" lon="7.928419">
        <ele>301.929613</ele>
        <time>2021-11-19T09:48:31.311Z</time>
      </trkpt>
      <trkpt lat="47.545421" lon="7.927686">
        <ele>301.921371</ele>
        <time>2021-11-19T09:48:37.415Z</time>
      </trkpt>
      <trkpt lat="47.545406" lon="7.927306">
        <ele>301.917117</ele>
        <time>2021-11-19T09:48:40.319Z</time>
      </trkpt>
      <trkpt lat="47.545407" lon="7.927001">
        <ele>301.676816</ele>
        <time>2021-11-19T09:48:42.605Z</time>
      </trkpt>
      <trkpt lat="47.545409" lon="7.926773">
        <ele>301.140676</ele>
        <time>2021-11-19T09:48:44.234Z</time>
      </trkpt>
      <trkpt lat="47.545417" lon="7.925848">
        <ele>298.965554</ele>
        <time>2021-11-19T09:48:50.570Z</time>
      </trkpt>
      <trkpt lat="47.545446" lon="7.925350">
        <ele>297.790262</ele>
        <time>2021-11-19T09:48:53.861Z</time>
      </trkpt>
      <trkpt lat="47.545466" lon="7.924880">
        <ele>296.682963</ele>
        <time>2021-11-19T09:48:56.915Z</time>
      </trkpt>
      <trkpt lat="47.545481" lon="7.924396">
        <ele>295.569362</ele>
        <time>2021-11-19T09:48:59.998Z</time>
      </trkpt>
      <trkpt lat="47.545521" lon="7.923709">
        <ele>294.340792</ele>
        <time>2021-11-19T09:49:04.523Z</time>
      </trkpt>
      <trkpt lat="47.545536" lon="7.923407">
        <ele>293.801265</ele>
        <time>2021-11-19T09:49:06.913Z</time>
      </trkpt>
      <trkpt lat="47.545553" lon="7.923142">
        <ele>293.326988</ele>
        <time>2021-11-19T09:49:08.634Z</time>
      </trkpt>
      <trkpt lat="47.545587" lon="7.922895">
        <ele>292.877852</ele>
        <time>2021-11-19T09:49:11.035Z</time>
      </trkpt>
      <trkpt lat="47.545641" lon="7.922610">
        <ele>292.350444</ele>
        <time>2021-11-19T09:49:13.034Z</time>
      </trkpt>
      <trkpt lat="47.545690" lon="7.922369">
        <ele>291.902001</ele>
        <time>2021-11-19T09:49:15.725Z</time>
      </trkpt>
      <trkpt lat="47.545699" lon="7.922325">
        <ele>291.820086</ele>
        <time>2021-11-19T09:49:15.986Z</time>
      </trkpt>
      <trkpt lat="47.545714" lon="7.922249">
        <ele>291.679008</ele>
        <time>2021-11-19T09:49:16.576Z</time>
      </trkpt>
      <trkpt lat="47.545778" lon="7.921947">
        <ele>291.115043</ele>
        <time>2021-11-19T09:49:19.732Z</time>
      </trkpt>
      <trkpt lat="47.545810" lon="7.921755">
        <ele>290.869899</ele>
        <time>2021-11-19T09:49:21.089Z</time>
      </trkpt>
      <trkpt lat="47.545881" lon="7.921096">
        <ele>290.596381</ele>
        <time>2021-11-19T09:49:26.438Z</time>
      </trkpt>
      <trkpt lat="47.545913" lon="7.920765">
        <ele>290.459333</ele>
        <time>2021-11-19T09:49:29.305Z</time>
      </trkpt>
      <trkpt lat="47.545973" lon="7.920313">
        <ele>290.270527</ele>
        <time>2021-11-19T09:49:34.452Z</time>
      </trkpt>
      <trkpt lat="47.546128" lon="7.919617">
        <ele>289.970140</ele>
        <time>2021-11-19T09:49:40.915Z</time>
      </trkpt>
      <trkpt lat="47.546262" lon="7.919081">
        <ele>289.748415</ele>
        <time>2021-11-19T09:49:46.914Z</time>
      </trkpt>
      <trkpt lat="47.546821" lon="7.916867">
        <ele>288.943983</ele>
        <time>2021-11-19T09:50:07.667Z</time>
      </trkpt>
      <trkpt lat="47.547032" lon="7.916218">
        <ele>288.825058</ele>
        <time>2021-11-19T09:50:14.157Z</time>
      </trkpt>
      <trkpt lat="47.547091" lon="7.916039">
        <ele>288.799184</ele>
        <time>2021-11-19T09:50:15.975Z</time>
      </trkpt>
      <trkpt lat="47.547113" lon="7.915971">
        <ele>288.789390</ele>
        <time>2021-11-19T09:50:16.574Z</time>
      </trkpt>
      <trkpt lat="47.547423" lon="7.915080">
        <ele>288.659191</ele>
        <time>2021-11-19T09:50:26.218Z</time>
      </trkpt>
      <trkpt lat="47.547994" lon="7.913433">
        <ele>289.082817</ele>
        <time>2021-11-19T09:50:45.937Z</time>
      </trkpt>
      <trkpt lat="47.548027" lon="7.913334">
        <ele>289.137414</ele>
        <time>2021-11-19T09:50:47.296Z</time>
      </trkpt>
      <trkpt lat="47.548412" lon="7.912168">
        <ele>289.779253</ele>
        <time>2021-11-19T09:51:03.699Z</time>
      </trkpt>
      <trkpt lat="47.549012" lon="7.910340">
        <ele>291.302990</ele>
        <time>2021-11-19T09:51:30.652Z</time>
      </trkpt>
      <trkpt lat="47.549102" lon="7.910058">
        <ele>291.545155</ele>
        <time>2021-11-19T09:51:34.800Z</time>
      </trkpt>
      <trkpt lat="47.549195" lon="7.909756">
        <ele>291.802854</ele>
        <time>2021-11-19T09:51:39.067Z</time>
      </trkpt>
      <trkpt lat="47.549261" lon="7.909535">
        <ele>292.017955</ele>
        <time>2021-11-19T09:51:42.249Z</time>
      </trkpt>
      <trkpt lat="47.549350" lon="7.909241">
        <ele>292.413820</ele>
        <time>2021-11-19T09:51:46.381Z</time>
      </trkpt>
      <trkpt lat="47.549520" lon="7.908678">
        <ele>293.171563</ele>
        <time>2021-11-19T09:51:54.376Z</time>
      </trkpt>
      <trkpt lat="47.549539" lon="7.908625">
        <ele>293.245291</ele>
        <time>2021-11-19T09:51:55.127Z</time>
      </trkpt>
      <trkpt lat="47.550497" lon="7.905558">
        <ele>298.629148</ele>
        <time>2021-11-19T09:52:49.997Z</time>
      </trkpt>
      <trkpt lat="47.550283" lon="7.905413">
        <ele>299.299532</ele>
        <time>2021-11-19T09:52:58.163Z</time>
      </trkpt>
      <trkpt lat="47.550067" lon="7.905245">
        <ele>299.994522</ele>
        <time>2021-11-19T09:53:06.849Z</time>
      </trkpt>
      <trkpt lat="47.549867" lon="7.905155">
        <ele>300.676359</ele>
        <time>2021-11-19T09:53:14.478Z</time>
      </trkpt>
      <trkpt lat="47.549868" lon="7.905010">
        <ele>301.052007</ele>
        <time>2021-11-19T09:53:17.883Z</time>
      </trkpt>
      <trkpt lat="47.550025" lon="7.904774">
        <ele>301.910423</ele>
        <time>2021-11-19T09:53:26.034Z</time>
      </trkpt>
      <trkpt lat="47.550302" lon="7.904164">
        <ele>303.814997</ele>
        <time>2021-11-19T09:53:44.333Z</time>
      </trkpt>
      <trkpt lat="47.550498" lon="7.903445">
        <ele>305.823755</ele>
        <time>2021-11-19T09:54:03.905Z</time>
      </trkpt>
      <trkpt lat="47.550688" lon="7.902451">
        <ele>308.511731</ele>
        <time>2021-11-19T09:54:26.453Z</time>
      </trkpt>
      <trkpt lat="47.550757" lon="7.901591">
        <ele>310.776236</ele>
        <time>2021-11-19T09:54:46.249Z</time>
      </trkpt>
      <trkpt lat="47.550769" lon="7.901362">
        <ele>311.376812</ele>
        <time>2021-11-19T09:54:52.157Z</time>
      </trkpt>
      <trkpt lat="47.550801" lon="7.900244">
        <ele>314.305143</ele>
        <time>2021-11-19T09:55:16.555Z</time>
      </trkpt>
      <trkpt lat="47.550819" lon="7.898109">
        <ele>320.039001</ele>
        <time>2021-11-19T09:56:03.595Z</time>
      </trkpt>
      <trkpt lat="47.550648" lon="7.896481">
        <ele>322.716323</ele>
        <time>2021-11-19T09:56:31.250Z</time>
      </trkpt>
      <trkpt lat="47.550639" lon="7.896345">
        <ele>322.876087</ele>
        <time>2021-11-19T09:56:33.625Z</time>
      </trkpt>
      <trkpt lat="47.550660" lon="7.896255">
        <ele>322.987419</ele>
        <time>2021-11-19T09:56:34.426Z</time>
      </trkpt>
      <trkpt lat="47.550838" lon="7.895509">
        <ele>323.912484</ele>
        <time>2021-11-19T09:56:44.594Z</time>
      </trkpt>
      <trkpt lat="47.550878" lon="7.895158">
        <ele>324.328655</ele>
        <time>2021-11-19T09:56:48.656Z</time>
      </trkpt>
      <trkpt lat="47.550908" lon="7.894308">
        <ele>325.444293</ele>
        <time>2021-11-19T09:56:59.128Z</time>
      </trkpt>
      <trkpt lat="47.550892" lon="7.893176">
        <ele>326.958194</ele>
        <time>2021-11-19T09:57:13.846Z</time>
      </trkpt>
      <trkpt lat="47.550904" lon="7.891725">
        <ele>330.401774</ele>
        <time>2021-11-19T09:57:43.608Z</time>
      </trkpt>
      <trkpt lat="47.550915" lon="7.890600">
        <ele>334.565375</ele>
        <time>2021-11-19T09:58:12.448Z</time>
      </trkpt>
      <trkpt lat="47.550833" lon="7.889069">
        <ele>340.534597</ele>
        <time>2021-11-19T09:58:55.082Z</time>
      </trkpt>
      <trkpt lat="47.550831" lon="7.888611">
        <ele>342.436601</ele>
        <time>2021-11-19T09:59:07.652Z</time>
      </trkpt>
      <trkpt lat="47.550789" lon="7.887816">
        <ele>345.748146</ele>
        <time>2021-11-19T09:59:28.264Z</time>
      </trkpt>
      <trkpt lat="47.550758" lon="7.887295">
        <ele>347.920128</ele>
        <time>2021-11-19T09:59:42.085Z</time>
      </trkpt>
      <trkpt lat="47.550677" lon="7.886476">
        <ele>350.992301</ele>
        <time>2021-11-19T10:00:03.574Z</time>
      </trkpt>
      <trkpt lat="47.550548" lon="7.885799">
        <ele>353.465485</ele>
        <time>2021-11-19T10:00:20.777Z</time>
      </trkpt>
      <trkpt lat="47.550391" lon="7.885109">
        <ele>356.025488</ele>
        <time>2021-11-19T10:00:38.414Z</time>
      </trkpt>
      <trkpt lat="47.550332" lon="7.884727">
        <ele>357.403220</ele>
        <time>2021-11-19T10:00:47.105Z</time>
      </trkpt>
      <trkpt lat="47.550234" lon="7.883221">
        <ele>361.461609</ele>
        <time>2021-11-19T10:01:19.936Z</time>
      </trkpt>
      <trkpt lat="47.549927" lon="7.881490">
        <ele>366.021497</ele>
        <time>2021-11-19T10:01:52.200Z</time>
      </trkpt>
      <trkpt lat="47.549726" lon="7.880786">
        <ele>368.100461</ele>
        <time>2021-11-19T10:02:08.177Z</time>
      </trkpt>
      <trkpt lat="47.549327" lon="7.879547">
        <ele>371.834153</ele>
        <time>2021-11-19T10:02:37.961Z</time>
      </trkpt>
      <trkpt lat="47.549318" lon="7.879398">
        <ele>372.241019</ele>
        <time>2021-11-19T10:02:41.149Z</time>
      </trkpt>
      <trkpt lat="47.549140" lon="7.879391">
        <ele>372.836304</ele>
        <time>2021-11-19T10:02:48.019Z</time>
      </trkpt>
      <trkpt lat="47.548718" lon="7.879258">
        <ele>374.269147</ele>
        <time>2021-11-19T10:03:01.690Z</time>
      </trkpt>
      <trkpt lat="47.548422" lon="7.878959">
        <ele>375.458924</ele>
        <time>2021-11-19T10:03:12.337Z</time>
      </trkpt>
      <trkpt lat="47.548234" lon="7.878638">
        <ele>376.411595</ele>
        <time>2021-11-19T10:03:20.769Z</time>
      </trkpt>
      <trkpt lat="47.547992" lon="7.877974">
        <ele>378.103149</ele>
        <time>2021-11-19T10:03:33.866Z</time>
      </trkpt>
      <trkpt lat="47.547574" lon="7.876801">
        <ele>377.252670</ele>
        <time>2021-11-19T10:03:47.629Z</time>
      </trkpt>
      <trkpt lat="47.547126" lon="7.875801">
        <ele>376.320327</ele>
        <time>2021-11-19T10:03:56.412Z</time>
      </trkpt>
      <trkpt lat="47.546309" lon="7.874154">
        <ele>369.781157</ele>
        <time>2021-11-19T10:04:09.600Z</time>
      </trkpt>
      <trkpt lat="47.546135" lon="7.873859">
        <ele>368.426168</ele>
        <time>2021-11-19T10:04:11.982Z</time>
      </trkpt>
      <trkpt lat="47.546077" lon="7.873763">
        <ele>367.980550</ele>
        <time>2021-11-19T10:04:12.793Z</time>
      </trkpt>
      <trkpt lat="47.545934" lon="7.873549">
        <ele>366.935142</ele>
        <time>2021-11-19T10:04:14.598Z</time>
      </trkpt>
      <trkpt lat="47.545746" lon="7.873302">
        <ele>365.206391</ele>
        <time>2021-11-19T10:04:16.886Z</time>
      </trkpt>
      <trkpt lat="47.545515" lon="7.873015">
        <ele>363.132262</ele>
        <time>2021-11-19T10:04:19.585Z</time>
      </trkpt>
      <trkpt lat="47.545478" lon="7.872968">
        <ele>362.796948</ele>
        <time>2021-11-19T10:04:20.027Z</time>
      </trkpt>
      <trkpt lat="47.545375" lon="7.872836">
        <ele>361.859982</ele>
        <time>2021-11-19T10:04:21.220Z</time>
      </trkpt>
      <trkpt lat="47.545131" lon="7.872664">
        <ele>360.000964</ele>
        <time>2021-11-19T10:04:23.679Z</time>
      </trkpt>
      <trkpt lat="47.544883" lon="7.872555">
        <ele>358.221269</ele>
        <time>2021-11-19T10:04:26.002Z</time>
      </trkpt>
      <trkpt lat="47.544390" lon="7.872423">
        <ele>354.774576</ele>
        <time>2021-11-19T10:04:30.464Z</time>
      </trkpt>
      <trkpt lat="47.543332" lon="7.872237">
        <ele>348.714935</ele>
        <time>2021-11-19T10:04:40.226Z</time>
      </trkpt>
      <trkpt lat="47.543251" lon="7.872152">
        <ele>348.153665</ele>
        <time>2021-11-19T10:04:41.175Z</time>
      </trkpt>
      <trkpt lat="47.543233" lon="7.872082">
        <ele>347.867754</ele>
        <time>2021-11-19T10:04:41.597Z</time>
      </trkpt>
      <trkpt lat="47.543013" lon="7.872182">
        <ele>346.566556</ele>
        <time>2021-11-19T10:04:43.831Z</time>
      </trkpt>
      <trkpt lat="47.542919" lon="7.872226">
        <ele>346.009145</ele>
        <time>2021-11-19T10:04:44.765Z</time>
      </trkpt>
      <trkpt lat="47.542814" lon="7.872280">
        <ele>345.380679</ele>
        <time>2021-11-19T10:04:45.816Z</time>
      </trkpt>
      <trkpt lat="47.542714" lon="7.872334">
        <ele>344.778848</ele>
        <time>2021-11-19T10:04:46.882Z</time>
      </trkpt>
      <trkpt lat="47.542537" lon="7.872430">
        <ele>344.405903</ele>
        <time>2021-11-19T10:04:48.624Z</time>
      </trkpt>
      <trkpt lat="47.542436" lon="7.872494">
        <ele>344.405903</ele>
        <time>2021-11-19T10:04:49.902Z</time>
      </trkpt>
      <trkpt lat="47.542394" lon="7.872341">
        <ele>344.405903</ele>
        <time>2021-11-19T10:04:50.982Z</time>
      </trkpt>
      <trkpt lat="47.542218" lon="7.871866">
        <ele>344.405903</ele>
        <time>2021-11-19T10:04:54.640Z</time>
      </trkpt>
      <trkpt lat="47.542091" lon="7.871721">
        <ele>344.405903</ele>
        <time>2021-11-19T10:04:56.166Z</time>
      </trkpt>
      <trkpt lat="47.542067" lon="7.871664">
        <ele>344.405903</ele>
        <time>2021-11-19T10:04:56.840Z</time>
      </trkpt>
      <trkpt lat="47.542039" lon="7.871556">
        <ele>344.405903</ele>
        <time>2021-11-19T10:04:57.697Z</time>
      </trkpt>
      <trkpt lat="47.542039" lon="7.871556">
        <ele>344.405903</ele>
        <time>2021-11-19T10:04:57.698Z</time>
      </trkpt>
    </trkseg>
  </trk>
</gpx>